[[{"header":{"parameterUnit":"m.s-1","parameterCategory":1,"la1":31.0,"la2":29.5877,"lo1":-88.7671,"lo2":-86.6584,"dx":0.0162,"dy":0.0185,"nx":115,"ny":88,"refTime":"2022-12-26T06:00:00:Z","depth":0,"parameterNumber":2,"parameterNumberName":"U-component_of_WINDS"},"data":[0.0,0.0,0.0,0.0,0.0,0.0,0.0,0.0,0.0,0.0,0.0,0.0,0.0,0.0,0.0,0.0,0.0,0.0,0.0,0.0,0.0,0.0,0.0,0.0,0.0,0.0,0.0,0.0,0.0,0.0,0.0,0.0,0.0,0.0,0.0,0.0,0.0,0.0,0.0,0.0,0.0,0.0,0.0,0.0,0.0,0.0,0.0,0.0,0.0,0.0,0.0,0.0,0.0,0.0,0.0,0.0,0.0,0.0,0.0,0.0,0.0,0.0,0.0,0.0,0.0,0.0,0.0,0.0,0.0,0.0,0.0,0.0,0.0,0.0,0.0,0.0,0.0,0.0,0.0,0.0,0.0,0.0,0.0,0.0,0.0,0.0,0.0,0.0,0.0,0.0,0.0,0.0,0.0,0.0,0.0,0.0,0.0,0.0,0.0,0.0,0.0,0.0,0.0,0.0,0.0,0.0,0.0,0.0,0.0,0.0,0.0,0.0,0.0,0.0,0.0,0.0,0.0,0.0,0.0,0.0,0.0,0.0,0.0,0.0,0.0,0.0,0.0,0.0,0.0,0.0,0.0,0.0,0.0,0.0,0.0,0.0,0.0,0.0,0.0,0.0,0.0,0.0,0.0,0.0,0.0,0.0,0.0,0.0,0.0,0.0,0.0,0.0,0.0,0.0,0.0,0.0,0.0,0.0,0.0,0.0,0.0,0.0,0.0,0.0,0.0,0.0,0.0,0.0,0.0,0.0,0.0,0.0,0.0,0.0,0.0,0.0,0.0,0.0,0.0,0.0,0.0,0.0,0.0,0.0,0.0,0.0,0.0,0.0,0.0,0.0,0.0,0.0,0.0,0.0,0.0,0.0,0.0,0.0,0.0,0.0,0.0,0.0,0.0,0.0,0.0,0.0,0.0,0.0,0.0,0.0,0.0,0.0,0.0,0.0,0.0,0.0,0.0,0.0,0.0,0.0,0.0,0.0,0.0,0.0,0.0,0.0,0.0,0.0,0.0,0.0,0.0,0.0,0.0,0.0,0.0,0.0,0.0,0.0,0.0,0.0,0.0,0.0,0.0,0.0,0.0,0.0,0.0,0.0,0.0,0.0,0.0,0.0,0.0,0.0,0.0,0.0,0.0,0.0,0.0,0.0,0.0,0.0,0.0,0.0,0.0,0.0,0.0,0.0,0.0,0.0,0.0,0.0,0.0,0.0,0.0,0.0,0.0,0.0,0.0,0.0,0.0,0.0,0.0,0.0,0.0,0.0,0.0,0.0,0.0,0.0,0.0,0.0,0.0,0.0,0.0,0.0,0.0,0.0,0.0,0.0,0.0,0.0,0.0,0.0,0.0,0.0,0.0,0.0,0.0,0.0,0.0,0.0,0.0,0.0,0.0,0.0,0.0,0.0,0.0,0.0,0.0,0.0,0.0,0.0,0.0,0.0,0.0,0.0,0.0,0.0,0.0,0.0,0.0,0.0,0.0,0.0,0.0,0.0,0.0,0.0,0.0,0.0,0.0,0.0,0.0,0.0,0.0,0.0,0.0,0.0,0.0,0.0,0.0,0.0,0.0,0.0,0.0,0.0,0.0,0.0,0.0,0.0,0.0,0.0,0.0,0.0,0.0,0.0,0.0,0.0,0.0,0.0,0.0,0.0,0.0,0.0,0.0,0.0,0.0,0.0,0.0,0.0,0.0,0.0,0.0,0.0,0.0,0.0,0.0,0.0,0.0,0.0,0.0,0.0,0.0,0.0,0.0,0.0,0.0,0.0,0.0,0.0,0.0,0.0,0.0,0.0,0.0,0.0,0.0,0.0,0.0,0.0,0.0,0.0,0.0,0.0,0.0,0.0,0.0,0.0,0.0,0.0,0.0,0.0,0.0,0.0,0.0,0.0,0.0,0.0,0.0,0.0,0.0,0.0,0.0,0.0,0.0,0.0,0.0,0.0,0.0,0.0,0.0,0.0,0.0,0.0,0.0,0.0,0.0,0.0,0.0,0.0,0.0,0.0,0.0,0.0,0.0,0.0,0.0,0.0,0.0,0.0,0.0,0.0,0.0,0.0,0.0,0.0,0.0,0.0,0.0,0.0,0.0,0.0,0.0,0.0,0.0,0.0,0.0,0.0,0.0,0.0,0.0,0.0,0.0,0.0,0.0,0.0,0.0,0.0,0.0,0.0,0.0,0.0,0.0,0.0,0.0,0.0,0.0,0.0,0.0,0.0,0.0,0.0,0.0,0.0,0.0,0.0,0.0,0.0,0.0,0.0,0.0,0.0,0.0,0.0,0.0,0.0,0.0,0.0,0.0,0.0,0.0,0.0,0.0,0.0,0.0,0.0,0.0,0.0,0.0,0.0,0.0,0.0,0.0,0.0,0.0,0.0,0.0,0.0,0.0,0.0,0.0,0.0,0.0,0.0,0.0,0.0,0.0,0.0,0.0,0.0,0.0,0.0,0.0,0.0,0.0,0.0,0.0,0.0,0.0,0.0,0.0,0.0,0.0,0.0,0.0,0.0,0.0,0.0,0.0,0.0,0.0,0.0,0.0,0.0,0.0,0.0,0.0,0.0,0.0,0.0,0.0,0.0,0.0,0.0,0.0,0.0,0.0,0.0,0.0,0.0,0.0,0.0,0.0,0.0,0.0,0.0,0.0,0.0,0.0,0.0,0.0,0.0,0.0,0.0,0.0,0.0,0.0,0.0,0.0,0.0,0.0,0.0,0.0,0.0,0.0,0.0,0.0,0.0,0.0,0.0,0.0,0.0,0.0,0.0,0.0,0.0,0.0,0.0,0.0,0.0,0.0,0.0,0.0,0.0,0.0,0.0,0.0,0.0,0.0,0.0,0.0,0.0,0.0,0.0,0.0,0.0,0.0,0.0,0.0,0.0,0.0,0.0,0.0,0.0,0.0,0.0,0.0,0.0,0.0,0.0,0.0,0.0,0.0,0.0,0.0,0.0,0.0,0.0,0.0,0.0,0.0,0.0,0.0,0.0,0.0,0.0,0.0,0.0,0.0,0.0,0.0,0.0,0.0,0.0,0.0,0.0,0.0,0.0,0.0,0.0,0.0,0.0,0.0,0.0,0.0,0.0,0.0,0.0,0.0,0.0,0.0,0.0,0.0,0.0,0.0,0.0,0.0,0.0,0.0,0.0,0.0,0.0,0.0,0.0,0.0,0.0,0.0,0.0,0.0,0.0,0.0,0.0,0.0,0.0,0.0,0.0,0.0,0.0,0.0,0.0,0.0,0.0,0.0,0.0,0.0,0.0,0.0,0.0,0.0,0.0,0.0,0.0,0.0,0.0,0.0,0.0,0.0,0.0,0.0,0.0,0.0,0.0,0.0,0.0,0.0,0.0,0.0,0.0,0.0,0.0,0.0,0.0,0.0,0.0,0.0,0.0,0.0,0.0,0.0,0.0,0.0,0.0,0.0,0.0,0.0,0.0,0.0,0.0,0.0,0.0,0.0,0.0,0.0,0.0,0.0,0.0,0.0,0.0,0.0,0.0,0.0,0.0,0.0,0.0,0.0,0.0,0.0,0.0,0.0,0.0,0.0,0.0,0.0,0.0,0.0,0.0,0.0,0.0,0.0,0.0,0.0,0.0,0.0,0.0,0.0,0.0,0.0,0.0,0.0,0.0,0.0,0.0,0.0,0.0,0.0,0.0,0.0,0.0,0.0,0.0,0.0,0.0,0.0,0.0,0.0,0.0,0.0,0.0,0.0,0.0,0.0,0.0,0.0,0.0,0.0,0.0,0.0,0.0,0.0,0.0,0.0,0.0,0.0,0.0,0.0,0.0,0.0,0.0,0.0,0.0,0.0,0.0,0.0,0.0,0.0,0.0,0.0,0.0,0.0,0.0,0.0,0.0,0.0,0.0,0.0,0.0,0.0,0.0,0.0,0.0,0.0,0.0,0.0,0.0,0.0,0.0,0.0,0.0,0.0,0.0,0.0,0.0,0.0,0.0,0.0,0.0,0.0,0.0,0.0,0.0,0.0,0.0,0.0,0.0,0.0,0.0,0.0,0.0,0.0,0.0,0.0,0.0,0.0,0.0,0.0,0.0,0.0,0.0,0.0,0.0,0.0,0.0,0.0,0.0,0.0,0.0,0.0,0.0,0.0,0.0,0.0,0.0,0.0,0.0,0.0,0.0,0.0,0.0,0.0,0.0,0.0,0.0,0.0,0.0,0.0,0.0,0.0,0.0,0.0,0.0,0.0,0.0,0.0,0.0,0.0,0.0,0.0,0.0,0.0,0.0,1.5143,0.0,0.0,0.0,1.3622,0.0,0.0,0.0,0.0,0.0,0.0,0.0,0.0,0.0,0.0,0.0,0.0,0.0,0.0,0.0,0.0,0.0,0.0,0.0,0.0,0.0,0.0,0.0,0.0,0.0,0.0,0.0,0.0,0.0,0.0,0.0,0.0,0.0,0.0,0.0,0.0,0.0,0.0,0.0,0.0,0.0,0.0,0.0,0.0,0.0,0.0,0.0,0.0,0.0,0.0,0.0,0.0,0.0,0.0,0.0,0.0,0.0,0.0,0.0,0.0,0.0,0.0,0.0,0.0,0.0,0.0,0.0,0.0,0.0,0.0,0.0,0.0,0.0,0.0,0.0,0.0,0.0,0.0,0.0,0.0,0.0,0.0,0.0,0.0,0.0,0.0,0.0,0.0,0.0,0.0,0.0,0.0,0.0,0.0,0.0,0.0,0.0,0.0,0.0,0.0,0.0,0.0,0.0,0.0,0.0,0.0,0.0,0.0,0.0,0.0,1.4995,1.4935,1.4757,1.4467,1.408,0.0,0.0,0.0,0.0,0.0,0.0,0.0,0.0,0.0,0.0,0.0,0.0,0.0,0.0,0.0,0.0,0.0,0.0,0.0,0.0,0.0,0.0,0.0,0.0,0.0,0.0,0.0,0.0,0.0,0.0,0.0,0.0,0.0,0.0,0.0,0.0,0.0,0.0,0.0,0.0,0.0,0.0,0.0,0.0,0.0,0.0,0.0,0.0,0.0,0.0,0.0,0.0,0.0,0.0,0.0,0.0,0.0,0.0,0.0,0.0,0.0,0.0,0.0,0.0,0.0,0.0,0.0,0.0,0.0,0.0,0.0,0.0,0.0,0.0,0.0,0.0,0.0,0.0,0.0,0.0,0.0,0.0,0.0,0.0,0.0,0.0,0.0,0.0,0.0,0.0,0.0,0.0,0.0,0.0,0.0,0.0,0.0,0.0,0.0,0.0,0.0,0.0,0.0,0.0,0.0,0.0,0.0,0.0,0.0,0.0,0.0,0.0,1.4679,1.4428,1.4251,0.0,0.0,0.0,0.0,0.0,0.0,0.0,0.0,0.0,0.0,0.0,0.0,0.0,0.0,0.0,0.0,0.0,0.0,0.0,0.0,0.0,0.0,0.0,0.0,0.0,0.0,0.0,0.0,0.0,0.0,0.0,0.0,0.0,0.0,0.0,0.0,0.0,0.0,0.0,0.0,0.0,0.0,0.0,0.0,0.0,0.0,0.0,0.0,0.0,0.0,0.0,0.0,0.0,0.0,0.0,0.0,0.0,0.0,0.0,0.0,0.0,0.0,0.0,0.0,0.0,0.0,0.0,0.0,0.0,0.0,0.0,0.0,0.0,0.0,0.0,0.0,0.0,0.0,0.0,0.0,0.0,0.0,0.0,0.0,0.0,0.0,0.0,0.0,0.0,0.0,0.0,0.0,0.0,0.0,0.0,0.0,0.0,0.0,0.0,0.0,0.0,0.0,0.0,0.0,0.0,0.0,0.0,0.0,0.0,0.0,1.5029,1.551,1.4853,0.0,1.3899,0.0,0.0,0.0,0.0,0.0,0.0,0.0,0.0,0.0,0.0,0.0,0.0,0.0,0.0,0.0,0.0,0.0,0.0,0.0,0.0,0.0,0.0,0.0,0.0,0.0,0.0,0.0,0.0,0.0,0.0,0.0,0.0,0.0,0.0,0.0,0.0,0.0,0.0,0.0,0.0,0.0,0.0,0.0,0.0,0.0,0.0,0.0,0.0,0.0,0.0,0.0,0.0,0.0,0.0,0.0,0.0,0.0,0.0,0.0,0.0,0.0,0.0,0.0,0.0,0.0,0.0,0.0,0.0,0.0,0.0,0.0,0.0,0.0,0.0,0.0,0.0,0.0,0.0,0.0,0.0,0.0,0.0,0.0,0.0,0.0,0.0,0.0,0.0,0.0,0.0,0.0,0.0,0.0,0.0,0.0,0.0,0.0,0.0,0.0,0.0,0.0,0.0,0.0,0.0,0.0,0.0,0.0,0.0,0.0,0.0,1.5063,1.5577,1.5033,1.4406,0.0,0.0,0.0,0.0,0.0,0.0,0.0,0.0,0.0,0.0,0.0,0.0,0.0,0.0,0.0,0.0,0.0,0.0,0.0,0.0,0.0,0.0,0.0,0.0,0.0,0.0,0.0,0.0,0.0,0.0,0.0,0.0,0.0,0.0,0.0,0.0,0.0,0.0,0.0,0.0,0.0,0.0,0.0,0.0,0.0,0.0,0.0,0.0,0.0,0.0,0.0,0.0,0.0,0.0,0.0,0.0,0.0,0.0,0.0,0.0,0.0,0.0,0.0,0.0,0.0,0.0,0.0,0.0,0.0,0.0,0.0,0.0,0.0,0.0,0.0,0.0,0.0,0.0,0.0,0.0,0.0,0.0,0.0,0.0,0.0,0.0,0.0,0.0,0.0,0.0,0.0,0.0,0.0,0.0,0.0,0.0,0.0,0.0,0.0,0.0,0.0,0.0,0.0,0.0,0.0,0.0,0.0,0.0,0.0,0.0,1.4724,1.4878,1.5178,1.4933,1.4354,1.3459,0.0,0.0,0.0,0.0,0.0,0.0,0.0,0.0,0.0,0.0,0.0,0.0,0.0,0.0,0.0,0.0,0.0,0.0,0.0,0.0,0.0,0.0,0.0,0.0,0.0,0.0,0.0,0.0,0.0,0.0,0.0,0.0,0.0,0.0,0.0,0.0,0.0,0.0,0.0,0.0,0.0,0.0,0.0,0.0,0.0,0.0,0.0,0.0,0.0,0.0,0.0,0.0,0.0,0.0,0.0,0.0,0.0,0.0,0.0,0.0,0.0,0.0,0.0,0.0,0.0,0.0,0.0,0.0,0.0,0.0,0.0,0.0,0.0,0.0,0.0,0.0,0.0,0.0,0.0,0.0,0.0,0.0,0.0,0.0,0.0,0.0,0.0,0.0,0.0,0.0,0.0,0.0,0.0,0.0,0.0,0.0,0.0,0.0,0.0,0.0,0.0,0.0,0.0,0.0,0.0,0.0,0.0,0.0,1.4517,1.4531,1.4439,1.4316,1.4436,1.4114,0.0,0.0,0.0,0.0,0.0,0.0,0.0,0.0,0.0,0.0,0.0,0.0,0.0,0.0,0.0,0.0,0.0,0.0,0.0,0.0,0.0,0.0,0.0,0.0,0.0,0.0,0.0,0.0,0.0,0.0,0.0,0.0,0.0,0.0,0.0,0.0,0.0,0.0,0.0,0.0,0.0,0.0,0.0,0.0,0.0,0.0,0.0,0.0,0.0,0.0,0.0,0.0,0.0,0.0,0.0,0.0,0.0,0.0,0.0,0.0,0.0,0.0,0.0,0.0,0.0,0.0,0.0,0.0,0.0,0.0,0.0,0.0,0.0,0.0,0.0,0.0,0.0,0.0,0.0,0.0,0.0,0.0,0.0,0.0,0.0,0.0,0.0,0.0,0.0,0.0,0.0,0.0,0.0,0.0,0.0,0.0,0.0,0.0,0.0,0.0,0.0,0.0,0.0,0.0,0.0,0.0,0.0,0.0,0.0,1.4453,1.4984,1.5067,1.4609,1.4778,1.4288,0.0,0.0,0.0,0.0,0.0,0.0,0.0,0.0,0.0,0.0,0.0,0.0,0.0,0.0,0.0,0.0,0.0,0.0,0.0,0.0,0.0,0.0,0.0,0.0,0.0,0.0,0.0,0.0,0.0,0.0,0.0,0.0,0.0,0.0,0.0,0.0,0.0,0.0,0.0,0.0,0.0,0.0,0.0,0.0,0.0,0.0,0.0,0.0,0.0,0.0,0.0,0.0,0.0,0.0,0.0,0.0,0.0,0.0,0.0,0.0,0.0,0.0,0.0,0.0,0.0,0.0,0.0,0.0,0.0,0.0,0.0,0.0,0.0,0.0,0.0,0.0,0.0,0.0,0.0,0.0,0.0,0.0,0.0,0.0,0.0,0.0,0.0,0.0,0.0,0.0,0.0,0.0,0.0,0.0,0.0,0.0,0.0,0.0,0.0,0.0,0.0,0.0,0.0,0.0,0.0,0.0,0.0,0.0,0.0,1.4508,1.5252,1.5388,1.4892,1.4731,1.4156,0.0,0.0,0.0,0.0,0.0,0.0,0.0,0.0,0.0,0.0,0.0,0.0,0.0,0.0,0.0,0.0,0.0,0.0,0.0,0.0,0.0,0.0,0.0,0.0,0.0,0.0,0.0,0.0,0.0,0.0,0.0,0.0,0.0,0.0,0.0,0.0,0.0,0.0,0.0,0.0,0.0,0.0,0.0,0.0,0.0,0.0,0.0,0.0,0.0,0.0,0.0,0.0,0.0,0.0,0.0,0.0,0.0,0.0,0.0,0.0,0.0,0.0,0.0,0.0,0.0,0.0,0.0,0.0,0.0,0.0,0.0,0.0,0.0,0.0,0.0,0.0,0.0,0.0,0.0,0.0,0.0,0.0,0.0,0.0,0.0,0.0,0.0,0.0,0.0,0.0,0.0,0.0,0.0,0.0,0.0,0.0,0.0,0.0,0.0,0.0,0.0,0.0,0.0,0.0,0.0,0.0,0.0,0.0,1.4283,1.4734,1.5257,1.5401,1.5022,1.4328,1.3713,0.0,0.0,0.0,0.0,0.0,0.0,0.0,0.0,0.0,0.0,0.0,0.0,0.0,0.0,0.0,0.0,0.0,0.0,0.0,0.0,0.0,0.0,0.0,0.0,0.0,0.0,0.0,0.0,0.0,0.0,0.0,0.0,0.0,0.0,0.0,0.0,0.0,0.0,0.0,0.0,0.0,0.0,0.0,0.0,0.0,0.0,0.0,0.0,0.0,0.0,0.0,0.0,0.0,0.0,0.0,0.0,0.0,0.0,0.0,0.0,0.0,0.0,0.0,0.0,0.0,0.0,0.0,0.0,0.0,0.0,0.0,0.0,0.0,0.0,0.0,0.0,0.0,0.0,0.0,0.0,0.0,0.0,0.0,0.0,0.0,0.0,0.0,0.0,0.0,0.0,0.0,0.0,0.0,0.0,0.0,0.0,0.0,0.0,0.0,0.0,0.0,0.0,0.0,0.0,0.0,0.0,0.0,0.0,0.0,1.6272,1.6314,1.6237,1.6025,1.5672,1.4779,0.0,0.0,0.0,0.0,0.0,0.0,0.0,0.0,0.0,0.0,0.0,0.0,0.0,0.0,0.0,0.0,0.0,0.0,0.0,0.0,0.0,0.0,0.0,0.0,0.0,0.0,0.0,0.0,0.0,0.0,0.0,0.0,0.0,0.0,0.0,0.0,0.0,0.0,0.0,0.0,0.0,0.0,0.0,0.0,0.0,0.0,0.0,0.0,0.0,0.0,0.0,0.0,0.0,0.0,0.0,0.0,0.0,0.0,0.0,0.0,0.0,0.0,0.0,0.0,0.0,0.0,0.0,0.0,0.0,0.0,0.0,0.0,0.0,0.0,0.0,0.0,0.0,0.0,0.0,0.0,0.0,0.0,0.0,0.0,0.0,0.0,0.0,0.0,0.0,0.0,0.0,0.0,0.0,0.0,0.0,0.0,0.0,0.0,0.0,0.0,0.0,0.0,0.0,0.0,0.0,0.0,0.0,0.0,0.0,1.7908,1.7554,1.7205,1.7004,1.6453,1.5529,1.4176,0.0,0.0,0.0,0.0,0.0,0.0,0.0,0.0,0.0,0.0,0.0,0.0,0.0,0.0,0.0,0.0,0.0,0.0,0.0,0.0,0.0,0.0,0.0,0.0,0.0,0.0,0.0,0.0,0.0,0.0,0.0,0.0,0.0,0.0,0.0,0.0,0.0,0.0,0.0,0.0,0.0,0.0,0.0,0.0,0.0,0.0,0.0,0.0,0.0,0.0,0.0,0.0,0.0,0.0,0.0,0.0,0.0,0.0,0.0,0.0,0.0,0.0,0.0,0.0,0.0,0.0,0.0,0.0,0.0,0.0,0.0,0.0,0.0,0.0,0.0,0.0,0.0,0.0,0.0,0.0,0.0,0.0,0.0,0.0,0.0,0.0,0.0,0.0,0.0,0.0,0.0,0.0,0.0,0.0,0.0,0.0,0.0,0.0,0.0,0.0,0.0,0.0,0.0,0.0,0.0,0.0,0.0,0.0,1.9553,1.8919,1.8343,1.7884,1.6808,1.5963,0.0,0.0,0.0,0.0,0.0,0.0,0.0,0.0,0.0,0.0,0.0,0.0,0.0,0.0,0.0,0.0,0.0,0.0,0.0,0.0,0.0,0.0,0.0,0.0,0.0,0.0,0.0,0.0,0.0,0.0,0.0,0.0,0.0,0.0,0.0,0.0,0.0,0.0,0.0,0.0,0.0,0.0,0.0,0.0,0.0,0.0,0.0,0.0,0.0,0.0,0.0,0.0,0.0,0.0,0.0,0.0,0.0,0.0,0.0,0.0,0.0,0.0,0.0,0.0,0.0,0.0,0.0,0.0,0.0,0.0,0.0,0.0,0.0,0.0,0.0,0.0,0.0,0.0,0.0,0.0,0.0,0.0,0.0,0.0,0.0,0.0,0.0,0.0,0.0,0.0,0.0,0.0,0.0,0.0,0.0,0.0,0.0,0.0,0.0,0.0,0.0,0.0,0.0,0.0,0.0,0.0,0.0,0.0,0.0,1.9435,2.0019,1.9907,1.9065,1.7861,1.6676,0.0,0.0,0.0,0.0,0.0,0.0,0.0,0.0,0.0,0.0,0.0,0.0,0.0,0.0,0.0,0.0,0.0,0.0,0.0,0.0,0.0,0.0,0.0,0.0,0.0,0.0,0.0,0.0,0.0,0.0,0.0,0.0,0.0,0.0,0.0,0.0,0.0,0.0,0.0,0.0,0.0,0.0,0.0,0.0,0.0,0.0,0.0,0.0,0.0,0.0,0.0,0.0,0.0,0.0,0.0,0.0,0.0,0.0,0.0,0.0,0.0,0.0,0.0,0.0,0.0,0.0,0.0,0.0,0.0,0.0,0.0,0.0,0.0,0.0,0.0,0.0,0.0,0.0,0.0,0.0,0.0,0.0,0.0,0.0,0.0,0.0,0.0,0.0,0.0,0.0,0.0,0.0,0.0,0.0,0.0,0.0,0.0,0.0,0.0,0.0,0.0,0.0,0.0,0.0,0.0,0.0,0.0,0.0,1.9415,1.9974,2.0527,2.0566,2.005,1.8846,1.7543,0.0,0.0,0.0,0.0,0.0,0.0,0.0,0.0,0.0,0.0,0.0,0.0,0.0,0.0,0.0,0.0,0.0,0.0,0.0,0.0,0.0,0.0,0.0,0.0,0.0,0.0,0.0,0.0,0.0,0.0,0.0,0.0,0.0,0.0,0.0,0.0,0.0,0.0,0.0,0.0,0.0,0.0,0.0,0.0,0.0,0.0,0.0,0.0,0.0,0.0,0.0,0.0,0.0,0.0,0.0,0.0,0.0,0.0,0.0,0.0,0.0,0.0,0.0,0.0,0.0,0.0,0.0,0.0,0.0,0.0,0.0,0.0,0.0,0.0,0.0,0.0,0.0,0.0,0.0,0.0,0.0,0.0,0.0,0.0,0.0,0.0,0.0,0.0,0.0,0.0,0.0,0.0,0.0,0.0,0.0,0.0,0.0,0.0,0.0,0.0,0.0,0.0,0.0,0.0,0.0,0.0,0.0,0.0,1.9578,2.0831,2.0812,2.0762,2.0746,1.9619,1.8326,0.0,0.0,0.0,0.0,0.0,0.0,0.0,0.0,0.0,0.0,0.0,0.0,0.0,0.0,0.0,0.0,0.0,0.0,0.0,0.0,0.0,0.0,0.0,0.0,0.0,0.0,0.0,0.0,0.0,0.0,0.0,0.0,0.0,0.0,0.0,0.0,0.0,0.0,0.0,0.0,0.0,0.0,0.0,0.0,0.0,0.0,0.0,0.0,0.0,0.0,0.0,0.0,0.0,0.0,0.0,0.0,0.0,0.0,0.0,0.0,0.0,0.0,0.0,0.0,0.0,0.0,0.0,0.0,0.0,0.0,0.0,0.0,0.0,0.0,0.0,0.0,0.0,0.0,0.0,0.0,0.0,0.0,0.0,0.0,0.0,0.0,0.0,0.0,0.0,0.0,0.0,0.0,0.0,0.0,0.0,0.0,0.0,0.0,0.0,0.0,0.0,0.0,0.0,0.0,0.0,0.0,0.0,0.0,2.0459,2.1241,2.1659,2.1467,2.0663,1.948,1.8245,0.0,0.0,0.0,0.0,0.0,0.0,0.0,0.0,0.0,0.0,0.0,0.0,0.0,0.0,0.0,0.0,0.0,0.0,0.0,0.0,0.0,0.0,0.0,0.0,0.0,0.0,0.0,0.0,0.0,0.0,0.0,0.0,0.0,0.0,0.0,0.0,0.0,0.0,0.0,0.0,0.0,0.0,0.0,0.0,0.0,0.0,0.0,0.0,1.1039,0.0,0.0,0.0,0.0,0.0,0.0,0.0,0.0,0.0,0.0,0.0,0.0,0.0,0.0,0.0,0.0,0.0,0.0,0.0,0.0,0.0,0.0,0.0,0.0,0.0,0.0,0.0,0.0,0.0,0.0,0.0,0.0,0.0,0.0,0.0,0.0,0.0,0.0,0.0,0.0,0.0,0.0,0.0,0.0,0.0,0.0,0.0,0.0,0.0,0.0,0.0,0.0,0.0,0.0,0.0,0.0,0.0,0.0,0.0,2.0661,2.1389,2.1921,2.1801,2.0992,2.0003,1.8726,0.0,0.0,0.0,0.0,0.0,0.0,0.0,0.0,0.0,0.0,0.0,0.0,0.0,0.0,0.0,0.0,0.0,0.0,0.0,0.0,0.0,0.0,0.0,0.0,0.0,0.0,0.0,0.0,0.0,0.0,0.0,0.0,0.0,0.0,0.0,0.0,0.0,0.0,0.0,0.0,0.0,0.0,0.0,0.0,0.0,0.0,0.0,0.0,0.0,0.0,0.0,0.0,0.0,0.0,0.0,0.0,0.0,0.0,0.0,0.0,0.0,0.0,0.0,0.0,0.0,0.0,0.0,0.0,0.0,0.0,0.0,0.0,0.0,0.0,0.0,0.0,0.0,0.0,0.0,0.0,0.0,0.0,0.0,0.0,0.0,0.0,0.0,0.0,0.0,0.0,0.0,0.0,0.0,0.0,0.0,0.0,0.0,0.0,0.0,0.0,0.0,0.0,0.0,0.0,0.0,0.0,0.0,1.9717,2.0603,2.1452,2.1954,2.1933,2.1401,2.0609,1.9357,1.7619,0.0,0.0,0.0,0.0,0.0,0.0,0.0,0.0,0.0,0.0,0.0,0.0,0.0,0.0,0.0,0.0,0.0,0.0,0.0,0.0,0.0,0.0,0.0,0.0,0.0,0.0,0.0,0.0,0.0,0.0,0.0,0.0,0.0,0.0,0.0,0.0,0.0,0.0,0.9833,1.0544,0.0,0.0,0.0,0.0,0.0,0.0,0.0,0.0,1.1129,0.0,0.0,0.0,0.0,0.0,0.0,0.0,0.0,0.0,0.0,0.0,0.0,0.0,0.0,0.0,0.0,0.0,0.0,0.0,0.0,0.0,0.0,0.0,0.0,0.0,0.0,0.0,0.0,0.0,0.0,0.0,0.0,0.0,0.0,0.0,0.0,0.0,0.0,0.0,0.0,0.0,0.0,0.0,0.0,0.0,0.0,0.0,0.0,0.0,0.0,0.0,0.0,0.0,0.0,0.0,0.0,1.9651,2.0035,2.0724,2.1798,2.206,2.1933,2.1401,2.0623,1.9589,1.8273,0.0,0.0,0.0,0.0,0.0,0.0,0.0,0.0,0.0,0.0,0.0,0.0,0.0,0.0,0.0,0.0,0.0,0.0,0.0,0.0,0.0,0.0,0.0,0.0,0.0,0.0,0.0,0.0,0.0,0.0,0.0,0.0,0.0,0.0,0.0,0.0,0.0,0.0,0.0,1.123,1.1517,0.0,0.0,0.0,0.0,0.0,0.0,0.0,0.0,1.1128,0.0,0.0,0.0,0.0,0.0,0.0,0.0,0.0,0.0,0.0,0.0,0.0,0.0,0.0,0.0,0.0,0.0,0.0,0.0,0.0,0.0,0.0,0.0,0.0,0.0,0.0,0.0,0.0,0.0,0.0,0.0,0.0,0.0,0.0,0.0,0.0,0.0,0.0,0.0,0.0,0.0,0.0,0.0,0.0,0.0,0.0,0.0,0.0,0.0,0.0,0.0,0.0,0.0,0.0,0.0,1.9916,2.0147,2.0816,2.1998,2.2139,2.2081,2.1801,2.0778,1.9756,0.0,0.0,0.0,0.0,0.0,0.0,0.0,0.0,0.0,0.0,0.0,0.0,0.0,0.0,0.0,0.0,0.0,0.0,0.0,0.0,0.0,0.0,0.0,0.0,0.0,0.0,0.0,0.0,0.0,0.0,0.0,0.0,0.0,0.0,0.0,0.0,0.0,0.0,0.0,0.0,1.1682,1.1899,1.2182,0.0,0.0,0.0,0.0,0.0,0.0,1.1585,1.14,0.0,0.0,0.0,0.0,0.0,0.0,0.0,0.0,0.0,0.0,0.0,0.0,0.0,0.0,0.0,0.0,0.0,0.0,0.0,0.0,0.0,0.0,0.0,0.0,0.0,0.0,0.0,0.0,0.0,0.0,0.0,0.0,0.0,0.0,0.0,0.0,0.0,0.0,0.0,0.0,0.0,0.0,0.0,0.0,0.0,0.0,0.0,0.0,0.0,0.0,0.0,0.0,0.0,0.0,0.0,2.0062,2.0361,2.108,2.2247,2.2434,2.2462,2.233,2.1158,2.0111,0.0,0.0,0.0,0.0,0.0,0.0,0.0,0.0,0.0,0.0,0.0,0.0,0.0,0.0,0.0,0.0,0.0,0.0,0.0,0.0,0.0,0.0,0.0,0.0,0.0,0.0,0.0,0.0,0.0,0.0,0.0,0.0,0.0,0.0,0.0,0.0,0.0,0.0,0.0,0.0,0.0,1.2365,1.2742,1.2661,0.0,0.0,0.0,0.0,1.2101,1.1937,0.0,0.0,0.0,0.0,0.0,0.0,0.0,0.0,0.0,0.0,0.0,0.0,0.0,0.0,0.0,0.0,0.0,0.0,0.0,0.0,0.0,0.0,0.0,0.0,0.0,0.0,0.0,0.0,0.0,0.0,0.0,0.0,0.0,0.0,0.0,0.0,0.0,0.0,0.0,0.0,0.0,0.0,0.0,0.0,0.0,0.0,0.0,0.0,0.0,0.0,0.0,0.0,0.0,0.0,0.0,0.0,1.9895,2.0983,2.1883,2.2631,2.3291,2.3396,2.2911,2.2012,2.0865,0.0,0.0,0.0,0.0,0.0,0.0,0.0,0.0,0.0,0.0,0.0,0.0,0.0,0.0,0.0,0.0,0.0,0.0,0.0,0.0,0.0,0.0,0.0,0.0,0.0,0.0,0.0,0.0,0.0,0.0,0.0,0.0,0.0,0.0,0.0,0.0,0.0,0.0,0.0,0.0,0.0,1.2926,1.283,1.2787,1.2695,0.0,0.0,0.0,1.2375,1.2248,0.0,0.0,0.0,0.0,0.0,0.0,0.0,0.0,0.0,0.0,0.0,0.0,0.0,0.0,0.0,0.0,0.0,0.0,0.0,0.0,0.0,0.0,0.0,0.0,0.0,0.0,0.0,0.0,0.0,0.0,0.0,0.0,0.0,0.0,0.0,0.0,0.0,0.0,0.0,0.0,0.0,0.0,0.0,0.0,0.0,0.0,0.0,0.0,0.0,0.0,0.0,0.0,0.0,0.0,0.0,1.8497,2.0422,2.1395,2.2349,2.329,2.3652,2.3681,2.3452,2.2309,2.1251,0.0,0.0,0.0,0.0,0.0,0.0,0.0,0.0,0.0,0.0,0.0,0.0,0.0,0.0,0.0,0.0,0.0,0.0,0.0,0.0,0.0,0.0,0.0,0.0,0.0,0.0,0.0,0.0,0.0,0.0,0.0,0.0,0.0,0.0,0.0,0.0,0.0,0.0,0.0,0.0,0.0,0.0,1.3945,1.381,0.0,0.0,0.0,1.3453,1.3175,0.0,0.0,0.0,0.0,0.0,0.0,0.0,0.0,0.0,0.0,0.0,0.0,0.0,0.0,0.0,0.0,0.0,0.0,0.0,0.0,0.0,0.0,0.0,0.0,0.0,0.0,0.0,0.0,0.0,0.0,0.0,0.0,0.0,0.0,0.0,0.0,0.0,0.0,0.0,0.0,0.0,0.0,0.0,0.0,0.0,0.0,0.0,0.0,0.0,0.0,0.0,0.0,0.0,0.0,0.0,0.0,0.0,2.0855,2.1886,2.2946,2.4138,2.4307,2.4324,2.4145,2.3069,0.0,0.0,0.0,0.0,0.0,0.0,0.0,0.0,0.0,0.0,0.0,0.0,0.0,0.0,0.0,0.0,0.0,0.0,0.0,0.0,0.0,0.0,0.0,0.0,0.0,0.0,0.0,0.0,0.0,0.0,0.0,0.0,0.0,0.0,0.0,0.0,0.0,0.0,0.0,0.0,0.0,0.0,1.4266,1.4941,1.4732,1.4569,0.0,0.0,1.4144,1.3784,1.3462,1.3141,0.0,0.0,0.0,0.0,0.0,0.0,0.0,0.0,0.0,0.0,0.0,0.0,0.0,0.0,0.0,0.0,0.0,0.0,0.0,0.0,0.0,0.0,0.0,0.0,0.0,0.0,0.0,0.0,0.0,0.0,0.0,0.0,0.0,0.0,0.0,0.0,0.0,0.0,0.0,0.0,0.0,0.0,0.0,0.0,0.0,0.0,0.0,0.0,0.0,0.0,0.0,0.0,0.0,0.0,0.0,2.0879,2.2538,2.3977,2.5162,2.5697,2.5709,2.5216,2.4809,2.3654,0.0,0.0,0.0,0.0,0.0,0.0,0.0,0.0,0.0,0.0,0.0,0.0,0.0,0.0,0.0,0.0,0.0,0.0,0.0,0.0,0.0,0.0,0.0,0.0,0.0,0.0,0.0,0.0,0.0,0.0,0.0,0.0,0.0,0.0,0.0,0.0,0.0,0.0,0.0,0.0,0.0,1.5151,1.5331,1.5177,1.4991,0.0,0.0,1.4313,1.3867,1.3789,1.3541,1.2899,0.0,0.0,0.0,0.0,0.0,0.0,0.0,0.0,0.0,0.0,0.0,0.0,0.0,0.0,0.0,0.0,0.0,0.0,0.0,0.0,0.0,0.0,0.0,0.0,0.0,0.0,0.0,0.0,0.0,0.0,0.0,0.0,0.0,0.0,0.0,0.0,0.0,0.0,0.0,0.0,0.0,0.0,0.0,0.0,0.0,0.0,0.0,0.0,0.0,0.0,0.0,0.0,0.0,1.9863,2.1573,2.3232,2.4665,2.5769,2.6303,2.6328,2.5805,2.5159,2.3972,0.0,0.0,0.0,0.0,0.0,0.0,0.0,0.0,0.0,0.0,0.0,0.0,0.0,0.0,0.0,0.0,0.0,0.0,0.0,0.0,0.0,0.0,0.0,0.0,0.0,0.0,0.0,0.0,1.2232,1.2574,1.3209,0.0,0.0,0.0,0.0,0.0,0.0,0.0,0.0,0.0,0.0,1.5561,1.5701,1.5531,0.0,0.0,1.5063,1.4741,1.4352,1.4077,1.378,1.3301,1.2848,0.0,0.0,0.0,0.0,0.0,0.0,0.0,0.0,0.0,0.0,0.0,0.0,0.0,0.0,0.0,0.0,0.0,0.0,0.0,0.0,0.0,0.0,0.0,0.0,0.0,0.0,0.0,0.0,0.0,0.0,0.0,0.0,0.0,0.0,0.0,0.0,0.0,0.0,0.0,0.0,0.0,0.0,0.0,0.0,0.0,0.0,0.0,0.0,0.0,0.0,0.0,0.0,2.0526,2.2284,2.3998,2.5364,2.6414,2.6962,2.7028,2.6568,2.5777,2.4661,0.0,0.0,0.0,0.0,0.0,0.0,0.0,0.0,0.0,0.0,0.0,0.0,0.0,0.0,0.0,0.0,0.0,0.0,0.0,0.0,0.0,0.0,0.0,0.0,0.0,0.0,0.0,0.0,1.2999,1.3331,1.4181,0.0,0.0,0.0,0.0,0.0,0.0,0.0,0.0,0.0,0.0,1.6027,1.6293,1.6116,1.5895,1.589,1.5595,1.5234,1.4859,1.458,1.4241,1.3872,0.0,0.0,0.0,0.0,0.0,0.0,0.0,0.0,0.0,0.0,0.0,0.0,0.0,0.0,0.0,0.0,0.0,0.0,0.0,0.0,0.0,0.0,0.0,0.0,0.0,0.0,0.0,0.0,0.0,0.0,0.0,0.0,0.0,0.0,0.0,0.0,0.0,0.0,0.0,0.0,0.0,0.0,0.0,0.0,0.0,0.0,0.0,0.0,0.0,0.0,0.0,0.0,0.0,0.0,2.2955,2.474,2.6177,2.7143,2.7709,2.7861,2.7625,2.6955,2.5982,2.4737,0.0,0.0,0.0,0.0,0.0,0.0,0.0,0.0,0.0,0.0,0.0,0.0,0.0,0.0,0.0,0.0,0.0,0.0,0.0,0.0,0.0,0.0,0.0,0.0,0.0,0.0,1.4131,1.4172,1.4297,0.0,0.0,0.0,0.0,0.0,0.0,0.0,0.0,0.0,0.0,1.6517,1.6622,1.7246,1.6968,1.655,1.6316,1.6095,1.5799,1.5334,1.5258,1.5103,0.0,0.0,0.0,0.0,0.0,0.0,0.0,0.0,0.0,0.0,0.0,0.0,0.0,0.0,0.0,0.0,0.0,0.0,0.0,0.0,0.0,0.0,0.0,0.0,0.0,0.0,0.0,0.0,1.8601,0.0,0.0,0.0,0.0,0.0,0.0,0.0,0.0,0.0,0.0,0.0,1.6175,1.6251,0.0,0.0,0.0,0.0,0.0,0.0,0.0,0.0,0.0,0.0,0.0,0.0,2.2031,2.3701,2.5326,2.6682,2.7709,2.8256,2.8268,2.7709,2.7324,2.6181,2.4173,0.0,0.0,0.0,0.0,0.0,0.0,0.0,0.0,0.0,0.0,0.0,0.0,0.0,0.0,0.0,0.0,0.0,0.0,0.0,0.0,0.0,0.0,0.0,0.0,0.0,1.4527,0.0,0.0,0.0,0.0,0.0,0.0,0.0,0.0,0.0,0.0,0.0,1.6495,1.6787,1.6968,1.7029,1.6939,1.6654,1.636,0.0,0.0,0.0,0.0,0.0,0.0,0.0,0.0,0.0,0.0,0.0,0.0,0.0,0.0,1.4172,1.3163,1.3055,1.3107,1.3001,0.0,0.0,0.0,0.0,0.0,0.0,0.0,0.0,0.0,0.0,0.0,0.0,0.0,0.0,0.0,0.0,1.8773,0.0,0.0,0.0,0.0,0.0,0.0,0.0,0.0,1.7512,1.7471,1.7205,1.719,1.7156,0.0,1.7279,1.7155,0.0,0.0,0.0,0.0,0.0,0.0,0.0,0.0,2.3232,2.4731,2.6278,2.742,2.8085,2.8621,2.8626,2.7986,2.7618,2.6377,2.4231,2.2657,2.1333,0.0,0.0,0.0,0.0,0.0,0.0,0.0,0.0,0.0,0.0,0.0,0.0,0.0,0.0,0.0,0.0,0.0,0.0,0.0,0.0,0.0,0.0,0.0,1.5334,0.0,0.0,0.0,0.0,0.0,0.0,0.0,0.0,0.0,1.6448,1.6699,1.7011,1.7206,1.7293,1.7294,1.7236,0.0,0.0,0.0,0.0,0.0,0.0,0.0,1.5598,1.5584,1.5455,1.5301,1.5197,1.5182,1.5218,1.5428,0.0,0.0,1.4285,1.4246,1.4321,1.4252,1.4449,1.4586,1.4472,1.4697,1.4997,0.0,0.0,0.0,0.0,0.0,0.0,0.0,0.0,1.9717,1.9706,0.0,1.966,0.0,0.0,0.0,0.0,0.0,0.0,0.0,0.0,1.8395,1.8469,1.8215,1.8559,1.8638,0.0,1.8583,1.8762,1.8911,1.7882,0.0,0.0,0.0,0.0,0.0,0.0,2.4675,2.5949,2.7477,2.83,2.8349,2.8834,2.8895,2.8486,2.7786,2.6617,2.4985,2.4274,2.2979,2.0903,2.0025,0.0,0.0,0.0,0.0,0.0,0.0,0.0,0.0,0.0,0.0,0.0,0.0,0.0,0.0,0.0,0.0,0.0,0.0,0.0,0.0,1.6192,0.0,0.0,0.0,0.0,0.0,0.0,0.0,0.0,0.0,0.0,1.6954,1.72,1.7563,1.7891,0.0,0.0,0.0,0.0,1.7437,1.7485,1.7281,1.7,1.6755,1.6712,1.6701,1.6731,0.0,0.0,1.6401,1.6199,1.6105,1.6106,1.6182,1.5932,1.5498,1.567,1.5845,1.5627,1.5774,1.601,1.6023,1.6055,1.6201,2.1318,0.0,0.0,0.0,0.0,2.0878,2.1074,2.139,2.1373,2.1072,2.0613,2.0602,0.0,0.0,0.0,0.0,0.0,0.0,1.9026,1.9499,1.9444,1.9484,1.9669,1.964,1.9659,1.9764,1.9793,2.0057,2.0528,2.0519,2.0169,1.9565,0.0,0.0,0.0,0.0,2.5385,2.698,2.787,2.8542,2.9079,2.9103,2.8926,2.851,2.7786,2.7103,2.645,2.4881,2.3625,2.2781,2.1062,0.0,0.0,0.0,0.0,0.0,0.0,0.0,0.0,0.0,0.0,0.0,0.0,0.0,0.0,0.0,0.0,0.0,0.0,0.0,1.6523,1.6696,1.6798,0.0,0.0,0.0,0.0,0.0,0.0,0.0,0.0,0.0,1.8915,1.8444,1.8179,0.0,0.0,1.826,1.8292,1.7978,1.776,1.7803,0.0,0.0,0.0,1.7345,1.7357,1.7345,1.7327,1.7371,1.7504,1.7461,1.7572,1.7982,1.8078,1.8071,1.8099,1.6961,1.6137,1.6152,1.6398,1.6651,1.6843,1.7322,1.7807,2.1846,2.1296,2.113,2.1219,2.1479,2.149,2.1646,2.1901,2.1883,2.1614,2.1138,2.1306,2.1023,2.0421,2.0296,0.0,0.0,0.0,2.0168,2.0594,2.0469,2.0534,2.0745,2.0565,2.0585,2.0824,2.0904,2.1253,2.1865,2.2267,2.2203,2.1695,0.0,0.0,2.4021,2.5147,2.6395,2.7766,2.8349,2.8864,2.9399,2.9118,2.8835,2.8498,2.8048,2.7608,2.7109,2.5758,2.4573,2.3645,2.2027,2.0747,0.0,0.0,0.0,0.0,0.0,0.0,0.0,0.0,0.0,0.0,0.0,1.5381,0.0,0.0,0.0,0.0,1.6361,1.6848,1.7301,1.7579,0.0,0.0,0.0,0.0,0.0,0.0,0.0,2.0359,2.0331,2.0294,2.0305,1.9765,1.9256,1.8998,1.8899,1.8859,1.8838,0.0,1.844,1.8596,1.8416,1.8332,1.8447,1.8473,1.8481,1.8513,1.8511,1.8475,1.8552,1.8547,1.868,1.8988,1.91,1.9218,1.9531,1.8464,1.7539,1.7591,1.7711,1.7918,1.821,1.8705,1.911,2.2569,2.2429,2.205,2.1826,2.1699,2.1715,2.1776,2.1802,2.1846,2.1733,2.1571,2.1955,2.191,2.1523,2.1554,0.0,0.0,2.1362,2.145,2.1327,2.1563,2.1683,2.1742,2.1602,2.1654,2.1945,2.2113,2.2539,2.3176,2.3605,2.4091,2.4741,2.4731,2.5066,2.5763,2.6725,2.7642,2.8478,2.8964,2.9226,2.9399,2.9028,2.8764,2.853,2.851,2.8112,2.7223,2.6751,2.5683,2.3873,2.295,2.1878,2.0545,0.0,0.0,0.0,0.0,0.0,0.0,0.0,0.0,0.0,0.0,0.0,0.0,0.0,0.0,0.0,1.7686,0.0,1.8189,1.8771,0.0,0.0,0.0,1.9831,2.0566,2.0985,2.1286,2.1462,0.0,0.0,0.0,0.0,2.0644,1.988,1.9464,1.9382,1.9694,1.9555,1.9483,1.9858,1.9684,1.9631,1.9925,1.9937,1.9918,1.994,1.9992,1.9837,1.9619,1.9551,1.9524,1.9656,1.9581,1.9719,2.0001,2.0049,1.9981,1.9698,1.9542,1.9565,1.9856,2.0042,2.0264,2.4808,2.4616,2.4388,2.3635,2.2613,2.2829,2.3103,2.3448,2.386,2.3842,2.3496,2.3401,2.3053,2.2529,2.2341,2.213,2.1877,2.1823,2.2079,2.2509,2.286,2.33,2.3801,2.4108,2.4379,2.4636,2.4702,2.499,2.5507,2.5945,2.6433,2.6927,2.7275,2.7357,2.7157,2.7923,2.892,3.02,2.9885,2.9616,2.9392,2.9321,2.9099,2.8744,2.8724,2.8418,2.7721,2.7095,2.6278,2.5315,2.3979,2.2834,2.1945,2.1086,0.0,0.0,0.0,0.0,0.0,0.0,0.0,0.0,0.0,1.6956,1.721,0.0,1.779,0.0,1.8554,1.925,1.984,2.0046,0.0,0.0,2.1105,2.1505,2.1916,2.2101,2.2429,2.2907,2.2503,2.2256,2.2434,2.2238,2.2139,2.2181,2.1229,2.0619,2.0976,2.0997,2.1071,2.1369,2.136,2.1388,2.1432,2.1295,2.11,2.0833,2.0823,2.0773,2.0709,2.0686,2.0768,2.1036,2.106,2.1221,2.1494,2.159,2.1639,2.1721,2.1078,2.0458,2.0768,2.1226,2.1606,2.5777,2.5654,2.5356,2.4811,2.414,2.4123,2.4269,2.4498,2.4706,2.462,2.4326,2.407,2.3845,2.3607,2.3347,2.3248,2.3217,2.3098,2.338,2.3929,2.4279,2.4632,2.5009,2.5375,2.5737,2.6111,2.61,2.638,2.6916,2.7194,2.7547,2.7996,2.8517,2.8771,2.8748,2.8941,2.9589,3.0765,3.0663,3.033,2.9829,2.9804,2.9522,2.8954,2.8831,2.8598,2.8203,2.7495,2.6748,2.5992,2.4869,2.3893,2.3071,2.2289,2.1413,0.0,0.0,0.0,0.0,0.0,0.0,0.0,0.0,0.0,0.0,0.0,1.8852,0.0,0.0,0.0,2.1002,2.1279,2.1581,2.1925,2.2327,2.276,2.3187,2.3306,2.3507,2.3904,2.3584,2.3392,2.3508,2.3375,2.3431,2.3704,2.3065,2.2521,2.2486,2.2475,2.2557,2.272,2.2654,2.2588,2.2632,2.263,2.2458,2.2058,2.1939,2.1873,2.1594,2.1551,2.1612,2.1788,2.1946,2.2132,2.2438,2.2619,2.2824,2.2994,2.2629,2.219,2.2159,2.2478,2.2756,2.6461,2.6403,2.6052,2.6016,2.6165,2.578,2.547,2.5212,2.5121,2.496,2.4749,2.4604,2.4629,2.478,2.4565,2.4572,2.4719,2.4707,2.4919,2.5351,2.564,2.5809,2.5877,2.6164,2.657,2.701,2.701,2.7345,2.7922,2.7955,2.8186,2.8604,2.9135,2.9684,3.0243,2.9907,3.0073,3.0876,3.1327,3.1195,3.0508,3.0413,3.004,2.9313,2.9037,2.8764,2.851,2.7906,2.7183,2.6328,2.5613,2.4836,2.3995,2.3269,2.2643,0.0,2.1676,0.0,0.0,0.0,0.0,0.0,0.0,0.0,0.0,1.9653,2.0083,2.0849,2.154,2.1971,2.2024,2.2509,2.2939,2.3198,2.3386,2.3748,2.4345,2.4449,2.4513,2.4674,2.4709,2.4677,2.4561,2.4539,2.4626,2.4849,2.4868,2.465,2.4227,2.3989,2.3866,2.3944,2.3757,2.3696,2.3612,2.3814,2.3764,2.3251,2.3151,2.2993,2.2552,2.2493,2.2503,2.2531,2.2775,2.3031,2.3234,2.3513,2.3796,2.4139,2.4162,2.3955,2.358,2.3582,2.3738,2.8958,2.8747,2.8684,2.8663,2.8663,2.8456,2.7408,2.5936,2.6325,2.6391,2.6244,2.639,2.6407,2.6282,2.6015,2.5923,2.5951,2.5771,2.5868,2.6097,2.6541,2.6938,2.7337,2.7745,2.8194,2.8622,2.8634,2.8817,2.916,2.9387,2.9534,2.9614,3.0111,3.0517,0.0,0.0,0.0,0.0,3.2022,3.2101,3.1524,3.1041,3.0644,3.0295,2.9655,0.0,2.8518,2.8219,2.7669,2.6805,2.5945,0.0,0.0,0.0,0.0,0.0,0.0,0.0,0.0,0.0,0.0,0.0,2.2353,2.1802,2.0887,2.155,2.2342,2.3022,2.3219,2.3453,2.379,2.3893,2.4129,2.4487,2.4573,2.4733,2.5071,2.5235,2.5452,2.5693,2.5828,2.5852,2.5825,2.5844,2.5978,2.625,2.6386,2.6385,2.6342,2.5442,2.5013,2.5223,2.5186,2.502,2.4603,2.4586,2.444,2.3944,2.4002,2.4126,2.4016,2.4215,2.4394,2.4386,2.4526,2.4539,2.4597,2.4671,2.4883,2.5473,2.5579,2.5237,2.4109,2.4231,2.4567,2.9742,0.0,2.9461,2.9385,0.0,0.0,2.8532,2.7587,2.7632,2.7467,2.7151,2.7173,2.7071,2.6849,2.6614,2.6663,2.6978,2.6898,2.7083,2.7502,2.7874,2.8143,2.8396,2.8786,2.9128,2.9485,2.9508,2.9623,2.9852,3.0114,3.025,3.025,3.0623,3.0916,3.1174,3.1739,3.2119,3.2279,3.2735,3.2784,3.236,3.2046,3.1665,3.1205,0.0,0.0,0.0,0.0,0.0,0.0,0.0,0.0,0.0,0.0,0.0,2.4562,2.4445,2.4203,2.3869,2.3735,2.3776,2.3968,2.4054,2.3614,2.2472,2.3069,2.3627,2.3961,2.4174,2.4368,2.4576,2.4604,2.4729,2.5069,2.5294,2.5551,2.5812,2.6101,2.6326,2.6447,2.6579,2.6609,2.669,2.6683,2.6812,2.7034,2.7102,2.7132,2.7113,2.6552,2.6055,2.5926,2.5907,2.5814,2.5566,2.5386,2.5259,2.5017,2.4954,2.4899,2.4779,2.487,2.4994,2.5023,2.5248,2.5481,2.551,2.5722,2.605,2.6339,2.6446,2.6264,2.5514,2.5615,2.5841,3.0164,3.0131,2.9894,2.9796,2.9775,2.954,2.9379,2.9259,0.0,0.0,0.0,2.7822,2.7644,2.7422,2.7263,2.7502,2.7997,2.803,2.8318,2.8829,2.9071,2.9197,2.9254,2.9462,2.9759,3.0079,3.0091,3.0239,3.0548,3.0776,3.0902,3.0936,3.1186,3.1479,3.1815,3.2428,3.3012,3.3465,3.3478,3.3339,3.3129,3.3014,3.2641,3.2011,3.1653,3.1256,3.0798,3.0232,2.9664,2.9133,2.8486,2.793,2.7492,2.7216,2.6783,2.6156,2.6066,2.5881,2.5518,2.5322,2.5201,2.5166,2.5342,2.5093,2.4187,2.4421,2.4646,2.4694,2.5077,2.5306,2.5316,2.5383,2.5529,2.5736,2.6105,2.6444,2.6649,2.6967,2.7196,2.718,2.7217,2.7286,2.7381,2.7412,2.7422,2.7542,2.7582,2.753,2.7458,2.716,2.6717,2.6282,2.6263,2.6333,2.6306,2.6222,2.6097,2.6094,2.5951,2.5766,2.5532,2.5495,2.5537,2.5683,2.6005,2.6323,2.6394,2.6728,2.7091,2.7158,2.7187,2.7207,2.7274,2.7274,2.7182,3.1576,3.1434,3.14,3.14,3.1334,3.0904,3.0481,2.9997,2.9305,2.8979,2.8924,2.9116,2.9192,2.9147,2.9113,2.9157,2.9236,2.9236,2.9303,0.0,2.9451,2.9565,2.9794,2.9817,3.0182,3.0812,3.0846,3.1181,3.1785,3.1867,3.2019,3.223,3.2498,3.295,3.3594,3.3948,3.4432,3.5054,3.4152,3.375,3.3925,3.3467,3.3093,3.2731,3.21,3.1432,3.0819,3.0504,2.9935,2.9155,2.8821,2.8377,2.7712,2.7469,2.7193,2.6872,2.6693,2.6603,2.6662,2.6475,2.6348,2.6319,2.6655,2.6569,2.5841,2.5793,2.5939,2.6186,2.6574,2.6873,2.6903,2.7177,2.7367,2.7472,2.7578,2.7643,2.7653,2.7819,2.7912,2.7922,2.8058,2.8112,2.8055,2.8084,2.8077,2.8138,2.8077,2.805,2.7762,2.7341,2.6917,2.6655,2.682,2.6919,2.6812,2.6915,2.6939,2.6792,2.7014,2.7091,2.6994,2.7162,2.7328,2.7488,2.7495,2.761,2.7649,2.7762,2.7938,2.8128,2.8187,2.8273,2.8482,2.8551,2.8319,3.1871,3.1705,3.1705,3.1705,3.1661,3.1196,3.0781,3.0408,3.0216,2.9886,2.9568,2.9658,2.9634,2.9508,2.9508,2.9588,2.9714,2.9714,2.9919,3.0294,3.0294,3.0523,3.089,3.0913,3.1145,3.1586,3.1586,3.1843,3.23,3.2441,3.2606,3.2747,3.3073,3.3503,3.3987,3.4373,3.4848,3.535,3.4588,3.4371,3.4733,3.4194,3.3716,3.3362,3.2989,3.2512,3.1851,3.1486,3.097,3.0309,2.9804,2.9372,2.8914,2.8543,2.8215,2.8,2.7748,2.7676,2.7865,2.8079,2.8177,2.8154,2.8327,2.8309,2.7968,2.7408,2.7122,2.7255,2.7447,2.7582,2.7582,2.7764,2.7885,2.7885,2.8096,2.8237,2.8262,2.8491,2.8558,2.8466,2.8493,2.8461,2.8318,2.8301,2.8301,2.8301,2.8301,2.8184,2.7924,2.7664,2.7418,2.7206,2.7188,2.7342,2.7529,2.7584,2.7665,2.7746,2.7757,2.7774,2.7783,2.7931,2.7963,2.802,2.814,2.8238,2.8277,2.8448,2.8597,2.8687,2.8776,2.8865,2.8955,2.8984,2.8817,3.2323,3.2133,3.2066,3.2022,3.192,3.1584,3.1279,3.1052,3.1182,3.0927,3.0433,3.0341,3.0215,3.0041,3.0041,3.0145,3.0318,3.0318,3.0651,3.1157,3.1192,3.1422,3.1815,3.1861,3.2038,3.2333,3.2369,3.257,3.2913,3.3149,3.3315,3.3432,3.3843,3.4181,3.4472,3.4928,3.536,3.5708,3.5294,3.5201,3.5448,3.5025,3.4586,3.4204,3.411,3.3775,3.3158,3.2698,3.2232,3.1763,3.1085,3.0618,3.0341,2.989,2.953,2.9296,2.9108,2.9001,2.9056,2.9406,2.9596,2.9519,2.9565,2.9618,2.9579,2.8988,2.8441,2.8314,2.8369,2.8431,2.8461,2.8564,2.8543,2.8564,2.8752,2.8956,2.8945,2.9114,2.9158,2.894,2.8824,2.8701,2.8488,2.8398,2.8381,2.8318,2.8301,2.8211,2.804,2.796,2.7865,2.7909,2.7651,2.7666,2.8289,2.8295,2.8303,2.857,2.84,2.8283,2.8262,2.825,2.8229,2.8298,2.8457,2.8576,2.8606,2.8785,2.8925,2.8955,2.8955,2.9005,2.9124,2.9222,2.9124,3.3633,3.3415,3.3172,3.3,3.2778,3.2685,3.251,3.2265,3.2089,3.1983,3.1854,3.1711,3.1593,3.1604,3.1546,3.1523,3.1558,3.1616,3.1663,3.1709,3.172,3.1851,3.211,3.2122,3.2474,3.3111,3.3182,3.3502,3.4135,3.4207,3.4473,3.4981,3.5269,3.5508,3.5818,3.624,3.6637,3.6918,3.6609,3.6278,3.6048,3.5979,3.5822,3.5638,3.5352,3.5019,3.4462,3.4053,3.3587,3.3115,3.2546,3.2078,3.1652,3.1331,3.1057,3.0783,3.0746,3.0563,3.0125,3.012,3.0011,2.9589,2.9924,3.0112,3.0123,3.0368,3.0174,2.9639,2.9713,2.9798,2.9906,3.0208,3.031,3.0263,3.0218,3.0224,3.0099,2.9812,2.9554,2.9538,2.9221,2.8956,2.8727,2.8648,2.8541,2.8318,2.8301,2.8291,2.8211,2.8067,2.8215,2.861,2.8502,2.8236,2.8459,2.8718,2.8815,2.8916,2.8925,2.8826,2.8806,2.8836,2.8895,2.8716,2.8865,2.8895,2.8895,2.8984,2.9023,2.9064,2.9094,2.9124,2.939,2.9635,2.9624,3.3837,3.3584,3.34,3.3238,3.3133,3.2957,3.284,3.2712,3.2794,3.2792,3.2851,3.3046,3.2643,3.1754,3.1789,3.1789,3.1789,3.1789,3.2046,3.2408,3.2467,3.2738,3.3236,3.3284,3.3535,3.393,3.3942,3.4195,3.4593,3.4787,3.4981,3.5223,3.562,3.5896,3.6063,3.6617,3.6992,3.7095,3.7272,3.729,3.708,3.6462,3.6,3.5793,3.5541,3.5264,3.4916,3.4477,3.3998,3.3502,3.3143,3.2758,3.2241,3.1849,3.1598,3.1479,3.145,3.1328,3.1107,3.1387,3.149,3.1287,3.1427,3.1523,3.1523,3.1709,3.1621,3.1296,3.0805,3.0514,3.0525,3.0695,3.0801,3.0776,3.0724,3.0583,3.0391,3.0198,2.9973,2.9659,2.9485,2.9264,2.8983,2.8797,2.8594,2.8354,2.8291,2.8301,2.8301,2.8211,2.8408,2.8891,2.8879,2.8861,2.8981,2.8974,2.9025,2.9014,2.8984,2.8984,2.8984,2.8984,2.8984,2.8984,2.8984,2.8984,2.8984,2.9014,2.9044,2.9231,2.9479,2.9597,2.9715,3.0032,3.0114,3.4371,3.4138,3.3823,3.3717,3.3681,3.3516,3.3422,3.3422,3.3552,3.3597,3.3644,3.3948,3.3469,3.2466,3.2408,3.242,3.2432,3.242,3.2702,3.3197,3.3233,3.3565,3.4139,3.4187,3.4298,3.4482,3.4494,3.4604,3.4799,3.5078,3.5223,3.538,3.5764,3.6039,3.6157,3.677,3.7108,3.7168,3.7621,3.79,3.7769,3.705,3.6504,3.6361,3.6116,3.5871,3.5645,3.52,3.4741,3.4277,3.3927,3.3528,3.3149,3.2672,3.2396,3.2323,3.228,3.2176,3.2052,3.2403,3.258,3.2519,3.2493,3.2493,3.2493,3.2493,3.2493,3.2384,3.1742,3.1281,3.1127,3.1127,3.1101,3.1023,3.0983,3.0817,3.0651,3.0573,3.0313,2.9895,2.9869,2.9659,2.929,2.8999,2.8727,2.8488,2.8434,2.8354,2.8301,2.832,2.8483,2.8935,2.9064,2.9212,2.9498,2.9351,2.9183,2.9094,2.9094,2.8984,2.8984,2.8984,2.8984,2.8984,2.8984,2.9073,2.9183,2.9183,2.9383,2.9736,3.008,3.0364,3.0516,3.0777,3.0933,3.575,3.5426,3.4921,3.4679,3.4715,3.4655,3.4679,3.4558,3.4423,3.4337,3.4288,3.4188,3.4065,3.391,3.3874,3.3981,3.3957,3.3873,3.3885,3.3981,3.4018,3.4151,3.4384,3.4384,3.4531,3.4726,3.475,3.4787,3.4835,3.5066,3.532,3.5596,3.5884,3.6122,3.6394,3.6851,3.7108,3.7155,3.7634,3.79,3.79,3.7821,3.7743,3.7671,3.7517,3.7188,3.6934,3.6539,3.6139,3.5868,3.5137,3.4703,3.463,3.4228,3.3811,3.3613,3.3573,3.3348,3.2924,3.2882,3.283,3.258,3.2569,3.2519,3.258,3.258,3.258,3.253,3.2443,3.2266,3.1975,3.1874,3.1783,3.1553,3.1322,3.1193,3.1127,3.0905,3.0661,3.0417,3.0313,3.0052,2.9617,2.93,2.9009,2.8781,2.8701,2.8594,2.8408,2.8318,2.8516,2.8807,2.9078,2.9307,2.9743,2.9656,2.9509,2.9459,2.9281,2.9073,2.9014,2.8984,2.9014,2.9044,2.9133,2.9252,2.942,2.9661,2.9958,3.0397,3.1033,3.1357,3.1277,3.1786,3.1913,3.5728,3.5332,3.4957,3.4799,3.4799,3.4799,3.4799,3.4787,3.4677,3.4653,3.4665,3.4567,3.4555,3.4543,3.4543,3.4383,3.4113,3.41,3.4174,3.4273,3.431,3.442,3.4628,3.4653,3.4714,3.4775,3.4799,3.4908,3.5078,3.532,3.5596,3.586,3.6109,3.6323,3.6452,3.6875,3.7108,3.7155,3.7634,3.79,3.79,3.79,3.79,3.79,3.7657,3.7459,3.7353,3.6875,3.6499,3.6275,3.5812,3.55,3.5271,3.4835,3.4359,3.4014,3.3952,3.3853,3.3679,3.3505,3.3381,3.3269,3.3119,3.3008,3.3019,3.3019,3.3019,3.2983,3.2994,3.2894,3.2606,3.2418,3.2179,3.1924,3.1772,3.1567,3.127,3.1101,3.0946,3.0687,3.0495,3.0183,2.9764,2.9501,2.9317,2.9026,2.8946,2.8824,2.8648,2.8578,2.8652,2.8885,2.9186,2.9578,3.0026,2.9926,2.9754,2.9734,2.9646,2.9616,2.9557,2.9516,2.9516,2.9488,2.9488,2.9587,2.9823,3.0334,3.0614,3.1154,3.1818,3.2064,3.1996,3.2356,3.2493,3.574,3.532,3.5054,3.4884,3.4799,3.4799,3.4799,3.4799,3.4799,3.4799,3.4799,3.4799,3.4799,3.4799,3.4799,3.464,3.4359,3.4334,3.4408,3.4543,3.4531,3.4628,3.4775,3.4799,3.4799,3.4799,3.4799,3.4945,3.5199,3.5476,3.574,3.6003,3.6288,3.6417,3.6488,3.6851,3.7108,3.7191,3.7634,3.79,3.79,3.79,3.79,3.7877,3.7703,3.7588,3.7505,3.7144,3.6805,3.6523,3.6252,3.5955,3.5584,3.5271,3.4823,3.4408,3.4334,3.4236,3.41,3.3927,3.3828,3.3828,3.3668,3.353,3.3442,3.3431,3.3381,3.3331,3.3281,3.3206,3.3056,3.2869,3.2606,3.2255,3.2153,3.1975,3.1527,3.145,3.1307,3.0972,3.0687,3.0349,2.9973,2.9869,2.9685,2.9307,2.9264,2.9142,2.8903,2.8844,2.8797,2.8901,2.9357,2.9693,3.004,3.0065,3.009,3.0088,2.9941,2.9941,2.997,2.9969,2.9969,2.9931,2.9961,3.0058,3.0368,3.0922,3.1417,3.1933,3.2374,3.2711,3.2721,3.2801,3.2869,3.5848,3.5548,3.532,3.503,3.4823,3.4799,3.4799,3.4799,3.4799,3.4799,3.4799,3.4799,3.4799,3.4799,3.4799,3.4775,3.4738,3.4702,3.4726,3.475,3.475,3.4775,3.4799,3.4799,3.4823,3.4823,3.4823,3.4981,3.5271,3.5524,3.5788,3.6039,3.6288,3.6417,3.6417,3.6851,3.7108,3.7201,3.7634,3.79,3.79,3.79,3.79,3.79,3.7877,3.7762,3.7528,3.7482,3.7201,3.6792,3.651,3.6157,3.5764,3.5584,3.5356,3.4896,3.4811,3.4567,3.4211,3.4149,3.4113,3.4075,3.4075,3.3927,3.3729,3.3679,3.3605,3.3442,3.3356,3.3306,3.3306,3.3256,3.3031,3.2606,3.2493,3.2342,3.2077,3.1964,3.1786,3.1296,3.0983,3.0687,3.0479,3.0375,3.0156,2.9816,2.9659,2.9527,2.9237,2.9168,2.8993,2.8949,2.9327,2.9824,3.006,3.0254,3.0383,3.045,3.0235,3.0108,3.0157,3.0167,3.0215,3.0196,3.0225,3.0322,3.1011,3.152,3.2059,3.2529,3.2941,3.3172,3.3193,3.3174,3.3252,3.5836,3.5572,3.5295,3.5054,3.4799,3.4799,3.4799,3.4799,3.4799,3.4799,3.4799,3.4799,3.4799,3.4799,3.4799,3.4799,3.4799,3.4799,3.4799,3.4799,3.4799,3.4799,3.4799,3.4799,3.4908,3.5054,3.5066,3.532,3.5692,3.5836,3.6003,3.6252,3.6334,3.6417,3.6428,3.6851,3.7108,3.7155,3.7634,3.79,3.79,3.79,3.79,3.79,3.79,3.7854,3.7772,3.7611,3.7413,3.7237,3.7028,3.664,3.6228,3.5979,3.5716,3.5392,3.5344,3.5223,3.4884,3.4677,3.4494,3.4359,3.4187,3.4075,3.3977,3.3977,3.3927,3.3828,3.3704,3.358,3.3555,3.3406,3.3156,3.2804,3.2779,3.2667,3.2392,3.2153,3.1848,3.1542,3.1245,3.0972,3.0776,3.0698,3.062,3.0412,3.0245,3.0026,2.9774,2.9554,2.9343,2.9133,2.9573,2.9951,3.0127,3.0363,3.0556,3.0684,3.0557,3.0372,3.0421,3.0441,3.046,3.047,3.0499,3.0839,3.1513,3.2022,3.2424,3.2905,3.3203,3.3328,3.3367,3.3386,3.3386,3.5848,3.5572,3.532,3.5054,3.4799,3.4799,3.4799,3.4799,3.4799,3.4799,3.4799,3.4799,3.4799,3.4799,3.4799,3.4799,3.4835,3.4896,3.4945,3.492,3.4835,3.4799,3.4823,3.492,3.5102,3.5295,3.5344,3.5572,3.5968,3.6015,3.6146,3.637,3.6417,3.6417,3.6452,3.6851,3.7108,3.7178,3.7611,3.79,3.7923,3.7979,3.8011,3.8024,3.8093,3.8139,3.8139,3.7897,3.7654,3.7505,3.7237,3.6945,3.6664,3.6405,3.6157,3.5955,3.5788,3.5608,3.5368,3.5175,3.4981,3.4738,3.4604,3.4408,3.4285,3.4211,3.4187,3.4075,3.3952,3.3828,3.3828,3.3729,3.3481,3.3231,3.3106,3.293,3.2681,3.2367,3.2153,3.1924,3.1706,3.141,3.1178,3.0983,3.0905,3.0827,3.0661,3.0531,3.0282,3.0062,2.9764,2.9603,2.9782,3.0054,3.019,3.0441,3.0725,3.0838,3.0918,3.0801,3.0762,3.0733,3.0772,3.0743,3.0743,3.1123,3.177,3.2,3.2379,3.2865,3.3377,3.3386,3.3386,3.3386,3.3386,3.5812,3.5536,3.5295,3.5042,3.4799,3.4799,3.4799,3.4799,3.4799,3.4799,3.4799,3.4823,3.4848,3.4848,3.4896,3.492,3.4908,3.5102,3.5223,3.5175,3.503,3.492,3.4945,3.5126,3.538,3.5596,3.562,3.5788,3.6051,3.6087,3.6133,3.637,3.6417,3.6417,3.6535,3.6875,3.7108,3.7237,3.7657,3.79,3.7923,3.8089,3.8177,3.819,3.8408,3.8534,3.8489,3.8294,3.7975,3.7562,3.7307,3.7144,3.7062,3.6862,3.6617,3.6428,3.6181,3.5955,3.5728,3.5608,3.5476,3.5199,3.5126,3.4993,3.458,3.4518,3.442,3.4236,3.4149,3.4125,3.41,3.4051,3.3927,3.3729,3.3431,3.3156,3.2967,3.2692,3.2505,3.2418,3.224,3.195,3.168,3.1424,3.1204,3.1008,3.0905,3.0801,3.075,3.0531,3.0308,3.0192,3.0134,3.0258,3.0429,3.0555,3.0837,3.1002,3.1083,3.1005,3.0918,3.0928,3.0928,3.0928,3.0967,3.1407,3.1819,3.2089,3.2513,3.3111,3.3367,3.3377,3.3386,3.3386,3.3386,3.5548,3.532,3.5223,3.5054,3.4799,3.4799,3.4799,3.4799,3.4799,3.4799,3.4823,3.5005,3.5078,3.5126,3.5295,3.5392,3.5404,3.5452,3.55,3.5464,3.5416,3.5404,3.5392,3.544,3.5644,3.586,3.5908,3.6027,3.6275,3.6288,3.6323,3.6394,3.6417,3.6463,3.6651,3.6932,3.7178,3.74,3.7703,3.79,3.7946,3.8112,3.82,3.8236,3.8476,3.8615,3.8615,3.8534,3.8285,3.7831,3.7541,3.7377,3.7377,3.7132,3.6968,3.6888,3.6664,3.6428,3.6204,3.6003,3.5788,3.5524,3.55,3.5344,3.5017,3.5005,3.486,3.4665,3.4469,3.4347,3.4298,3.4187,3.4075,3.3977,3.363,3.3306,3.3181,3.2955,3.2804,3.2779,3.253,3.2342,3.2215,3.1961,3.1757,3.1604,3.1347,3.1116,3.1101,3.0879,3.0609,3.0427,3.0365,3.0529,3.0687,3.076,3.0938,3.1154,3.1189,3.1112,3.1005,3.0928,3.0928,3.0928,3.0928,3.1241,3.176,3.2187,3.2764,3.324,3.3367,3.3386,3.3386,3.3386,3.3386,3.5344,3.5175,3.5078,3.4957,3.4799,3.4799,3.4799,3.4799,3.4799,3.4799,3.4848,3.509,3.5175,3.5223,3.5476,3.5596,3.562,3.5716,3.5764,3.5788,3.5871,3.5871,3.5788,3.5764,3.5908,3.6133,3.6157,3.6264,3.637,3.6417,3.6417,3.6417,3.6417,3.6523,3.6686,3.6968,3.7237,3.7482,3.7749,3.7923,3.8034,3.8249,3.8417,3.8517,3.8756,3.8859,3.8769,3.8746,3.8566,3.8217,3.7965,3.7792,3.7769,3.7446,3.7261,3.7261,3.7015,3.6815,3.6687,3.6441,3.6204,3.5967,3.586,3.5644,3.544,3.5368,3.5271,3.4969,3.4823,3.4702,3.4555,3.4371,3.4261,3.4187,3.3866,3.3605,3.3481,3.3367,3.3181,3.3056,3.2843,3.2692,3.2656,3.2392,3.2266,3.2139,3.1823,3.1644,3.1516,3.1193,3.092,3.0765,3.0637,3.0714,3.0934,3.1062,3.1322,3.1517,3.1267,3.1189,3.1054,3.0947,3.0928,3.0928,3.0928,3.1133,3.1758,3.2296,3.2646,3.3047,3.323,3.3386,3.3386,3.3386,3.3386,3.5151,3.5114,3.4908,3.4799,3.4799,3.4799,3.4799,3.4799,3.4799,3.4799,3.4872,3.5114,3.5284,3.5271,3.5632,3.5716,3.5728,3.5955,3.6039,3.6098,3.6204,3.6216,3.6051,3.6027,3.6169,3.6346,3.6394,3.6394,3.6417,3.6417,3.6417,3.6417,3.6441,3.6546,3.6792,3.7038,3.7284,3.7564,3.7772,3.8001,3.8181,3.8408,3.8634,3.8832,3.9091,3.9114,3.8989,3.8944,3.8854,3.8679,3.8395,3.8236,3.8167,3.7792,3.7631,3.7539,3.7377,3.7201,3.7108,3.6862,3.6675,3.6488,3.6241,3.5968,3.5788,3.568,3.5548,3.5247,3.5259,3.5078,3.486,3.4616,3.4494,3.442,3.4261,3.4075,3.3853,3.3754,3.363,3.3381,3.3117,3.3006,3.288,3.2718,3.2555,3.2505,3.2215,3.2052,3.1874,3.1629,3.1373,3.1193,3.1028,3.0906,3.1133,3.1367,3.1676,3.1899,3.1467,3.1247,3.1102,3.0995,3.0947,3.0928,3.0928,3.1299,3.1964,3.2394,3.2648,3.3008,3.3328,3.3386,3.3386,3.3386,3.3386,3.4872,3.4872,3.4835,3.4799,3.4799,3.4799,3.4799,3.4799,3.4799,3.4799,3.4896,3.5308,3.55,3.5524,3.593,3.6216,3.6168,3.6252,3.631,3.6323,3.637,3.6394,3.6299,3.6299,3.6346,3.6417,3.6417,3.6417,3.6417,3.6417,3.6417,3.6417,3.657,3.6769,3.7015,3.7237,3.7551,3.7772,3.7877,3.8011,3.8236,3.8498,3.8724,3.8944,3.918,3.9261,3.9247,3.9225,3.9194,3.906,3.8769,3.8544,3.8476,3.8398,3.8239,3.8044,3.7848,3.7641,3.7423,3.7201,3.7015,3.6922,3.6687,3.6463,3.6252,3.6027,3.5812,3.5572,3.5524,3.5368,3.5102,3.4872,3.4726,3.4653,3.464,3.4518,3.431,3.4088,3.3902,3.3679,3.3555,3.3442,3.3242,3.3006,3.2855,3.2793,3.2631,3.2443,3.224,3.2037,3.1783,3.1553,3.132,3.1188,3.1427,3.1655,3.1905,3.2096,3.1736,3.1325,3.1189,3.1054,3.1005,3.0947,3.0928,3.1436,3.2042,3.2257,3.2462,3.2939,3.3386,3.3386,3.3386,3.3386,3.3292,3.4799,3.4799,3.4799,3.4799,3.4799,3.4799,3.4799,3.4799,3.4799,3.4799,3.4896,3.5344,3.5609,3.5644,3.6133,3.6394,3.6417,3.6417,3.6405,3.6394,3.6417,3.6417,3.6417,3.6417,3.6417,3.6417,3.6417,3.6417,3.6417,3.6417,3.6417,3.6417,3.6604,3.6839,3.7121,3.7366,3.7634,3.7864,3.7988,3.8135,3.8385,3.8621,3.8868,3.9056,3.9238,3.9305,3.9305,3.9305,3.9305,3.9238,3.906,3.8859,3.8746,3.8634,3.8521,3.8408,3.8294,3.8099,3.7848,3.7595,3.7446,3.7284,3.7026,3.6862,3.6711,3.6488,3.6252,3.6014,3.5836,3.5644,3.5247,3.5102,3.4957,3.4799,3.4799,3.475,3.4592,3.4371,3.4138,3.394,3.3878,3.3729,3.353,3.3306,3.3181,3.3131,3.288,3.2681,3.2606,3.2389,3.2088,3.1848,3.1578,3.1525,3.1753,3.1942,3.2124,3.2179,3.2064,3.1643,3.1325,3.1189,3.1054,3.1005,3.0947,3.1407,3.1925,3.2101,3.2452,3.3037,3.3386,3.3386,3.3386,3.3386,3.3238,3.4799,3.4799,3.4799,3.4799,3.4799,3.4799,3.4799,3.4799,3.4799,3.4799,3.4872,3.532,3.5524,3.5692,3.6086,3.631,3.6381,3.6417,3.6417,3.6417,3.6417,3.6417,3.6417,3.6417,3.6417,3.6417,3.6417,3.6417,3.6417,3.6417,3.6428,3.6476,3.6675,3.6932,3.7191,3.7436,3.7726,3.7965,3.8099,3.8349,3.8598,3.8787,3.8989,3.9216,3.9283,3.9305,3.9305,3.9305,3.9305,3.9305,3.9305,3.918,3.8989,3.8823,3.8656,3.8656,3.8611,3.8476,3.8258,3.8089,3.7884,3.7621,3.7377,3.7201,3.7108,3.6898,3.664,3.6381,3.6133,3.5812,3.5368,3.5295,3.5151,3.4945,3.4872,3.486,3.4775,3.458,3.4396,3.4187,3.4113,3.4014,3.3878,3.3704,3.3555,3.3406,3.3156,3.2967,3.288,3.2729,3.2429,3.2128,3.1848,3.1852,3.2094,3.2149,3.2309,3.2465,3.2363,3.1979,3.1556,3.1334,3.116,3.0976,3.1064,3.1475,3.1837,3.211,3.2539,3.3142,3.3386,3.3386,3.3386,3.3355,3.3143,3.4799,3.4799,3.4799,3.4799,3.4799,3.4799,3.4799,3.4799,3.4799,3.4799,3.4848,3.5138,3.5404,3.5644,3.5908,3.6181,3.637,3.6417,3.6417,3.6417,3.6417,3.6417,3.6417,3.6417,3.6417,3.6417,3.6417,3.6417,3.6417,3.6417,3.6476,3.6675,3.6886,3.7132,3.74,3.769,3.792,3.8112,3.8223,3.8472,3.8765,3.8922,3.9056,3.9283,3.9305,3.9305,3.9305,3.9305,3.9305,3.9305,3.9305,3.9261,3.9216,3.9172,3.9047,3.8899,3.8854,3.8756,3.8566,3.8498,3.834,3.8112,3.7848,3.7618,3.7446,3.7191,3.6922,3.6617,3.6275,3.5968,3.5896,3.5644,3.5428,3.5223,3.5102,3.5017,3.4884,3.4738,3.4616,3.4409,3.4335,3.4273,3.4113,3.3977,3.3828,3.3655,3.3456,3.3256,3.3106,3.2955,3.2718,3.2443,3.2153,3.2264,3.2431,3.2424,3.2489,3.273,3.2706,3.2371,3.194,3.1527,3.1276,3.1112,3.1074,3.1318,3.168,3.2101,3.2607,3.3213,3.3308,3.3386,3.3355,3.327,3.2921,3.4799,3.4799,3.4799,3.4799,3.4799,3.4799,3.4799,3.4799,3.4799,3.4799,3.4872,3.5078,3.5344,3.562,3.586,3.6146,3.6346,3.6417,3.6417,3.6417,3.6417,3.6417,3.6417,3.6417,3.6417,3.6417,3.6417,3.6417,3.6417,3.6417,3.6523,3.6722,3.6956,3.7225,3.7515,3.7874,3.8089,3.8223,3.8449,3.8661,3.8908,3.9033,3.9203,3.9261,3.9305,3.9305,3.9305,3.9305,3.9305,3.9305,3.9305,3.9305,3.9305,3.9283,3.9247,3.9109,3.9087,3.9011,3.88,3.8756,3.8656,3.843,3.8177,3.8021,3.7815,3.7539,3.708,3.6756,3.6581,3.6252,3.6003,3.5884,3.5692,3.5452,3.5295,3.5138,3.5017,3.4896,3.475,3.4592,3.458,3.4482,3.4322,3.4187,3.4039,3.3891,3.3729,3.3555,3.3356,3.3156,3.2955,3.2631,3.2361,3.2376,3.2531,3.2588,3.2772,3.304,3.2991,3.2667,3.2285,3.1864,3.1498,3.1228,3.127,3.127,3.1758,3.2218,3.2715,3.3184,3.3289,3.3386,3.3292,3.3143,3.2762,3.4799,3.4799,3.4799,3.4799,3.4799,3.4799,3.4799,3.4799,3.4799,3.4799,3.4823,3.503,3.5247,3.5548,3.5836,3.6146,3.6394,3.6417,3.6417,3.6417,3.6417,3.6417,3.6417,3.6417,3.6417,3.6417,3.6417,3.6417,3.6405,3.6476,3.6581,3.6815,3.7062,3.7307,3.7657,3.7998,3.8167,3.8404,3.8661,3.8908,3.9033,3.918,3.9305,3.9305,3.9305,3.9305,3.9305,3.9305,3.9305,3.9305,3.9305,3.9305,3.9305,3.9305,3.9251,3.9169,3.9224,3.9167,3.9029,3.8773,3.8622,3.8399,3.8144,3.7956,3.7669,3.7202,3.6882,3.6613,3.6495,3.6332,3.6027,3.6023,3.5943,3.5716,3.55,3.5295,3.5175,3.5017,3.4872,3.4799,3.4823,3.4702,3.4518,3.4469,3.4347,3.4113,3.3965,3.3729,3.353,3.3331,3.3106,3.2768,3.2552,3.2483,3.2538,3.2663,3.2983,3.344,3.3282,3.2934,3.2563,3.219,3.1816,3.145,3.1219,3.1289,3.1819,3.2286,3.2676,3.3037,3.325,3.3386,3.3323,3.3048,3.2645,3.4799,3.4799,3.4799,3.4799,3.4799,3.4799,3.4799,3.4799,3.4799,3.4799,3.4799,3.4848,3.5017,3.5344,3.5788,3.6146,3.6346,3.6417,3.6417,3.6417,3.6417,3.6417,3.6417,3.6417,3.6417,3.6417,3.6417,3.6417,3.6452,3.6581,3.6792,3.7026,3.7284,3.7575,3.7841,3.8135,3.8304,3.8566,3.881,3.9033,3.9216,3.9283,3.9305,3.9305,3.9305,3.9305,3.9305,3.9305,3.9305,3.9305,3.9305,3.9305,3.9305,3.9305,3.9007,3.8835,3.893,3.9256,3.9035,3.8653,3.8344,3.8088,3.7688,3.718,3.6911,3.6554,3.6198,3.5963,3.597,3.5976,3.5905,3.6128,3.6104,3.6002,3.5799,3.5548,3.538,3.5151,3.4993,3.4896,3.4848,3.4823,3.4702,3.4677,3.4665,3.4396,3.4162,3.3927,3.3679,3.3431,3.3181,3.2869,3.2631,3.2568,3.2786,3.2856,3.3187,3.3731,3.3505,3.32,3.283,3.2459,3.2133,3.1787,3.145,3.1446,3.2016,3.2416,3.2667,3.2978,3.3289,3.3386,3.3386,3.2985,3.2517,3.4799,3.4799,3.4799,3.4799,3.4799,3.4799,3.4799,3.4799,3.4799,3.4799,3.4799,3.4799,3.5017,3.544,3.5836,3.6146,3.637,3.6417,3.6417,3.6417,3.6417,3.6417,3.6417,3.6417,3.6417,3.6417,3.6441,3.6499,3.657,3.6698,3.6886,3.7284,3.7446,3.77,3.8047,3.8294,3.8544,3.8778,3.9002,3.9167,3.9283,3.9305,3.9305,3.9305,3.9305,3.9305,3.9305,3.9305,3.9305,3.9305,3.9305,3.9115,3.8876,3.8762,3.8545,3.7995,3.8103,3.8239,3.8212,3.8008,3.7863,3.7722,3.7365,3.704,3.6571,3.6271,3.5978,3.5814,3.5683,3.5586,3.5532,3.573,3.5782,3.5781,3.5838,3.5821,3.5559,3.5295,3.5126,3.5005,3.4908,3.4848,3.4823,3.4775,3.4677,3.4482,3.4273,3.4064,3.3754,3.3456,3.3206,3.293,3.2752,3.2611,3.2936,3.3184,3.3372,3.3763,3.3723,3.3399,3.3097,3.2755,3.2373,3.1989,3.1614,3.18,3.2284,3.2447,3.254,3.2939,3.3377,3.3386,3.3355,3.2858,3.2409,3.4799,3.4799,3.4799,3.4799,3.4799,3.4799,3.4799,3.4799,3.4799,3.4799,3.4799,3.4823,3.5102,3.5548,3.5812,3.6074,3.6394,3.6417,3.6417,3.6417,3.6417,3.6417,3.6417,3.6417,3.6417,3.6417,3.6499,3.6617,3.6781,3.6922,3.7168,3.7482,3.7588,3.7815,3.8145,3.8453,3.8701,3.9002,3.918,3.9283,3.9305,3.9305,3.9305,3.9305,3.9305,3.9305,3.9305,3.9305,3.9305,3.9047,3.9086,3.8823,3.8374,3.8337,3.8121,3.7671,3.7603,3.748,3.739,3.7245,3.727,3.7172,3.6897,3.6442,3.6207,3.6156,3.5985,3.5457,3.5368,3.5177,3.5086,3.5254,3.5311,3.5447,3.5606,3.5724,3.5782,3.5521,3.5283,3.5126,3.5005,3.4896,3.4848,3.4799,3.4702,3.4531,3.436,3.4175,3.3841,3.3505,3.3281,3.3031,3.2847,3.2841,3.3257,3.3528,3.3732,3.3826,3.3789,3.3625,3.3353,3.2983,3.2612,3.2201,3.1816,3.2026,3.2445,3.2411,3.2433,3.2969,3.3386,3.3386,3.3228,3.274,3.2239,3.4799,3.4799,3.4799,3.4799,3.4799,3.4799,3.4799,3.4799,3.4799,3.4799,3.4799,3.4823,3.5102,3.5524,3.5692,3.5943,3.6417,3.6417,3.6417,3.6417,3.6417,3.6417,3.6417,3.6417,3.6417,3.6452,3.6557,3.6792,3.7062,3.7237,3.739,3.7528,3.7772,3.7988,3.8272,3.8566,3.8881,3.9136,3.9283,3.9305,3.9305,3.9305,3.9305,3.9305,3.9305,3.9305,3.9319,3.9295,3.9135,3.87,3.87,3.8458,3.8022,3.8018,3.7779,3.7359,3.7194,3.7016,3.6796,3.673,3.6687,3.6469,3.6142,3.5796,3.5664,3.5201,3.4948,3.4987,3.4929,3.4817,3.4806,3.4879,3.4928,3.4994,3.5171,3.5419,3.5575,3.5743,3.5508,3.5283,3.5151,3.5078,3.4945,3.492,3.4823,3.4677,3.4433,3.4249,3.3915,3.358,3.3406,3.3206,3.2992,3.3104,3.366,3.3843,3.3812,3.4004,3.4106,3.3879,3.3636,3.3239,3.2812,3.2555,3.2252,3.24,3.2495,3.2483,3.2604,3.3107,3.3386,3.3323,3.3102,3.2699,3.2157,3.4799,3.4799,3.4799,3.4799,3.4799,3.4799,3.4799,3.4799,3.4799,3.4799,3.4799,3.4823,3.5102,3.55,3.5644,3.5895,3.6334,3.6417,3.6417,3.6417,3.6417,3.6417,3.6417,3.6441,3.6452,3.6557,3.6698,3.6968,3.733,3.7482,3.7611,3.7749,3.7988,3.8217,3.8453,3.8769,3.9083,3.9194,3.9305,3.9305,3.9305,3.9305,3.9305,3.9305,3.9496,3.9532,3.9521,3.9297,3.9059,3.88,3.8534,3.8061,3.7621,3.7641,3.7385,3.6928,3.6846,3.6693,3.6521,3.6452,3.6421,3.6245,3.5859,3.5541,3.544,3.5147,3.4934,3.482,3.4586,3.4477,3.4375,3.4441,3.4502,3.4527,3.4718,3.5044,3.5303,3.5497,3.5645,3.5399,3.5367,3.5344,3.5199,3.5078,3.4945,3.4799,3.4567,3.4298,3.399,3.3704,3.3505,3.3331,3.3106,3.337,3.3892,3.3932,3.3869,3.4137,3.4423,3.4142,3.3861,3.342,3.3022,3.2784,3.2619,3.2672,3.2633,3.2564,3.2786,3.3217,3.3304,3.3197,3.2921,3.2603,3.2125,3.4799,3.4799,3.4799,3.4799,3.4799,3.4799,3.4799,3.4799,3.4799,3.4799,3.4799,3.4896,3.5151,3.5524,3.5716,3.5943,3.6323,3.6417,3.6417,3.6417,3.6417,3.6417,3.6441,3.6476,3.6593,3.6722,3.6922,3.7191,3.7459,3.7588,3.7772,3.7988,3.8217,3.843,3.8611,3.9051,3.9305,3.9305,3.9305,3.9363,3.9407,3.943,3.9504,3.9472,3.9525,3.9431,3.931,3.9039,3.8634,3.84,3.8131,3.7702,3.7383,3.7112,3.6958,3.6742,3.6589,3.6589,3.6569,3.6431,3.6325,3.6141,3.5993,3.5723,3.5501,3.5297,3.5127,3.49,3.4562,3.4256,3.4186,3.42,3.4177,3.4192,3.4369,3.4677,3.4962,3.5184,3.5435,3.5499,3.5542,3.5608,3.5392,3.5223,3.5017,3.4848,3.4555,3.4371,3.42,3.3891,3.3618,3.3431,3.3231,3.3635,3.4109,3.4072,3.4109,3.4488,3.4646,3.4367,3.403,3.3618,3.3289,3.3051,3.2921,3.2883,3.2869,3.2915,3.3067,3.3315,3.3306,3.3228,3.2762,3.2453,3.2093,3.4799,3.4799,3.4799,3.4799,3.4799,3.4799,3.4799,3.4799,3.4799,3.4799,3.4823,3.5054,3.532,3.562,3.5812,3.6122,3.6346,3.6417,3.6417,3.6417,3.6417,3.6417,3.6476,3.6581,3.6722,3.6815,3.7085,3.7377,3.7551,3.7782,3.7988,3.8217,3.843,3.8634,3.8634,3.906,3.9283,3.9305,3.9305,3.9487,3.9598,3.9642,3.9747,3.9609,3.9434,3.9297,3.9015,3.863,3.8207,3.7847,3.7713,3.7356,3.6958,3.7004,3.6979,3.6943,3.6934,3.6934,3.6934,3.6595,3.6391,3.6192,3.6112,3.5932,3.5703,3.5501,3.5311,3.5093,3.4839,3.4528,3.4311,3.4072,3.3989,3.3973,3.4192,3.4382,3.467,3.4826,3.5056,3.553,3.58,3.5871,3.5608,3.5368,3.509,3.4848,3.4555,3.4384,3.4298,3.4126,3.3841,3.358,3.3404,3.3813,3.4204,3.4252,3.4395,3.4779,3.4869,3.459,3.4311,3.4002,3.3664,3.3335,3.3147,3.3078,3.3193,3.3316,3.3431,3.3529,3.341,3.3228,3.2731,3.2326,3.2029,3.4799,3.4799,3.4799,3.4799,3.4799,3.4799,3.4799,3.4799,3.4799,3.4799,3.4848,3.5078,3.5356,3.562,3.5884,3.6169,3.637,3.6417,3.6417,3.6417,3.6417,3.6487,3.6581,3.6722,3.6886,3.7191,3.7459,3.7634,3.7785,3.7965,3.8089,3.8281,3.8643,3.889,3.906,3.9261,3.9305,3.9349,3.9452,3.962,3.9686,3.9799,3.9751,3.95,3.9316,3.9047,3.87,3.8219,3.782,3.7562,3.7466,3.7108,3.6884,3.6978,3.6978,3.6978,3.6978,3.6978,3.6993,3.685,3.6713,3.651,3.6266,3.6106,3.5938,3.5595,3.5419,3.5256,3.5003,3.4756,3.4611,3.4256,3.4072,3.3988,3.4114,3.4241,3.4426,3.448,3.4691,3.538,3.5818,3.591,3.5773,3.5596,3.5368,3.509,3.4823,3.4555,3.4409,3.431,3.4126,3.3792,3.3696,3.4051,3.4308,3.4378,3.4604,3.5008,3.4997,3.4785,3.4534,3.4283,3.3946,3.3579,3.3419,3.3281,3.3392,3.3528,3.3662,3.3715,3.3524,3.3197,3.2708,3.2358,3.2093,3.4884,3.4799,3.4799,3.4799,3.4799,3.4799,3.4799,3.4799,3.4799,3.486,3.5005,3.5223,3.55,3.5764,3.6027,3.6181,3.6405,3.6417,3.6417,3.6417,3.6487,3.6581,3.6698,3.6922,3.7191,3.7482,3.7634,3.7772,3.7988,3.8122,3.8291,3.8526,3.8819,3.9078,3.9261,3.9283,3.9363,3.9452,3.962,3.9788,3.9859,3.9846,3.9635,3.9353,3.9055,3.8643,3.8285,3.7918,3.7583,3.749,3.7279,3.6998,3.6998,3.6998,3.6998,3.6978,3.6978,3.6978,3.6993,3.6993,3.6875,3.6792,3.6484,3.6266,3.6112,3.5851,3.5595,3.5392,3.5147,3.5003,3.4859,3.4473,3.4327,3.4264,3.4153,3.4298,3.4272,3.4344,3.4501,3.5209,3.5785,3.5857,3.5913,3.5798,3.5632,3.5368,3.509,3.4823,3.458,3.4457,3.4322,3.4014,3.3787,3.3968,3.4251,3.4471,3.4767,3.5194,3.5156,3.4997,3.473,3.4507,3.416,3.3822,3.3615,3.3479,3.3567,3.368,3.3805,3.373,3.3566,3.3165,3.2676,3.239,3.2157,3.5054,3.4823,3.4799,3.4799,3.4799,3.4799,3.4799,3.4799,3.4799,3.4932,3.5199,3.5452,3.5692,3.5992,3.6252,3.6358,3.6381,3.6417,3.6441,3.6476,3.6581,3.6698,3.6922,3.7214,3.7413,3.7588,3.7772,3.7988,3.819,3.8336,3.8526,3.8854,3.9158,3.9327,3.9372,3.9438,3.9518,3.962,3.9623,3.9792,3.9899,3.9625,3.9389,3.9075,3.8611,3.8146,3.7779,3.7473,3.7239,3.7127,3.709,3.7056,3.7037,3.7017,3.7017,3.7017,3.7037,3.7076,3.7076,3.7095,3.7037,3.6993,3.685,3.653,3.6266,3.6106,3.5891,3.5636,3.5419,3.5256,3.5093,3.4908,3.4756,3.4569,3.4369,3.4347,3.4294,3.4358,3.4508,3.4974,3.5575,3.5829,3.5964,3.589,3.5895,3.5668,3.5416,3.5138,3.4872,3.458,3.4445,3.4187,3.3984,3.3873,3.4123,3.4486,3.48,3.5165,3.5381,3.5312,3.5008,3.4702,3.4384,3.4058,3.3798,3.3735,3.3884,3.3912,3.3879,3.3789,3.3735,3.3292,3.2858,3.2517,3.2271,3.5151,3.5054,3.4872,3.4799,3.4799,3.4799,3.4799,3.4799,3.4799,3.4957,3.5223,3.5476,3.5788,3.6003,3.6275,3.6394,3.6417,3.6441,3.6523,3.6604,3.6709,3.6956,3.7214,3.7436,3.7611,3.7818,3.7988,3.8158,3.8304,3.8472,3.8832,3.918,3.943,3.9532,3.9587,3.9689,3.9684,3.9618,3.9516,3.9621,3.9598,3.9264,3.8968,3.8502,3.8219,3.778,3.7498,3.7381,3.7264,3.738,3.7419,3.7419,3.7433,3.7419,3.7419,3.7419,3.7438,3.7438,3.7419,3.7419,3.7361,3.7226,3.7143,3.6929,3.6648,3.6385,3.6172,3.5932,3.5696,3.5555,3.5358,3.5208,3.5065,3.4887,3.4701,3.4616,3.4531,3.4434,3.458,3.4898,3.5472,3.5867,3.5984,3.621,3.6181,3.5979,3.5753,3.5464,3.5199,3.4896,3.4531,3.431,3.416,3.4028,3.4217,3.457,3.4814,3.5088,3.5341,3.5483,3.5146,3.4841,3.459,3.4237,3.3876,3.3985,3.425,3.4162,3.3943,3.4057,3.3985,3.3513,3.307,3.2731,3.2358,3.5464,3.532,3.5078,3.4896,3.4823,3.4932,3.4957,3.4957,3.4981,3.5102,3.538,3.5644,3.5908,3.6169,3.6346,3.6417,3.6417,3.6523,3.6604,3.6675,3.6909,3.7191,3.7449,3.7634,3.7818,3.8011,3.8158,3.8304,3.8481,3.8832,3.918,3.9452,3.9642,3.9566,3.9524,3.9546,3.9486,3.9362,3.9289,3.9298,3.9103,3.8833,3.84,3.8088,3.7882,3.7623,3.7465,3.7433,3.7495,3.7572,3.7591,3.7605,3.7605,3.7586,3.7572,3.7572,3.7553,3.7553,3.7553,3.7553,3.7529,3.7452,3.7375,3.7167,3.6948,3.6688,3.6464,3.6226,3.6012,3.5797,3.5616,3.5433,3.5318,3.5195,3.5065,3.4934,3.4769,3.4569,3.471,3.4947,3.5348,3.5811,3.6103,3.6349,3.6476,3.6323,3.6098,3.5812,3.5512,3.5199,3.4775,3.4396,3.4309,3.4194,3.4412,3.4548,3.4826,3.5116,3.5455,3.5492,3.5212,3.4963,3.4674,3.4287,3.388,3.4069,3.4305,3.4106,3.3923,3.4093,3.4143,3.3702,3.3292,3.2912,3.2549,3.5836,3.5608,3.5344,3.5102,3.492,3.5126,3.5223,3.5247,3.5271,3.5416,3.5644,3.5896,3.6122,3.6299,3.6394,3.6428,3.6487,3.6604,3.6745,3.6769,3.7168,3.7482,3.7667,3.7795,3.8034,3.8145,3.8336,3.8562,3.8872,3.9045,3.9198,3.9618,3.9513,3.9334,3.9105,3.9262,3.9145,3.8775,3.8908,3.9032,3.8747,3.8444,3.8139,3.8065,3.7822,3.7586,3.7605,3.761,3.7629,3.7649,3.7668,3.7687,3.7706,3.7706,3.7687,3.7687,3.7725,3.7744,3.7744,3.7744,3.7701,3.7605,3.7457,3.7341,3.7162,3.6903,3.6648,3.6484,3.6252,3.6092,3.5912,3.5717,3.5575,3.5419,3.5256,3.5168,3.5065,3.4872,3.4829,3.5026,3.5232,3.5668,3.6032,3.6271,3.6533,3.6492,3.6428,3.6157,3.5836,3.5512,3.5126,3.4628,3.4408,3.4295,3.4221,3.44,3.4765,3.5095,3.5462,3.5638,3.5461,3.5146,3.4796,3.4399,3.4049,3.4107,3.4214,3.4108,3.4102,3.4196,3.4158,3.3861,3.3513,3.3165,3.2826,3.5955,3.586,3.562,3.5464,3.5428,3.55,3.5512,3.5524,3.5729,3.5836,3.592,3.5979,3.6133,3.6394,3.6441,3.6476,3.6615,3.6769,3.6956,3.7152,3.7466,3.7629,3.7897,3.7919,3.8153,3.8485,3.8688,3.8751,3.8923,3.8926,3.8839,3.892,3.8928,3.8782,3.8707,3.8872,3.8736,3.8295,3.8412,3.8573,3.8396,3.8038,3.7728,3.7748,3.7625,3.772,3.7777,3.7834,3.7934,3.8028,3.8033,3.8052,3.8066,3.8066,3.8052,3.8052,3.8014,3.7976,3.7976,3.7972,3.7934,3.7853,3.772,3.7548,3.7356,3.707,3.685,3.6688,3.6524,3.6365,3.6186,3.6012,3.5817,3.5622,3.544,3.5379,3.5318,3.5153,3.498,3.5068,3.5195,3.5526,3.5912,3.6215,3.6471,3.6576,3.6611,3.6452,3.6146,3.5836,3.5536,3.5078,3.4592,3.4393,3.4227,3.4307,3.4737,3.5014,3.534,3.5522,3.5647,3.5273,3.4852,3.4534,3.4279,3.4265,3.4289,3.4374,3.4379,3.435,3.4335,3.4123,3.3818,3.3481,3.3165,3.6193,3.6133,3.5884,3.5692,3.5644,3.5716,3.5764,3.5836,3.6074,3.6193,3.6169,3.6181,3.6263,3.6428,3.6499,3.6568,3.6743,3.6979,3.7294,3.7559,3.7492,3.765,3.7813,3.7789,3.7705,3.7979,3.8281,3.8439,3.8678,3.864,3.848,3.8558,3.8491,3.8413,3.8388,3.8484,3.8371,3.7953,3.8031,3.809,3.8109,3.7882,3.7739,3.7739,3.782,3.7915,3.7972,3.8047,3.816,3.8329,3.8408,3.8464,3.8445,3.8371,3.8348,3.8296,3.824,3.8202,3.8221,3.8202,3.8146,3.8047,3.791,3.772,3.751,3.7245,3.7051,3.6889,3.6688,3.6524,3.6405,3.6212,3.6052,3.5858,3.5642,3.5521,3.5419,3.5304,3.5146,3.5088,3.5321,3.5729,3.6078,3.6357,3.663,3.6967,3.6979,3.6722,3.6417,3.6134,3.586,3.5512,3.5005,3.4567,3.4356,3.4475,3.4752,3.5036,3.5261,3.5412,3.5524,3.5201,3.4869,3.459,3.4359,3.4236,3.4263,3.4432,3.4388,3.433,3.4409,3.4456,3.4111,3.3796,3.3481,3.6143,3.6133,3.5921,3.5685,3.5531,3.5708,3.5814,3.5825,3.6025,3.6153,3.6127,3.6139,3.6265,3.6474,3.6604,3.6671,3.6781,3.7037,3.7459,3.7458,3.731,3.7413,3.7356,3.7247,3.7362,3.7574,3.7867,3.7966,3.8086,3.8089,3.818,3.8366,3.8328,3.824,3.8141,3.8073,3.7959,3.7887,3.7906,3.7982,3.7996,3.7986,3.802,3.8062,3.816,3.8258,3.8277,3.8315,3.8389,3.8482,3.8668,3.869,3.8705,3.8612,3.8571,3.8501,3.8431,3.8352,3.8277,3.8277,3.8221,3.816,3.8024,3.7853,3.7629,3.7438,3.7245,3.7051,3.685,3.6688,3.6569,3.6451,3.6272,3.6032,3.5817,3.5629,3.5521,3.5453,3.5311,3.5168,3.5429,3.5844,3.6253,3.6553,3.6842,3.7198,3.7225,3.6932,3.6651,3.6417,3.6133,3.5836,3.5428,3.4993,3.4579,3.4509,3.4708,3.5023,3.5248,3.5382,3.5429,3.5262,3.5035,3.4674,3.4475,3.4302,3.4336,3.449,3.4415,3.436,3.4532,3.4622,3.4393,3.4037,3.3765,3.5039,3.5017,3.4971,3.4928,3.4882,3.495,3.4948,3.4961,3.5054,3.5118,3.5378,3.5449,3.574,3.6639,3.6675,3.6658,3.6599,3.6952,3.6847,3.6744,3.6945,3.7109,3.7147,3.7068,3.736,3.754,3.7751,3.8027,3.7779,3.7708,3.7733,3.7814,3.7634,3.7588,3.7561,3.7623,3.783,3.7872,3.8047,3.8198,3.8362,3.8381,3.8385,3.846,3.8575,3.8649,3.8671,3.8671,3.869,3.8745,3.8782,3.8837,3.8819,3.8815,3.876,3.8723,3.8634,3.8557,3.8482,3.8422,3.8366,3.824,3.8123,3.801,3.782,3.761,3.7419,3.7226,3.7046,3.6864,3.6727,3.6662,3.6504,3.6152,3.5891,3.5743,3.5642,3.5602,3.5521,3.5399,3.5424,3.598,3.6608,3.6845,3.6979,3.7296,3.7526,3.7248,3.6862,3.664,3.6417,3.6086,3.5764,3.5295,3.4835,3.4493,3.4613,3.4943,3.5294,3.5516,3.557,3.5477,3.5202,3.4841,3.4562,3.4365,3.4457,3.4486,3.4553,3.4554,3.4718,3.4757,3.4559,3.435,3.411]},{"header":{"parameterUnit":"m.s-1","parameterCategory":1,"la1":31.0,"la2":29.5877,"lo1":-88.7671,"lo2":-86.6584,"dx":0.0162,"dy":0.0185,"nx":115,"ny":88,"refTime":"2022-12-26T06:00:00:Z","depth":0,"parameterNumber":3,"parameterNumberName":"V-component_of_WINDS"},"data":[0.0,0.0,0.0,0.0,0.0,0.0,0.0,0.0,0.0,0.0,0.0,0.0,0.0,0.0,0.0,0.0,0.0,0.0,0.0,0.0,0.0,0.0,0.0,0.0,0.0,0.0,0.0,0.0,0.0,0.0,0.0,0.0,0.0,0.0,0.0,0.0,0.0,0.0,0.0,0.0,0.0,0.0,0.0,0.0,0.0,0.0,0.0,0.0,0.0,0.0,0.0,0.0,0.0,0.0,0.0,0.0,0.0,0.0,0.0,0.0,0.0,0.0,0.0,0.0,0.0,0.0,0.0,0.0,0.0,0.0,0.0,0.0,0.0,0.0,0.0,0.0,0.0,0.0,0.0,0.0,0.0,0.0,0.0,0.0,0.0,0.0,0.0,0.0,0.0,0.0,0.0,0.0,0.0,0.0,0.0,0.0,0.0,0.0,0.0,0.0,0.0,0.0,0.0,0.0,0.0,0.0,0.0,0.0,0.0,0.0,0.0,0.0,0.0,0.0,0.0,0.0,0.0,0.0,0.0,0.0,0.0,0.0,0.0,0.0,0.0,0.0,0.0,0.0,0.0,0.0,0.0,0.0,0.0,0.0,0.0,0.0,0.0,0.0,0.0,0.0,0.0,0.0,0.0,0.0,0.0,0.0,0.0,0.0,0.0,0.0,0.0,0.0,0.0,0.0,0.0,0.0,0.0,0.0,0.0,0.0,0.0,0.0,0.0,0.0,0.0,0.0,0.0,0.0,0.0,0.0,0.0,0.0,0.0,0.0,0.0,0.0,0.0,0.0,0.0,0.0,0.0,0.0,0.0,0.0,0.0,0.0,0.0,0.0,0.0,0.0,0.0,0.0,0.0,0.0,0.0,0.0,0.0,0.0,0.0,0.0,0.0,0.0,0.0,0.0,0.0,0.0,0.0,0.0,0.0,0.0,0.0,0.0,0.0,0.0,0.0,0.0,0.0,0.0,0.0,0.0,0.0,0.0,0.0,0.0,0.0,0.0,0.0,0.0,0.0,0.0,0.0,0.0,0.0,0.0,0.0,0.0,0.0,0.0,0.0,0.0,0.0,0.0,0.0,0.0,0.0,0.0,0.0,0.0,0.0,0.0,0.0,0.0,0.0,0.0,0.0,0.0,0.0,0.0,0.0,0.0,0.0,0.0,0.0,0.0,0.0,0.0,0.0,0.0,0.0,0.0,0.0,0.0,0.0,0.0,0.0,0.0,0.0,0.0,0.0,0.0,0.0,0.0,0.0,0.0,0.0,0.0,0.0,0.0,0.0,0.0,0.0,0.0,0.0,0.0,0.0,0.0,0.0,0.0,0.0,0.0,0.0,0.0,0.0,0.0,0.0,0.0,0.0,0.0,0.0,0.0,0.0,0.0,0.0,0.0,0.0,0.0,0.0,0.0,0.0,0.0,0.0,0.0,0.0,0.0,0.0,0.0,0.0,0.0,0.0,0.0,0.0,0.0,0.0,0.0,0.0,0.0,0.0,0.0,0.0,0.0,0.0,0.0,0.0,0.0,0.0,0.0,0.0,0.0,0.0,0.0,0.0,0.0,0.0,0.0,0.0,0.0,0.0,0.0,0.0,0.0,0.0,0.0,0.0,0.0,0.0,0.0,0.0,0.0,0.0,0.0,0.0,0.0,0.0,0.0,0.0,0.0,0.0,0.0,0.0,0.0,0.0,0.0,0.0,0.0,0.0,0.0,0.0,0.0,0.0,0.0,0.0,0.0,0.0,0.0,0.0,0.0,0.0,0.0,0.0,0.0,0.0,0.0,0.0,0.0,0.0,0.0,0.0,0.0,0.0,0.0,0.0,0.0,0.0,0.0,0.0,0.0,0.0,0.0,0.0,0.0,0.0,0.0,0.0,0.0,0.0,0.0,0.0,0.0,0.0,0.0,0.0,0.0,0.0,0.0,0.0,0.0,0.0,0.0,0.0,0.0,0.0,0.0,0.0,0.0,0.0,0.0,0.0,0.0,0.0,0.0,0.0,0.0,0.0,0.0,0.0,0.0,0.0,0.0,0.0,0.0,0.0,0.0,0.0,0.0,0.0,0.0,0.0,0.0,0.0,0.0,0.0,0.0,0.0,0.0,0.0,0.0,0.0,0.0,0.0,0.0,0.0,0.0,0.0,0.0,0.0,0.0,0.0,0.0,0.0,0.0,0.0,0.0,0.0,0.0,0.0,0.0,0.0,0.0,0.0,0.0,0.0,0.0,0.0,0.0,0.0,0.0,0.0,0.0,0.0,0.0,0.0,0.0,0.0,0.0,0.0,0.0,0.0,0.0,0.0,0.0,0.0,0.0,0.0,0.0,0.0,0.0,0.0,0.0,0.0,0.0,0.0,0.0,0.0,0.0,0.0,0.0,0.0,0.0,0.0,0.0,0.0,0.0,0.0,0.0,0.0,0.0,0.0,0.0,0.0,0.0,0.0,0.0,0.0,0.0,0.0,0.0,0.0,0.0,0.0,0.0,0.0,0.0,0.0,0.0,0.0,0.0,0.0,0.0,0.0,0.0,0.0,0.0,0.0,0.0,0.0,0.0,0.0,0.0,0.0,0.0,0.0,0.0,0.0,0.0,0.0,0.0,0.0,0.0,0.0,0.0,0.0,0.0,0.0,0.0,0.0,0.0,0.0,0.0,0.0,0.0,0.0,0.0,0.0,0.0,0.0,0.0,0.0,0.0,0.0,0.0,0.0,0.0,0.0,0.0,0.0,0.0,0.0,0.0,0.0,0.0,0.0,0.0,0.0,0.0,0.0,0.0,0.0,0.0,0.0,0.0,0.0,0.0,0.0,0.0,0.0,0.0,0.0,0.0,0.0,0.0,0.0,0.0,0.0,0.0,0.0,0.0,0.0,0.0,0.0,0.0,0.0,0.0,0.0,0.0,0.0,0.0,0.0,0.0,0.0,0.0,0.0,0.0,0.0,0.0,0.0,0.0,0.0,0.0,0.0,0.0,0.0,0.0,0.0,0.0,0.0,0.0,0.0,0.0,0.0,0.0,0.0,0.0,0.0,0.0,0.0,0.0,0.0,0.0,0.0,0.0,0.0,0.0,0.0,0.0,0.0,0.0,0.0,0.0,0.0,0.0,0.0,0.0,0.0,0.0,0.0,0.0,0.0,0.0,0.0,0.0,0.0,0.0,0.0,0.0,0.0,0.0,0.0,0.0,0.0,0.0,0.0,0.0,0.0,0.0,0.0,0.0,0.0,0.0,0.0,0.0,0.0,0.0,0.0,0.0,0.0,0.0,0.0,0.0,0.0,0.0,0.0,0.0,0.0,0.0,0.0,0.0,0.0,0.0,0.0,0.0,0.0,0.0,0.0,0.0,0.0,0.0,0.0,0.0,0.0,0.0,0.0,0.0,0.0,0.0,0.0,0.0,0.0,0.0,0.0,0.0,0.0,0.0,0.0,0.0,0.0,0.0,0.0,0.0,0.0,0.0,0.0,0.0,0.0,0.0,0.0,0.0,0.0,0.0,0.0,0.0,0.0,0.0,0.0,0.0,0.0,0.0,0.0,0.0,0.0,0.0,0.0,0.0,0.0,0.0,0.0,0.0,0.0,0.0,0.0,0.0,0.0,0.0,0.0,0.0,0.0,0.0,0.0,0.0,0.0,0.0,0.0,0.0,0.0,0.0,0.0,0.0,0.0,0.0,0.0,0.0,0.0,0.0,0.0,0.0,0.0,0.0,0.0,0.0,0.0,0.0,0.0,0.0,0.0,0.0,0.0,0.0,0.0,0.0,0.0,0.0,0.0,0.0,0.0,0.0,0.0,0.0,0.0,0.0,0.0,0.0,0.0,0.0,0.0,0.0,0.0,0.0,0.0,0.0,0.0,0.0,0.0,0.0,0.0,0.0,0.0,0.0,0.0,0.0,0.0,0.0,0.0,0.0,0.0,0.0,0.0,0.0,0.0,0.0,0.0,0.0,0.0,0.0,0.0,0.0,0.0,0.0,0.0,0.0,0.0,0.0,0.0,0.0,0.0,0.0,0.0,0.0,0.0,0.0,0.0,0.0,0.0,0.0,0.0,0.0,0.0,0.0,0.0,0.0,0.0,0.0,0.0,0.0,0.0,0.0,0.0,0.0,0.0,0.0,0.0,0.0,0.0,0.0,0.0,0.0,0.0,0.0,0.0,0.0,0.0,0.0,0.0,0.0,0.0,0.0,0.0,0.0,0.0,0.0,0.0,0.0,0.0,0.0,0.0,0.0,0.0,0.0,0.0,0.0,0.0,0.0,0.0,0.0,1.383,0.0,0.0,0.0,1.3474,0.0,0.0,0.0,0.0,0.0,0.0,0.0,0.0,0.0,0.0,0.0,0.0,0.0,0.0,0.0,0.0,0.0,0.0,0.0,0.0,0.0,0.0,0.0,0.0,0.0,0.0,0.0,0.0,0.0,0.0,0.0,0.0,0.0,0.0,0.0,0.0,0.0,0.0,0.0,0.0,0.0,0.0,0.0,0.0,0.0,0.0,0.0,0.0,0.0,0.0,0.0,0.0,0.0,0.0,0.0,0.0,0.0,0.0,0.0,0.0,0.0,0.0,0.0,0.0,0.0,0.0,0.0,0.0,0.0,0.0,0.0,0.0,0.0,0.0,0.0,0.0,0.0,0.0,0.0,0.0,0.0,0.0,0.0,0.0,0.0,0.0,0.0,0.0,0.0,0.0,0.0,0.0,0.0,0.0,0.0,0.0,0.0,0.0,0.0,0.0,0.0,0.0,0.0,0.0,0.0,0.0,0.0,0.0,0.0,0.0,1.4075,1.4111,1.4297,1.4342,1.4204,0.0,0.0,0.0,0.0,0.0,0.0,0.0,0.0,0.0,0.0,0.0,0.0,0.0,0.0,0.0,0.0,0.0,0.0,0.0,0.0,0.0,0.0,0.0,0.0,0.0,0.0,0.0,0.0,0.0,0.0,0.0,0.0,0.0,0.0,0.0,0.0,0.0,0.0,0.0,0.0,0.0,0.0,0.0,0.0,0.0,0.0,0.0,0.0,0.0,0.0,0.0,0.0,0.0,0.0,0.0,0.0,0.0,0.0,0.0,0.0,0.0,0.0,0.0,0.0,0.0,0.0,0.0,0.0,0.0,0.0,0.0,0.0,0.0,0.0,0.0,0.0,0.0,0.0,0.0,0.0,0.0,0.0,0.0,0.0,0.0,0.0,0.0,0.0,0.0,0.0,0.0,0.0,0.0,0.0,0.0,0.0,0.0,0.0,0.0,0.0,0.0,0.0,0.0,0.0,0.0,0.0,0.0,0.0,0.0,0.0,0.0,0.0,1.4488,1.4602,1.4774,0.0,0.0,0.0,0.0,0.0,0.0,0.0,0.0,0.0,0.0,0.0,0.0,0.0,0.0,0.0,0.0,0.0,0.0,0.0,0.0,0.0,0.0,0.0,0.0,0.0,0.0,0.0,0.0,0.0,0.0,0.0,0.0,0.0,0.0,0.0,0.0,0.0,0.0,0.0,0.0,0.0,0.0,0.0,0.0,0.0,0.0,0.0,0.0,0.0,0.0,0.0,0.0,0.0,0.0,0.0,0.0,0.0,0.0,0.0,0.0,0.0,0.0,0.0,0.0,0.0,0.0,0.0,0.0,0.0,0.0,0.0,0.0,0.0,0.0,0.0,0.0,0.0,0.0,0.0,0.0,0.0,0.0,0.0,0.0,0.0,0.0,0.0,0.0,0.0,0.0,0.0,0.0,0.0,0.0,0.0,0.0,0.0,0.0,0.0,0.0,0.0,0.0,0.0,0.0,0.0,0.0,0.0,0.0,0.0,0.0,1.4577,1.5175,1.4756,0.0,1.5053,0.0,0.0,0.0,0.0,0.0,0.0,0.0,0.0,0.0,0.0,0.0,0.0,0.0,0.0,0.0,0.0,0.0,0.0,0.0,0.0,0.0,0.0,0.0,0.0,0.0,0.0,0.0,0.0,0.0,0.0,0.0,0.0,0.0,0.0,0.0,0.0,0.0,0.0,0.0,0.0,0.0,0.0,0.0,0.0,0.0,0.0,0.0,0.0,0.0,0.0,0.0,0.0,0.0,0.0,0.0,0.0,0.0,0.0,0.0,0.0,0.0,0.0,0.0,0.0,0.0,0.0,0.0,0.0,0.0,0.0,0.0,0.0,0.0,0.0,0.0,0.0,0.0,0.0,0.0,0.0,0.0,0.0,0.0,0.0,0.0,0.0,0.0,0.0,0.0,0.0,0.0,0.0,0.0,0.0,0.0,0.0,0.0,0.0,0.0,0.0,0.0,0.0,0.0,0.0,0.0,0.0,0.0,0.0,0.0,0.0,1.4626,1.5274,1.5348,1.5381,0.0,0.0,0.0,0.0,0.0,0.0,0.0,0.0,0.0,0.0,0.0,0.0,0.0,0.0,0.0,0.0,0.0,0.0,0.0,0.0,0.0,0.0,0.0,0.0,0.0,0.0,0.0,0.0,0.0,0.0,0.0,0.0,0.0,0.0,0.0,0.0,0.0,0.0,0.0,0.0,0.0,0.0,0.0,0.0,0.0,0.0,0.0,0.0,0.0,0.0,0.0,0.0,0.0,0.0,0.0,0.0,0.0,0.0,0.0,0.0,0.0,0.0,0.0,0.0,0.0,0.0,0.0,0.0,0.0,0.0,0.0,0.0,0.0,0.0,0.0,0.0,0.0,0.0,0.0,0.0,0.0,0.0,0.0,0.0,0.0,0.0,0.0,0.0,0.0,0.0,0.0,0.0,0.0,0.0,0.0,0.0,0.0,0.0,0.0,0.0,0.0,0.0,0.0,0.0,0.0,0.0,0.0,0.0,0.0,0.0,1.4359,1.462,1.5178,1.577,1.5907,1.5551,0.0,0.0,0.0,0.0,0.0,0.0,0.0,0.0,0.0,0.0,0.0,0.0,0.0,0.0,0.0,0.0,0.0,0.0,0.0,0.0,0.0,0.0,0.0,0.0,0.0,0.0,0.0,0.0,0.0,0.0,0.0,0.0,0.0,0.0,0.0,0.0,0.0,0.0,0.0,0.0,0.0,0.0,0.0,0.0,0.0,0.0,0.0,0.0,0.0,0.0,0.0,0.0,0.0,0.0,0.0,0.0,0.0,0.0,0.0,0.0,0.0,0.0,0.0,0.0,0.0,0.0,0.0,0.0,0.0,0.0,0.0,0.0,0.0,0.0,0.0,0.0,0.0,0.0,0.0,0.0,0.0,0.0,0.0,0.0,0.0,0.0,0.0,0.0,0.0,0.0,0.0,0.0,0.0,0.0,0.0,0.0,0.0,0.0,0.0,0.0,0.0,0.0,0.0,0.0,0.0,0.0,0.0,0.0,1.4485,1.4499,1.4645,1.4955,1.5806,1.6094,0.0,0.0,0.0,0.0,0.0,0.0,0.0,0.0,0.0,0.0,0.0,0.0,0.0,0.0,0.0,0.0,0.0,0.0,0.0,0.0,0.0,0.0,0.0,0.0,0.0,0.0,0.0,0.0,0.0,0.0,0.0,0.0,0.0,0.0,0.0,0.0,0.0,0.0,0.0,0.0,0.0,0.0,0.0,0.0,0.0,0.0,0.0,0.0,0.0,0.0,0.0,0.0,0.0,0.0,0.0,0.0,0.0,0.0,0.0,0.0,0.0,0.0,0.0,0.0,0.0,0.0,0.0,0.0,0.0,0.0,0.0,0.0,0.0,0.0,0.0,0.0,0.0,0.0,0.0,0.0,0.0,0.0,0.0,0.0,0.0,0.0,0.0,0.0,0.0,0.0,0.0,0.0,0.0,0.0,0.0,0.0,0.0,0.0,0.0,0.0,0.0,0.0,0.0,0.0,0.0,0.0,0.0,0.0,0.0,1.4659,1.5533,1.5912,1.57,1.6576,1.6693,0.0,0.0,0.0,0.0,0.0,0.0,0.0,0.0,0.0,0.0,0.0,0.0,0.0,0.0,0.0,0.0,0.0,0.0,0.0,0.0,0.0,0.0,0.0,0.0,0.0,0.0,0.0,0.0,0.0,0.0,0.0,0.0,0.0,0.0,0.0,0.0,0.0,0.0,0.0,0.0,0.0,0.0,0.0,0.0,0.0,0.0,0.0,0.0,0.0,0.0,0.0,0.0,0.0,0.0,0.0,0.0,0.0,0.0,0.0,0.0,0.0,0.0,0.0,0.0,0.0,0.0,0.0,0.0,0.0,0.0,0.0,0.0,0.0,0.0,0.0,0.0,0.0,0.0,0.0,0.0,0.0,0.0,0.0,0.0,0.0,0.0,0.0,0.0,0.0,0.0,0.0,0.0,0.0,0.0,0.0,0.0,0.0,0.0,0.0,0.0,0.0,0.0,0.0,0.0,0.0,0.0,0.0,0.0,0.0,1.5205,1.6355,1.6867,1.6631,1.7059,1.7059,0.0,0.0,0.0,0.0,0.0,0.0,0.0,0.0,0.0,0.0,0.0,0.0,0.0,0.0,0.0,0.0,0.0,0.0,0.0,0.0,0.0,0.0,0.0,0.0,0.0,0.0,0.0,0.0,0.0,0.0,0.0,0.0,0.0,0.0,0.0,0.0,0.0,0.0,0.0,0.0,0.0,0.0,0.0,0.0,0.0,0.0,0.0,0.0,0.0,0.0,0.0,0.0,0.0,0.0,0.0,0.0,0.0,0.0,0.0,0.0,0.0,0.0,0.0,0.0,0.0,0.0,0.0,0.0,0.0,0.0,0.0,0.0,0.0,0.0,0.0,0.0,0.0,0.0,0.0,0.0,0.0,0.0,0.0,0.0,0.0,0.0,0.0,0.0,0.0,0.0,0.0,0.0,0.0,0.0,0.0,0.0,0.0,0.0,0.0,0.0,0.0,0.0,0.0,0.0,0.0,0.0,0.0,0.0,1.5469,1.6221,1.6907,1.7407,1.7607,1.7323,1.7143,0.0,0.0,0.0,0.0,0.0,0.0,0.0,0.0,0.0,0.0,0.0,0.0,0.0,0.0,0.0,0.0,0.0,0.0,0.0,0.0,0.0,0.0,0.0,0.0,0.0,0.0,0.0,0.0,0.0,0.0,0.0,0.0,0.0,0.0,0.0,0.0,0.0,0.0,0.0,0.0,0.0,0.0,0.0,0.0,0.0,0.0,0.0,0.0,0.0,0.0,0.0,0.0,0.0,0.0,0.0,0.0,0.0,0.0,0.0,0.0,0.0,0.0,0.0,0.0,0.0,0.0,0.0,0.0,0.0,0.0,0.0,0.0,0.0,0.0,0.0,0.0,0.0,0.0,0.0,0.0,0.0,0.0,0.0,0.0,0.0,0.0,0.0,0.0,0.0,0.0,0.0,0.0,0.0,0.0,0.0,0.0,0.0,0.0,0.0,0.0,0.0,0.0,0.0,0.0,0.0,0.0,0.0,0.0,0.0,1.8332,1.8685,1.8906,1.9035,1.9075,1.8517,0.0,0.0,0.0,0.0,0.0,0.0,0.0,0.0,0.0,0.0,0.0,0.0,0.0,0.0,0.0,0.0,0.0,0.0,0.0,0.0,0.0,0.0,0.0,0.0,0.0,0.0,0.0,0.0,0.0,0.0,0.0,0.0,0.0,0.0,0.0,0.0,0.0,0.0,0.0,0.0,0.0,0.0,0.0,0.0,0.0,0.0,0.0,0.0,0.0,0.0,0.0,0.0,0.0,0.0,0.0,0.0,0.0,0.0,0.0,0.0,0.0,0.0,0.0,0.0,0.0,0.0,0.0,0.0,0.0,0.0,0.0,0.0,0.0,0.0,0.0,0.0,0.0,0.0,0.0,0.0,0.0,0.0,0.0,0.0,0.0,0.0,0.0,0.0,0.0,0.0,0.0,0.0,0.0,0.0,0.0,0.0,0.0,0.0,0.0,0.0,0.0,0.0,0.0,0.0,0.0,0.0,0.0,0.0,0.0,2.0921,2.053,2.0391,2.0559,2.0228,1.9567,1.8517,0.0,0.0,0.0,0.0,0.0,0.0,0.0,0.0,0.0,0.0,0.0,0.0,0.0,0.0,0.0,0.0,0.0,0.0,0.0,0.0,0.0,0.0,0.0,0.0,0.0,0.0,0.0,0.0,0.0,0.0,0.0,0.0,0.0,0.0,0.0,0.0,0.0,0.0,0.0,0.0,0.0,0.0,0.0,0.0,0.0,0.0,0.0,0.0,0.0,0.0,0.0,0.0,0.0,0.0,0.0,0.0,0.0,0.0,0.0,0.0,0.0,0.0,0.0,0.0,0.0,0.0,0.0,0.0,0.0,0.0,0.0,0.0,0.0,0.0,0.0,0.0,0.0,0.0,0.0,0.0,0.0,0.0,0.0,0.0,0.0,0.0,0.0,0.0,0.0,0.0,0.0,0.0,0.0,0.0,0.0,0.0,0.0,0.0,0.0,0.0,0.0,0.0,0.0,0.0,0.0,0.0,0.0,0.0,2.3773,2.2472,2.1884,2.2085,2.0895,2.0295,0.0,0.0,0.0,0.0,0.0,0.0,0.0,0.0,0.0,0.0,0.0,0.0,0.0,0.0,0.0,0.0,0.0,0.0,0.0,0.0,0.0,0.0,0.0,0.0,0.0,0.0,0.0,0.0,0.0,0.0,0.0,0.0,0.0,0.0,0.0,0.0,0.0,0.0,0.0,0.0,0.0,0.0,0.0,0.0,0.0,0.0,0.0,0.0,0.0,0.0,0.0,0.0,0.0,0.0,0.0,0.0,0.0,0.0,0.0,0.0,0.0,0.0,0.0,0.0,0.0,0.0,0.0,0.0,0.0,0.0,0.0,0.0,0.0,0.0,0.0,0.0,0.0,0.0,0.0,0.0,0.0,0.0,0.0,0.0,0.0,0.0,0.0,0.0,0.0,0.0,0.0,0.0,0.0,0.0,0.0,0.0,0.0,0.0,0.0,0.0,0.0,0.0,0.0,0.0,0.0,0.0,0.0,0.0,0.0,2.392,2.4502,2.4392,2.3491,2.2254,2.1249,0.0,0.0,0.0,0.0,0.0,0.0,0.0,0.0,0.0,0.0,0.0,0.0,0.0,0.0,0.0,0.0,0.0,0.0,0.0,0.0,0.0,0.0,0.0,0.0,0.0,0.0,0.0,0.0,0.0,0.0,0.0,0.0,0.0,0.0,0.0,0.0,0.0,0.0,0.0,0.0,0.0,0.0,0.0,0.0,0.0,0.0,0.0,0.0,0.0,0.0,0.0,0.0,0.0,0.0,0.0,0.0,0.0,0.0,0.0,0.0,0.0,0.0,0.0,0.0,0.0,0.0,0.0,0.0,0.0,0.0,0.0,0.0,0.0,0.0,0.0,0.0,0.0,0.0,0.0,0.0,0.0,0.0,0.0,0.0,0.0,0.0,0.0,0.0,0.0,0.0,0.0,0.0,0.0,0.0,0.0,0.0,0.0,0.0,0.0,0.0,0.0,0.0,0.0,0.0,0.0,0.0,0.0,0.0,2.4462,2.4915,2.5749,2.5768,2.4954,2.3692,2.253,0.0,0.0,0.0,0.0,0.0,0.0,0.0,0.0,0.0,0.0,0.0,0.0,0.0,0.0,0.0,0.0,0.0,0.0,0.0,0.0,0.0,0.0,0.0,0.0,0.0,0.0,0.0,0.0,0.0,0.0,0.0,0.0,0.0,0.0,0.0,0.0,0.0,0.0,0.0,0.0,0.0,0.0,0.0,0.0,0.0,0.0,0.0,0.0,0.0,0.0,0.0,0.0,0.0,0.0,0.0,0.0,0.0,0.0,0.0,0.0,0.0,0.0,0.0,0.0,0.0,0.0,0.0,0.0,0.0,0.0,0.0,0.0,0.0,0.0,0.0,0.0,0.0,0.0,0.0,0.0,0.0,0.0,0.0,0.0,0.0,0.0,0.0,0.0,0.0,0.0,0.0,0.0,0.0,0.0,0.0,0.0,0.0,0.0,0.0,0.0,0.0,0.0,0.0,0.0,0.0,0.0,0.0,0.0,2.5228,2.6306,2.6519,2.6484,2.6198,2.4998,2.3802,0.0,0.0,0.0,0.0,0.0,0.0,0.0,0.0,0.0,0.0,0.0,0.0,0.0,0.0,0.0,0.0,0.0,0.0,0.0,0.0,0.0,0.0,0.0,0.0,0.0,0.0,0.0,0.0,0.0,0.0,0.0,0.0,0.0,0.0,0.0,0.0,0.0,0.0,0.0,0.0,0.0,0.0,0.0,0.0,0.0,0.0,0.0,0.0,0.0,0.0,0.0,0.0,0.0,0.0,0.0,0.0,0.0,0.0,0.0,0.0,0.0,0.0,0.0,0.0,0.0,0.0,0.0,0.0,0.0,0.0,0.0,0.0,0.0,0.0,0.0,0.0,0.0,0.0,0.0,0.0,0.0,0.0,0.0,0.0,0.0,0.0,0.0,0.0,0.0,0.0,0.0,0.0,0.0,0.0,0.0,0.0,0.0,0.0,0.0,0.0,0.0,0.0,0.0,0.0,0.0,0.0,0.0,0.0,2.6423,2.7126,2.7692,2.7445,2.6388,2.5131,2.3912,0.0,0.0,0.0,0.0,0.0,0.0,0.0,0.0,0.0,0.0,0.0,0.0,0.0,0.0,0.0,0.0,0.0,0.0,0.0,0.0,0.0,0.0,0.0,0.0,0.0,0.0,0.0,0.0,0.0,0.0,0.0,0.0,0.0,0.0,0.0,0.0,0.0,0.0,0.0,0.0,0.0,0.0,0.0,0.0,0.0,0.0,0.0,0.0,2.8524,0.0,0.0,0.0,0.0,0.0,0.0,0.0,0.0,0.0,0.0,0.0,0.0,0.0,0.0,0.0,0.0,0.0,0.0,0.0,0.0,0.0,0.0,0.0,0.0,0.0,0.0,0.0,0.0,0.0,0.0,0.0,0.0,0.0,0.0,0.0,0.0,0.0,0.0,0.0,0.0,0.0,0.0,0.0,0.0,0.0,0.0,0.0,0.0,0.0,0.0,0.0,0.0,0.0,0.0,0.0,0.0,0.0,0.0,0.0,2.6835,2.7407,2.8057,2.7904,2.6899,2.601,2.4822,0.0,0.0,0.0,0.0,0.0,0.0,0.0,0.0,0.0,0.0,0.0,0.0,0.0,0.0,0.0,0.0,0.0,0.0,0.0,0.0,0.0,0.0,0.0,0.0,0.0,0.0,0.0,0.0,0.0,0.0,0.0,0.0,0.0,0.0,0.0,0.0,0.0,0.0,0.0,0.0,0.0,0.0,0.0,0.0,0.0,0.0,0.0,0.0,0.0,0.0,0.0,0.0,0.0,0.0,0.0,0.0,0.0,0.0,0.0,0.0,0.0,0.0,0.0,0.0,0.0,0.0,0.0,0.0,0.0,0.0,0.0,0.0,0.0,0.0,0.0,0.0,0.0,0.0,0.0,0.0,0.0,0.0,0.0,0.0,0.0,0.0,0.0,0.0,0.0,0.0,0.0,0.0,0.0,0.0,0.0,0.0,0.0,0.0,0.0,0.0,0.0,0.0,0.0,0.0,0.0,0.0,0.0,2.6106,2.7002,2.7581,2.8131,2.8073,2.7423,2.6949,2.5863,2.4112,0.0,0.0,0.0,0.0,0.0,0.0,0.0,0.0,0.0,0.0,0.0,0.0,0.0,0.0,0.0,0.0,0.0,0.0,0.0,0.0,0.0,0.0,0.0,0.0,0.0,0.0,0.0,0.0,0.0,0.0,0.0,0.0,0.0,0.0,0.0,0.0,0.0,0.0,2.5326,2.6768,0.0,0.0,0.0,0.0,0.0,0.0,0.0,0.0,2.8992,0.0,0.0,0.0,0.0,0.0,0.0,0.0,0.0,0.0,0.0,0.0,0.0,0.0,0.0,0.0,0.0,0.0,0.0,0.0,0.0,0.0,0.0,0.0,0.0,0.0,0.0,0.0,0.0,0.0,0.0,0.0,0.0,0.0,0.0,0.0,0.0,0.0,0.0,0.0,0.0,0.0,0.0,0.0,0.0,0.0,0.0,0.0,0.0,0.0,0.0,0.0,0.0,0.0,0.0,0.0,0.0,2.6496,2.6648,2.7254,2.8375,2.8395,2.8073,2.7423,2.6938,2.6055,2.4722,0.0,0.0,0.0,0.0,0.0,0.0,0.0,0.0,0.0,0.0,0.0,0.0,0.0,0.0,0.0,0.0,0.0,0.0,0.0,0.0,0.0,0.0,0.0,0.0,0.0,0.0,0.0,0.0,0.0,0.0,0.0,0.0,0.0,0.0,0.0,0.0,0.0,0.0,0.0,2.784,2.8461,0.0,0.0,0.0,0.0,0.0,0.0,0.0,0.0,2.9911,0.0,0.0,0.0,0.0,0.0,0.0,0.0,0.0,0.0,0.0,0.0,0.0,0.0,0.0,0.0,0.0,0.0,0.0,0.0,0.0,0.0,0.0,0.0,0.0,0.0,0.0,0.0,0.0,0.0,0.0,0.0,0.0,0.0,0.0,0.0,0.0,0.0,0.0,0.0,0.0,0.0,0.0,0.0,0.0,0.0,0.0,0.0,0.0,0.0,0.0,0.0,0.0,0.0,0.0,0.0,2.664,2.6736,2.7282,2.8443,2.8432,2.823,2.7904,2.7139,2.6247,0.0,0.0,0.0,0.0,0.0,0.0,0.0,0.0,0.0,0.0,0.0,0.0,0.0,0.0,0.0,0.0,0.0,0.0,0.0,0.0,0.0,0.0,0.0,0.0,0.0,0.0,0.0,0.0,0.0,0.0,0.0,0.0,0.0,0.0,0.0,0.0,0.0,0.0,0.0,0.0,2.8689,2.936,2.973,0.0,0.0,0.0,0.0,0.0,0.0,3.0678,3.0643,0.0,0.0,0.0,0.0,0.0,0.0,0.0,0.0,0.0,0.0,0.0,0.0,0.0,0.0,0.0,0.0,0.0,0.0,0.0,0.0,0.0,0.0,0.0,0.0,0.0,0.0,0.0,0.0,0.0,0.0,0.0,0.0,0.0,0.0,0.0,0.0,0.0,0.0,0.0,0.0,0.0,0.0,0.0,0.0,0.0,0.0,0.0,0.0,0.0,0.0,0.0,0.0,0.0,0.0,0.0,2.6653,2.699,2.7596,2.8571,2.8747,2.875,2.8581,2.7635,2.6689,0.0,0.0,0.0,0.0,0.0,0.0,0.0,0.0,0.0,0.0,0.0,0.0,0.0,0.0,0.0,0.0,0.0,0.0,0.0,0.0,0.0,0.0,0.0,0.0,0.0,0.0,0.0,0.0,0.0,0.0,0.0,0.0,0.0,0.0,0.0,0.0,0.0,0.0,0.0,0.0,0.0,3.0225,3.0809,3.0948,0.0,0.0,0.0,0.0,3.1422,3.1506,0.0,0.0,0.0,0.0,0.0,0.0,0.0,0.0,0.0,0.0,0.0,0.0,0.0,0.0,0.0,0.0,0.0,0.0,0.0,0.0,0.0,0.0,0.0,0.0,0.0,0.0,0.0,0.0,0.0,0.0,0.0,0.0,0.0,0.0,0.0,0.0,0.0,0.0,0.0,0.0,0.0,0.0,0.0,0.0,0.0,0.0,0.0,0.0,0.0,0.0,0.0,0.0,0.0,0.0,0.0,0.0,2.6826,2.794,2.8777,2.9459,2.9912,2.9879,2.9292,2.8752,2.7564,0.0,0.0,0.0,0.0,0.0,0.0,0.0,0.0,0.0,0.0,0.0,0.0,0.0,0.0,0.0,0.0,0.0,0.0,0.0,0.0,0.0,0.0,0.0,0.0,0.0,0.0,0.0,0.0,0.0,0.0,0.0,0.0,0.0,0.0,0.0,0.0,0.0,0.0,0.0,0.0,0.0,3.0732,3.0878,3.0917,3.0934,0.0,0.0,0.0,3.2238,3.2328,0.0,0.0,0.0,0.0,0.0,0.0,0.0,0.0,0.0,0.0,0.0,0.0,0.0,0.0,0.0,0.0,0.0,0.0,0.0,0.0,0.0,0.0,0.0,0.0,0.0,0.0,0.0,0.0,0.0,0.0,0.0,0.0,0.0,0.0,0.0,0.0,0.0,0.0,0.0,0.0,0.0,0.0,0.0,0.0,0.0,0.0,0.0,0.0,0.0,0.0,0.0,0.0,0.0,0.0,0.0,2.4969,2.7286,2.8167,2.906,3.0011,3.0274,3.0276,2.9984,2.914,2.8105,0.0,0.0,0.0,0.0,0.0,0.0,0.0,0.0,0.0,0.0,0.0,0.0,0.0,0.0,0.0,0.0,0.0,0.0,0.0,0.0,0.0,0.0,0.0,0.0,0.0,0.0,0.0,0.0,0.0,0.0,0.0,0.0,0.0,0.0,0.0,0.0,0.0,0.0,0.0,0.0,0.0,0.0,3.2655,3.2882,0.0,0.0,0.0,3.4207,3.3771,0.0,0.0,0.0,0.0,0.0,0.0,0.0,0.0,0.0,0.0,0.0,0.0,0.0,0.0,0.0,0.0,0.0,0.0,0.0,0.0,0.0,0.0,0.0,0.0,0.0,0.0,0.0,0.0,0.0,0.0,0.0,0.0,0.0,0.0,0.0,0.0,0.0,0.0,0.0,0.0,0.0,0.0,0.0,0.0,0.0,0.0,0.0,0.0,0.0,0.0,0.0,0.0,0.0,0.0,0.0,0.0,0.0,2.7644,2.8554,2.9635,3.0861,3.1076,3.1063,3.0905,3.0132,0.0,0.0,0.0,0.0,0.0,0.0,0.0,0.0,0.0,0.0,0.0,0.0,0.0,0.0,0.0,0.0,0.0,0.0,0.0,0.0,0.0,0.0,0.0,0.0,0.0,0.0,0.0,0.0,0.0,0.0,0.0,0.0,0.0,0.0,0.0,0.0,0.0,0.0,0.0,0.0,0.0,0.0,3.3006,3.431,3.4655,3.4957,0.0,0.0,3.5678,3.5106,3.5126,3.4914,0.0,0.0,0.0,0.0,0.0,0.0,0.0,0.0,0.0,0.0,0.0,0.0,0.0,0.0,0.0,0.0,0.0,0.0,0.0,0.0,0.0,0.0,0.0,0.0,0.0,0.0,0.0,0.0,0.0,0.0,0.0,0.0,0.0,0.0,0.0,0.0,0.0,0.0,0.0,0.0,0.0,0.0,0.0,0.0,0.0,0.0,0.0,0.0,0.0,0.0,0.0,0.0,0.0,0.0,0.0,2.7676,2.9506,3.1036,3.2242,3.289,3.2906,3.2275,3.2441,3.1283,0.0,0.0,0.0,0.0,0.0,0.0,0.0,0.0,0.0,0.0,0.0,0.0,0.0,0.0,0.0,0.0,0.0,0.0,0.0,0.0,0.0,0.0,0.0,0.0,0.0,0.0,0.0,0.0,0.0,0.0,0.0,0.0,0.0,0.0,0.0,0.0,0.0,0.0,0.0,0.0,0.0,3.4281,3.5205,3.5378,3.5478,0.0,0.0,3.582,3.5891,3.5921,3.5681,3.5024,0.0,0.0,0.0,0.0,0.0,0.0,0.0,0.0,0.0,0.0,0.0,0.0,0.0,0.0,0.0,0.0,0.0,0.0,0.0,0.0,0.0,0.0,0.0,0.0,0.0,0.0,0.0,0.0,0.0,0.0,0.0,0.0,0.0,0.0,0.0,0.0,0.0,0.0,0.0,0.0,0.0,0.0,0.0,0.0,0.0,0.0,0.0,0.0,0.0,0.0,0.0,0.0,0.0,2.624,2.8178,3.0106,3.1713,3.2982,3.3705,3.3736,3.3029,3.2862,3.1703,0.0,0.0,0.0,0.0,0.0,0.0,0.0,0.0,0.0,0.0,0.0,0.0,0.0,0.0,0.0,0.0,0.0,0.0,0.0,0.0,0.0,0.0,0.0,0.0,0.0,0.0,0.0,0.0,2.6686,2.7431,2.8859,0.0,0.0,0.0,0.0,0.0,0.0,0.0,0.0,0.0,0.0,3.5104,3.6002,3.6204,0.0,0.0,3.7224,3.7185,3.6729,3.6731,3.6551,3.5813,3.5542,0.0,0.0,0.0,0.0,0.0,0.0,0.0,0.0,0.0,0.0,0.0,0.0,0.0,0.0,0.0,0.0,0.0,0.0,0.0,0.0,0.0,0.0,0.0,0.0,0.0,0.0,0.0,0.0,0.0,0.0,0.0,0.0,0.0,0.0,0.0,0.0,0.0,0.0,0.0,0.0,0.0,0.0,0.0,0.0,0.0,0.0,0.0,0.0,0.0,0.0,0.0,0.0,2.684,2.8715,3.0648,3.2282,3.3619,3.4355,3.4477,3.4044,3.3593,3.2504,0.0,0.0,0.0,0.0,0.0,0.0,0.0,0.0,0.0,0.0,0.0,0.0,0.0,0.0,0.0,0.0,0.0,0.0,0.0,0.0,0.0,0.0,0.0,0.0,0.0,0.0,0.0,0.0,2.7837,2.8588,3.0454,0.0,0.0,0.0,0.0,0.0,0.0,0.0,0.0,0.0,0.0,3.6371,3.747,3.7738,3.8022,3.8659,3.8905,3.8859,3.8334,3.8357,3.8151,3.7351,0.0,0.0,0.0,0.0,0.0,0.0,0.0,0.0,0.0,0.0,0.0,0.0,0.0,0.0,0.0,0.0,0.0,0.0,0.0,0.0,0.0,0.0,0.0,0.0,0.0,0.0,0.0,0.0,0.0,0.0,0.0,0.0,0.0,0.0,0.0,0.0,0.0,0.0,0.0,0.0,0.0,0.0,0.0,0.0,0.0,0.0,0.0,0.0,0.0,0.0,0.0,0.0,0.0,0.0,2.9282,3.1207,3.2835,3.4162,3.4835,3.5263,3.5399,3.493,3.4052,3.2716,0.0,0.0,0.0,0.0,0.0,0.0,0.0,0.0,0.0,0.0,0.0,0.0,0.0,0.0,0.0,0.0,0.0,0.0,0.0,0.0,0.0,0.0,0.0,0.0,0.0,0.0,3.0132,3.0221,3.0529,0.0,0.0,0.0,0.0,0.0,0.0,0.0,0.0,0.0,0.0,3.7649,3.8285,3.9782,4.0156,4.0266,4.0383,4.0535,4.0693,4.0808,4.0878,4.0665,0.0,0.0,0.0,0.0,0.0,0.0,0.0,0.0,0.0,0.0,0.0,0.0,0.0,0.0,0.0,0.0,0.0,0.0,0.0,0.0,0.0,0.0,0.0,0.0,0.0,0.0,0.0,0.0,2.3463,0.0,0.0,0.0,0.0,0.0,0.0,0.0,0.0,0.0,0.0,0.0,2.7805,2.8077,0.0,0.0,0.0,0.0,0.0,0.0,0.0,0.0,0.0,0.0,0.0,0.0,2.8615,2.9863,3.1839,3.3506,3.4835,3.5523,3.5738,3.5506,3.5409,3.4391,3.2334,0.0,0.0,0.0,0.0,0.0,0.0,0.0,0.0,0.0,0.0,0.0,0.0,0.0,0.0,0.0,0.0,0.0,0.0,0.0,0.0,0.0,0.0,0.0,0.0,0.0,3.016,0.0,0.0,0.0,0.0,0.0,0.0,0.0,0.0,0.0,0.0,0.0,3.7211,3.832,3.8966,3.9578,4.021,4.0393,4.0492,0.0,0.0,0.0,0.0,0.0,0.0,0.0,0.0,0.0,0.0,0.0,0.0,0.0,0.0,4.2051,4.0287,4.0404,4.0716,4.0463,0.0,0.0,0.0,0.0,0.0,0.0,0.0,0.0,0.0,0.0,0.0,0.0,0.0,0.0,0.0,0.0,2.4885,0.0,0.0,0.0,0.0,0.0,0.0,0.0,0.0,2.9398,3.0034,3.0255,3.0577,3.0753,0.0,3.0347,2.9269,0.0,0.0,0.0,0.0,0.0,0.0,0.0,0.0,3.0106,3.0815,3.2779,3.4241,3.511,3.5781,3.6028,3.586,3.575,3.461,3.2339,3.1364,3.0221,0.0,0.0,0.0,0.0,0.0,0.0,0.0,0.0,0.0,0.0,0.0,0.0,0.0,0.0,0.0,0.0,0.0,0.0,0.0,0.0,0.0,0.0,0.0,3.1397,0.0,0.0,0.0,0.0,0.0,0.0,0.0,0.0,0.0,3.689,3.7783,3.8776,3.9629,4.0251,4.0866,4.1547,0.0,0.0,0.0,0.0,0.0,0.0,0.0,4.271,4.2527,4.2678,4.2837,4.2916,4.3398,4.3964,4.4491,0.0,0.0,4.2693,4.2809,4.3113,4.2827,4.3421,4.3992,4.4051,4.4408,4.4741,0.0,0.0,0.0,0.0,0.0,0.0,0.0,0.0,2.7295,2.7279,0.0,2.7216,0.0,0.0,0.0,0.0,0.0,0.0,0.0,0.0,3.1621,3.2479,3.2734,3.3481,3.3884,0.0,3.2886,3.2334,3.2065,2.8968,0.0,0.0,0.0,0.0,0.0,0.0,3.1904,3.2116,3.397,3.4987,3.5048,3.5686,3.6163,3.6461,3.5966,3.4845,3.3043,3.3182,3.2215,2.9783,3.0005,0.0,0.0,0.0,0.0,0.0,0.0,0.0,0.0,0.0,0.0,0.0,0.0,0.0,0.0,0.0,0.0,0.0,0.0,0.0,0.0,3.3108,0.0,0.0,0.0,0.0,0.0,0.0,0.0,0.0,0.0,0.0,3.7969,3.9205,4.0453,4.1269,0.0,0.0,0.0,0.0,4.4624,4.5402,4.5688,4.5773,4.5801,4.5838,4.5654,4.5123,0.0,0.0,4.6074,4.6145,4.6199,4.6282,4.6338,4.5783,4.4301,4.511,4.5773,4.5145,4.557,4.617,4.6207,4.6217,4.631,2.9921,0.0,0.0,0.0,0.0,2.961,2.9854,3.0301,3.0312,3.0094,2.9748,2.9732,0.0,0.0,0.0,0.0,0.0,0.0,3.202,3.3102,3.3721,3.4306,3.4897,3.516,3.5284,3.5247,3.4939,3.4653,3.4376,3.3239,3.1545,2.935,0.0,0.0,0.0,0.0,3.2786,3.3392,3.4455,3.5168,3.5512,3.5819,3.6163,3.6492,3.5966,3.5481,3.5021,3.3972,3.3121,3.2498,3.1521,0.0,0.0,0.0,0.0,0.0,0.0,0.0,0.0,0.0,0.0,0.0,0.0,0.0,0.0,0.0,0.0,0.0,0.0,0.0,3.3924,3.4231,3.4442,0.0,0.0,0.0,0.0,0.0,0.0,0.0,0.0,0.0,4.1626,4.1731,4.2123,0.0,0.0,4.4357,4.4851,4.5062,4.5232,4.5488,0.0,0.0,0.0,4.5706,4.5513,4.5037,4.5734,4.6385,4.6585,4.6623,4.6998,4.8096,4.8352,4.8334,4.8407,4.716,4.6209,4.5851,4.6386,4.6939,4.6912,4.7673,4.8431,3.1055,3.0343,3.0459,3.073,3.1143,3.1159,3.1384,3.1754,3.1766,3.1596,3.1376,3.1663,3.1687,3.1522,3.1973,0.0,0.0,0.0,3.4453,3.5358,3.5813,3.6248,3.6667,3.6768,3.6757,3.6667,3.6622,3.6398,3.6033,3.5809,3.4602,3.2507,0.0,0.0,3.2204,3.341,3.4128,3.4364,3.5048,3.5485,3.5704,3.5958,3.621,3.6476,3.6183,3.598,3.5893,3.5049,3.4292,3.3729,3.2966,3.1986,0.0,0.0,0.0,0.0,0.0,0.0,0.0,0.0,0.0,0.0,0.0,3.0392,0.0,0.0,0.0,0.0,3.3591,3.4592,3.5522,3.5843,0.0,0.0,0.0,0.0,0.0,0.0,0.0,4.1114,4.215,4.2968,4.3545,4.3686,4.3827,4.4153,4.4726,4.5251,4.5619,0.0,4.5929,4.6245,4.638,4.6539,4.683,4.6672,4.6543,4.6699,4.7371,4.7972,4.8172,4.8237,4.8583,4.9385,4.9677,4.982,5.0223,4.8895,4.7781,4.7762,4.8009,4.8245,4.8302,4.8887,4.938,3.1787,3.1958,3.2196,3.2207,3.2057,3.2118,3.2171,3.2247,3.2312,3.2411,3.259,3.3249,3.3699,3.3947,3.4873,0.0,0.0,3.6402,3.678,3.6987,3.7775,3.8179,3.8235,3.8426,3.8419,3.8299,3.8157,3.7884,3.7544,3.7322,3.6964,3.6508,3.5567,3.4779,3.4266,3.5425,3.5781,3.5245,3.5807,3.5971,3.5704,3.6006,3.6242,3.6476,3.6492,3.6307,3.6003,3.6234,3.5635,3.4094,3.4347,3.3649,3.1674,0.0,0.0,0.0,0.0,0.0,0.0,0.0,0.0,0.0,0.0,0.0,0.0,0.0,0.0,0.0,3.6161,0.0,3.7241,3.7803,0.0,0.0,0.0,3.8712,4.0091,4.0908,4.1719,4.2637,0.0,0.0,0.0,0.0,4.5496,4.5047,4.51,4.5454,4.6255,4.642,4.6747,4.7501,4.7742,4.8059,4.8551,4.8356,4.8385,4.9199,4.9873,5.0039,5.0125,5.0194,5.0288,5.0383,5.0434,5.0464,5.0373,5.0333,5.0402,5.0409,5.0009,4.9748,4.9927,4.9684,4.9531,3.446,3.467,3.483,3.3951,3.252,3.3178,3.3772,3.4317,3.4839,3.5182,3.5414,3.5735,3.6099,3.6451,3.6772,3.7014,3.7186,3.7467,3.786,3.8356,3.9101,3.9703,4.0156,4.0723,4.0926,4.0749,4.0708,4.0532,4.0232,3.9951,3.9607,3.9225,3.8817,3.7871,3.6492,3.7139,3.7435,3.7294,3.6946,3.641,3.5735,3.5768,3.5974,3.6258,3.6274,3.6415,3.6704,3.6368,3.6169,3.6112,3.5467,3.4704,3.3792,3.3299,0.0,0.0,0.0,0.0,0.0,0.0,0.0,0.0,0.0,3.2965,3.3822,0.0,3.5105,0.0,3.671,3.8088,3.9255,3.9502,0.0,0.0,4.0978,4.1255,4.1546,4.2287,4.3086,4.3828,4.4343,4.4883,4.5492,4.5848,4.6221,4.6634,4.6582,4.6791,4.753,4.7649,4.7958,4.8637,4.8833,4.897,4.9143,4.9564,4.986,5.0141,5.0272,5.0229,4.9918,4.9864,5.0062,5.0628,5.0766,5.0995,5.1495,5.1645,5.1604,5.1484,5.0653,4.9852,4.983,5.0082,5.0366,3.5277,3.5391,3.5629,3.4986,3.3882,3.4491,3.4984,3.5396,3.5822,3.6118,3.6363,3.6977,3.7609,3.8196,3.8333,3.8643,3.9072,3.9165,3.9543,4.0171,4.0507,4.0843,4.1162,4.1511,4.154,4.1283,4.1267,4.1111,4.0763,4.0555,4.0316,4.0029,4.0164,3.9645,3.8498,3.845,3.83,3.7992,3.7446,3.6834,3.6185,3.6155,3.6133,3.6116,3.6164,3.6398,3.6754,3.6654,3.6648,3.6735,3.6397,3.5971,3.5483,3.4987,3.4477,0.0,0.0,0.0,0.0,0.0,0.0,0.0,0.0,0.0,0.0,0.0,3.68,0.0,0.0,0.0,4.1053,4.1372,4.1678,4.2005,4.2324,4.258,4.2816,4.3262,4.3864,4.4604,4.4884,4.5358,4.6199,4.6375,4.6741,4.7543,4.7553,4.7683,4.8153,4.8266,4.8443,4.8863,4.9001,4.9139,4.9376,5.0236,5.089,5.0958,5.0988,5.091,5.0796,5.0771,5.0915,5.1329,5.1389,5.1437,5.1836,5.1864,5.1796,5.1571,5.1049,5.0581,5.0509,5.071,5.0886,3.5598,3.5641,3.5898,3.5973,3.5889,3.6142,3.6123,3.5922,3.6128,3.6359,3.6691,3.7841,3.88,3.9513,3.9647,4.0147,4.0836,4.0866,4.1217,4.1777,4.1738,4.1656,4.1614,4.1619,4.1407,4.1099,4.1099,4.0876,4.0437,4.0438,4.0301,4.0101,4.061,4.0623,4.0134,3.9508,3.8839,3.8129,3.7708,3.7259,3.6763,3.669,3.6441,3.6077,3.6099,3.6242,3.6492,3.6907,3.7031,3.6783,3.7094,3.7126,3.6816,3.6262,3.6104,0.0,3.5897,0.0,0.0,0.0,0.0,0.0,0.0,0.0,0.0,3.8211,3.889,4.0319,4.1655,4.2488,4.2592,4.3066,4.337,4.3343,4.3241,4.34,4.3919,4.4107,4.4451,4.5209,4.539,4.5807,4.6621,4.6765,4.7117,4.7925,4.8091,4.8247,4.8592,4.8645,4.8662,4.8688,4.8845,4.9265,4.9782,5.0637,5.1328,5.1541,5.1693,5.1871,5.2021,5.2196,5.2298,5.2285,5.2222,5.211,5.1956,5.1894,5.1765,5.1692,5.1595,5.1519,5.137,5.1154,5.1125,3.8168,3.8279,3.8326,3.8341,3.8341,3.8544,3.781,3.6487,3.712,3.791,3.8863,3.9776,4.0373,4.0664,4.0835,4.0986,4.113,4.1243,4.1297,4.1361,4.1913,4.203,4.1795,4.2368,4.2446,4.2136,4.2104,4.1978,4.1741,4.163,4.1549,4.1517,4.1302,4.1101,0.0,0.0,0.0,0.0,3.8247,3.7669,3.7032,3.6546,3.6319,3.6305,3.5974,0.0,3.6461,3.6693,3.7012,3.745,3.7269,0.0,0.0,0.0,0.0,0.0,0.0,0.0,0.0,0.0,0.0,0.0,4.0534,4.0101,3.9439,4.037,4.1363,4.2127,4.2487,4.2916,4.3533,4.3721,4.4038,4.4576,4.4618,4.4619,4.4654,4.5234,4.5739,4.5761,4.6357,4.6879,4.7073,4.7107,4.7412,4.822,4.8346,4.8658,4.9347,4.9267,4.9356,4.9906,4.9968,5.0183,5.0584,5.0831,5.1096,5.1201,5.1842,5.2258,5.2395,5.2905,5.3296,5.3278,5.3278,5.3229,5.3202,5.3211,5.2983,5.281,5.2737,5.2468,5.1555,5.1088,5.0862,3.8848,0.0,3.8963,3.8996,0.0,0.0,3.8779,3.797,3.8516,3.9136,3.9876,4.038,4.0707,4.0854,4.1031,4.1255,4.1493,4.1568,4.1704,4.1897,4.2213,4.2269,4.2099,4.2378,4.2381,4.2158,4.2141,4.2061,4.1851,4.1687,4.1588,4.1588,4.1338,4.112,4.0949,4.0487,3.9886,3.9202,3.8797,3.8216,3.7473,3.715,3.6912,3.6739,0.0,0.0,0.0,0.0,0.0,0.0,0.0,0.0,0.0,0.0,0.0,3.9165,3.9262,3.9641,4.032,4.0444,4.0872,4.1777,4.2245,4.2112,4.1226,4.2213,4.2954,4.3283,4.3611,4.4018,4.4393,4.4445,4.4554,4.4879,4.5223,4.5392,4.5334,4.5957,4.6413,4.6389,4.6741,4.7151,4.7598,4.7646,4.7999,4.877,4.8956,4.9073,4.9485,4.9545,4.9719,5.0205,5.0302,5.0526,5.1067,5.1266,5.1503,5.2011,5.2539,5.2868,5.2988,5.3334,5.3599,5.3586,5.3458,5.3348,5.3334,5.3254,5.3116,5.2973,5.2898,5.2749,5.2095,5.1871,5.1759,3.909,3.9091,3.9223,3.9273,3.9289,3.9514,3.9659,3.9723,0.0,0.0,0.0,4.0671,4.084,4.0943,4.1142,4.1452,4.185,4.1851,4.2082,4.2491,4.2397,4.2334,4.2318,4.2126,4.206,4.2024,4.204,4.2005,4.1902,4.1735,4.1666,4.1617,4.1479,4.1257,4.0998,4.054,4.0091,3.9662,3.9241,3.8692,3.7943,3.7811,3.7591,3.7232,3.7307,3.7539,3.799,3.8393,3.8834,3.9282,3.9706,4.0075,4.0424,4.0587,4.0851,4.1255,4.1312,4.152,4.195,4.2091,4.2255,4.2458,4.3238,4.3518,4.3023,4.3608,4.3952,4.3925,4.4606,4.5015,4.5032,4.5151,4.5181,4.5086,4.5617,4.5918,4.5867,4.6473,4.6927,4.6959,4.7141,4.7439,4.815,4.8267,4.853,4.918,4.9314,4.9411,4.9473,4.957,4.9788,5.0086,5.0316,5.0654,5.1283,5.1743,5.2199,5.2768,5.3208,5.3493,5.3605,5.3752,5.3841,5.3922,5.3616,5.3526,5.3448,5.339,5.3097,5.3085,5.307,5.3038,5.3026,5.3026,5.2919,4.0144,4.0279,4.0281,4.0281,4.0333,4.0687,4.1006,4.124,4.0849,4.0674,4.0785,4.1534,4.1885,4.1917,4.1917,4.1981,4.2045,4.2045,4.2094,0.0,4.2158,4.2077,4.1963,4.1947,4.2167,4.2555,4.2603,4.277,4.3102,4.3115,4.3026,4.2819,4.2641,4.2317,4.1858,4.1597,4.1171,4.0592,3.9461,3.8697,3.8388,3.7828,3.7611,3.7694,3.7336,3.7417,3.7974,3.8177,3.8575,3.9266,3.9487,3.9783,4.0274,4.0486,4.0602,4.0792,4.0956,4.1409,4.2206,4.2369,4.2839,4.3748,4.4526,4.4714,4.4145,4.4173,4.4201,4.4123,4.4778,4.5169,4.5219,4.5738,4.6057,4.6062,4.6181,4.6234,4.625,4.6992,4.7504,4.7521,4.8233,4.8631,4.8777,4.8827,4.8877,4.9044,4.9124,4.914,4.9258,4.9515,4.9769,5.0065,5.0574,5.103,5.1505,5.198,5.2517,5.2724,5.3378,5.382,5.3847,5.4331,5.4662,5.4757,5.4623,5.463,5.4632,5.4707,5.4463,5.4321,5.4291,5.4312,5.4136,5.4122,5.3825,4.0383,4.0489,4.0489,4.0489,4.0524,4.0932,4.1221,4.1472,4.1733,4.1658,4.1453,4.182,4.2029,4.2093,4.2093,4.2061,4.1996,4.1996,4.2139,4.2422,4.2422,4.2595,4.286,4.2892,4.2966,4.3079,4.3079,4.3132,4.3206,4.3149,4.3025,4.2918,4.2667,4.2355,4.2018,4.1652,4.1255,4.08,3.9833,3.9192,3.8872,3.8227,3.8025,3.8336,3.8117,3.832,3.8897,3.9143,3.9551,4.0085,4.0462,4.0801,4.115,4.1385,4.1585,4.1707,4.1922,4.2414,4.3269,4.3758,4.4229,4.4729,4.5058,4.5139,4.4868,4.5167,4.5362,4.5304,4.5622,4.5791,4.5791,4.6093,4.6293,4.6293,4.6645,4.6879,4.6978,4.7593,4.8121,4.8266,4.8613,4.8925,4.8986,4.9018,4.9018,4.9018,4.9018,4.9063,4.9167,4.9335,4.9718,5.0368,5.0865,5.1491,5.2254,5.2777,5.3285,5.3727,5.4183,5.4437,5.4454,5.4818,5.4955,5.4992,5.493,5.4902,5.4904,5.4793,5.4716,5.4669,5.4622,5.4575,5.4527,5.4512,5.4269,4.0773,4.0898,4.0951,4.0986,4.104,4.1348,4.1555,4.1774,4.2527,4.2617,4.2275,4.2293,4.2359,4.2458,4.2458,4.2409,4.2309,4.2309,4.2527,4.2884,4.2932,4.3199,4.3589,4.3652,4.3595,4.3547,4.3545,4.3517,4.3479,4.3348,4.3221,4.313,4.2833,4.2589,4.2379,4.1903,4.1539,4.1214,4.0512,3.9919,3.9412,3.8899,3.8793,3.9131,3.9239,3.9502,4.0046,4.0423,4.0795,4.1162,4.1676,4.2045,4.2293,4.2589,4.2816,4.2976,4.3104,4.3505,4.4265,4.4852,4.5195,4.5292,4.5472,4.5554,4.5602,4.6165,4.6412,4.6147,4.6181,4.6281,4.6331,4.6498,4.6579,4.6612,4.7092,4.7425,4.7524,4.8038,4.8468,4.8644,4.869,4.8785,4.891,4.894,4.8972,4.8986,4.9018,4.9048,4.9123,4.9168,4.9693,5.0674,5.1193,5.1828,5.3134,5.3639,5.401,5.4664,5.4774,5.4769,5.4801,5.4852,5.4884,5.4871,5.4811,5.4749,5.4733,5.4639,5.4543,5.4527,5.4527,5.4478,5.4415,5.4385,5.4415,4.1952,4.215,4.2268,4.2476,4.2525,4.2596,4.2705,4.2915,4.3218,4.3321,4.3245,4.3447,4.3533,4.3549,4.3519,4.3487,4.3486,4.3516,4.3531,4.3594,4.3609,4.3539,4.3493,4.346,4.3637,4.399,4.4034,4.4257,4.4586,4.4629,4.4473,4.4174,4.3945,4.3702,4.3499,4.3046,4.2708,4.2517,4.1698,4.087,4.008,3.9958,4.0047,4.0237,4.0489,4.0776,4.107,4.1586,4.1989,4.2337,4.2703,4.3104,4.3466,4.3722,4.3893,4.4014,4.4064,4.4262,4.4609,4.4707,4.4968,4.5293,4.5914,4.6258,4.6274,4.693,4.6799,4.5913,4.6028,4.6437,4.6438,4.6963,4.7292,4.7276,4.749,4.7671,4.7704,4.7999,4.8227,4.826,4.8452,4.8611,4.8769,4.8816,4.8879,4.8986,4.9018,4.9001,4.9048,4.9107,4.9743,5.1022,5.1685,5.2276,5.3242,5.4011,5.4336,5.4526,5.4543,5.4573,5.4606,5.459,5.4559,5.4653,5.4575,5.4559,5.4559,5.4512,5.4513,5.4447,5.4431,5.4415,5.4271,5.4227,5.4278,4.2113,4.2316,4.2511,4.2638,4.2695,4.2757,4.2847,4.2969,4.3568,4.3814,4.3892,4.4355,4.4265,4.3706,4.3704,4.3704,4.3704,4.3704,4.3856,4.4099,4.4128,4.4243,4.4458,4.4471,4.4502,4.457,4.4585,4.4614,4.4677,4.4625,4.4473,4.4281,4.3988,4.3788,4.3651,4.311,4.2789,4.2673,4.2129,4.1642,4.1227,4.0495,4.0202,4.0412,4.066,4.0926,4.1198,4.1592,4.1984,4.2306,4.2613,4.2934,4.3324,4.3636,4.3843,4.3929,4.45,4.4897,4.505,4.5402,4.5711,4.5897,4.6157,4.6351,4.6351,4.6626,4.6497,4.6127,4.6597,4.7044,4.7061,4.7323,4.7487,4.7504,4.7537,4.7604,4.7704,4.7803,4.7968,4.8163,4.8292,4.8404,4.8595,4.8706,4.8848,4.8987,4.9001,4.9018,4.9018,4.9048,4.9767,5.1065,5.1633,5.2335,5.3516,5.4207,5.4445,5.4496,5.4512,5.4512,5.4512,5.4512,5.4512,5.4512,5.4512,5.4512,5.4512,5.4496,5.448,5.4402,5.4223,5.4159,5.4094,5.4388,5.4678,4.2587,4.2774,4.3048,4.3156,4.3159,4.3238,4.3311,4.336,4.4023,4.4333,4.4395,4.4949,4.482,4.4177,4.4099,4.4114,4.413,4.4114,4.4295,4.4608,4.4606,4.4796,4.5098,4.5111,4.5002,4.4836,4.4802,4.4742,4.4591,4.4396,4.4281,4.4181,4.3871,4.367,4.3522,4.3005,4.2688,4.2662,4.229,4.2092,4.1947,4.1149,4.072,4.0874,4.1091,4.1356,4.1551,4.1904,4.2285,4.2612,4.2891,4.3204,4.3495,4.3903,4.4132,4.4234,4.4892,4.5422,4.551,4.5955,4.6261,4.628,4.6298,4.6298,4.6298,4.6298,4.6298,4.6303,4.6839,4.7149,4.7251,4.7251,4.7268,4.7319,4.7369,4.7454,4.7538,4.7588,4.7754,4.8017,4.8033,4.8163,4.8388,4.8563,4.8769,4.891,4.8941,4.8987,4.9018,4.9052,4.9522,5.0883,5.1304,5.2229,5.3768,5.427,5.4383,5.4431,5.4431,5.4512,5.4512,5.4512,5.4512,5.4512,5.4512,5.4464,5.4383,5.4383,5.4542,5.4484,5.4406,5.4427,5.47,5.4957,5.5094,4.3756,4.3944,4.4346,4.4437,4.4483,4.4456,4.4486,4.4432,4.4709,4.4849,4.4837,4.5061,4.5154,4.5051,4.5004,4.5095,4.5113,4.5054,4.5069,4.5095,4.5092,4.5064,4.4911,4.4911,4.4799,4.4648,4.4629,4.4625,4.4587,4.4381,4.4205,4.4007,4.3773,4.3577,4.3324,4.291,4.2688,4.2648,4.2304,4.2092,4.2092,4.2005,4.1918,4.193,4.2173,4.2359,4.2581,4.2971,4.3308,4.3609,4.4075,4.4418,4.4524,4.4859,4.5125,4.5322,4.5424,4.5638,4.5945,4.6046,4.6132,4.6261,4.6245,4.628,4.6261,4.6261,4.6261,4.6296,4.6333,4.6457,4.6633,4.6703,4.6789,4.6944,4.7098,4.7184,4.7251,4.7419,4.7554,4.7688,4.7754,4.7919,4.8212,4.8405,4.8579,4.8738,4.8785,4.8848,4.8956,4.8986,4.939,5.0147,5.1004,5.2064,5.3588,5.4127,5.4207,5.4257,5.4353,5.4464,5.4496,5.4512,5.4496,5.448,5.4432,5.4369,5.4255,5.4346,5.4607,5.4767,5.506,5.5213,5.5281,5.5125,5.5345,4.3875,4.422,4.4492,4.4591,4.4591,4.4591,4.4591,4.4625,4.4685,4.4704,4.472,4.4795,4.483,4.4814,4.4814,4.4961,4.5167,4.5201,4.5145,4.5021,4.5017,4.4908,4.4723,4.4704,4.4682,4.461,4.4591,4.453,4.4396,4.4205,4.4007,4.3793,4.3562,4.3384,4.325,4.289,4.2688,4.2648,4.2304,4.2092,4.2092,4.2092,4.2092,4.2092,4.2284,4.2433,4.25,4.289,4.321,4.3423,4.3832,4.4085,4.4243,4.4587,4.498,4.5241,4.5312,4.5386,4.5515,4.5643,4.5735,4.5792,4.59,4.5956,4.5972,4.5972,4.5972,4.5974,4.599,4.6062,4.6243,4.6351,4.6493,4.6668,4.6772,4.6911,4.7132,4.7268,4.7369,4.7537,4.7638,4.7836,4.8098,4.826,4.8372,4.8547,4.8594,4.869,4.8816,4.888,4.9131,4.9967,5.0807,5.1686,5.2667,5.3643,5.4095,5.4128,5.4177,5.4193,5.4225,5.4292,5.4292,5.424,5.424,5.4209,5.408,5.4444,5.4735,5.5417,5.567,5.5889,5.577,5.5901,5.6138,4.389,4.4205,4.4416,4.4549,4.4591,4.4591,4.4591,4.4591,4.4591,4.4591,4.4591,4.4591,4.4591,4.4591,4.4591,4.4739,4.498,4.4999,4.4942,4.4814,4.4799,4.4723,4.461,4.4591,4.4591,4.4591,4.4591,4.4477,4.4301,4.4104,4.389,4.3675,4.3438,4.3305,4.3245,4.291,4.2688,4.2642,4.2304,4.2092,4.2092,4.2092,4.2092,4.2113,4.2242,4.2345,4.2392,4.2683,4.295,4.319,4.3443,4.3714,4.3992,4.4243,4.4572,4.4942,4.4999,4.5074,4.5201,4.5331,4.5405,4.5405,4.5499,4.5625,4.5714,4.5698,4.5735,4.5771,4.5807,4.5862,4.597,4.608,4.6243,4.6441,4.6511,4.6633,4.6961,4.7013,4.7132,4.7352,4.7537,4.7754,4.7968,4.8033,4.8147,4.8355,4.8404,4.85,4.8643,4.8723,4.8887,4.9619,5.0528,5.1236,5.2096,5.3004,5.3797,5.3933,5.4014,5.4014,5.3998,5.4066,5.4066,5.3997,5.3981,5.3949,5.4156,5.4516,5.5179,5.5942,5.6499,5.6801,5.6818,5.6885,5.7003,4.3827,4.4046,4.4205,4.4435,4.4572,4.4591,4.4591,4.4591,4.4591,4.4591,4.4591,4.4591,4.4591,4.4591,4.4591,4.461,4.4663,4.4667,4.4648,4.4629,4.4629,4.461,4.4591,4.4591,4.4572,4.4572,4.4572,4.4473,4.4243,4.4065,4.3851,4.367,4.3438,4.3305,4.3305,4.291,4.2688,4.2607,4.2304,4.2092,4.2092,4.2092,4.2092,4.2092,4.2113,4.2216,4.2372,4.2412,4.2607,4.2935,4.3175,4.3522,4.3871,4.3992,4.42,4.4515,4.4606,4.4795,4.5092,4.5164,4.5167,4.522,4.522,4.5331,4.5478,4.5515,4.557,4.5714,4.5753,4.5789,4.5789,4.5825,4.5988,4.6243,4.6298,4.6404,4.6563,4.6617,4.6739,4.7115,4.7369,4.7537,4.7671,4.7737,4.7853,4.8065,4.8163,4.8243,4.842,4.8484,4.8612,4.9024,4.9912,5.0821,5.161,5.2401,5.316,5.3752,5.385,5.3899,5.3849,5.3866,5.3884,5.385,5.3833,5.3868,5.4534,5.494,5.5599,5.6342,5.6984,5.7527,5.7492,5.7459,5.7594,4.3812,4.4026,4.4224,4.4416,4.4591,4.4591,4.4591,4.4591,4.4591,4.4591,4.4591,4.4591,4.4591,4.4591,4.4591,4.4591,4.4591,4.4591,4.4591,4.4591,4.4591,4.4591,4.4591,4.4591,4.453,4.4416,4.4381,4.4205,4.3929,4.3812,4.3675,4.3443,4.3349,4.3305,4.327,4.291,4.2688,4.2648,4.2304,4.2092,4.2092,4.2092,4.2092,4.2092,4.2092,4.2133,4.2181,4.2325,4.2474,4.2602,4.2784,4.309,4.3463,4.3695,4.391,4.4147,4.4185,4.4281,4.4549,4.4735,4.4852,4.498,4.5111,4.522,4.5294,4.5294,4.5331,4.5405,4.5497,4.5589,4.5607,4.5716,4.5898,4.615,4.6168,4.6223,4.6369,4.6511,4.672,4.6928,4.715,4.7352,4.7504,4.7554,4.7604,4.7737,4.782,4.7935,4.8115,4.8227,4.8356,4.8665,4.9585,5.0406,5.1209,5.1999,5.2791,5.3415,5.3668,5.3751,5.3701,5.3667,5.3701,5.3718,5.3701,5.4025,5.4719,5.5395,5.6019,5.6779,5.7509,5.7798,5.7866,5.79,5.79,4.3827,4.4026,4.4205,4.4416,4.4591,4.4591,4.4591,4.4591,4.4591,4.4591,4.4591,4.4591,4.4591,4.4591,4.4591,4.4591,4.4587,4.4515,4.4477,4.4496,4.4587,4.4591,4.4572,4.4496,4.4377,4.4224,4.4185,4.4026,4.3729,4.369,4.3557,4.3344,4.3305,4.3305,4.325,4.291,4.2688,4.2627,4.2325,4.2092,4.2071,4.1995,4.1939,4.1953,4.1891,4.185,4.185,4.2042,4.2234,4.2392,4.2602,4.283,4.307,4.329,4.3522,4.3714,4.3851,4.3972,4.4166,4.432,4.4473,4.4663,4.4792,4.4942,4.5036,4.5092,4.5111,4.522,4.5312,4.5405,4.5405,4.5478,4.5662,4.5844,4.5934,4.606,4.6189,4.6386,4.6511,4.6668,4.6841,4.7063,4.7217,4.7369,4.7419,4.747,4.7554,4.7638,4.782,4.7935,4.8098,4.8426,4.914,4.9957,5.0809,5.1614,5.2421,5.3011,5.3484,5.3551,5.3551,5.3568,5.3568,5.3585,5.3585,5.4042,5.4683,5.5565,5.6294,5.714,5.7883,5.79,5.79,5.79,5.79,4.3832,4.4031,4.4224,4.44,4.4591,4.4591,4.4591,4.4591,4.4591,4.4591,4.4591,4.4572,4.4553,4.4553,4.4515,4.4496,4.453,4.4377,4.4281,4.432,4.4435,4.4496,4.4477,4.4358,4.4181,4.4007,4.3988,4.3851,4.3636,4.3631,4.3542,4.3344,4.3305,4.3305,4.3205,4.289,4.2688,4.2602,4.2284,4.2092,4.2071,4.1841,4.1709,4.1723,4.1549,4.1459,4.1501,4.1654,4.1945,4.2316,4.2541,4.2683,4.2729,4.2875,4.311,4.327,4.3503,4.3714,4.3875,4.3972,4.4104,4.4301,4.4358,4.4438,4.4761,4.4833,4.4908,4.5074,4.5164,4.5182,4.5201,4.5238,4.5331,4.5478,4.5698,4.5898,4.6058,4.6205,4.6314,4.6351,4.6474,4.6651,4.6858,4.703,4.72,4.7352,4.7419,4.7487,4.752,4.7638,4.7803,4.82,4.8696,4.9559,5.0393,5.0978,5.1833,5.296,5.3365,5.3433,5.3484,5.3501,5.3501,5.3501,5.3568,5.4058,5.4767,5.5649,5.6599,5.7495,5.7866,5.7883,5.79,5.79,5.79,4.4046,4.4205,4.4281,4.4416,4.4591,4.4591,4.4591,4.4591,4.4591,4.4591,4.4572,4.4454,4.4396,4.4358,4.4224,4.4147,4.4162,4.4123,4.4085,4.4089,4.4127,4.4162,4.4147,4.4108,4.3968,4.3793,4.3754,4.3655,4.3423,4.3438,4.3384,4.3324,4.3305,4.3215,4.3056,4.2815,4.2627,4.2459,4.2242,4.2092,4.2051,4.1821,4.1688,4.1681,4.1486,4.141,4.141,4.1459,4.1689,4.2154,4.2386,4.2479,4.2479,4.2668,4.2809,4.2905,4.307,4.327,4.3483,4.3675,4.3851,4.4065,4.4085,4.4185,4.4419,4.4454,4.4568,4.472,4.4871,4.4964,4.5002,4.5111,4.522,4.5294,4.5552,4.5789,4.588,4.6042,4.615,4.6168,4.6296,4.6404,4.6492,4.6667,4.6806,4.691,4.7081,4.7235,4.7268,4.7436,4.7588,4.7704,4.8183,4.9094,4.9892,5.0443,5.1363,5.2758,5.3281,5.3348,5.3433,5.3501,5.3501,5.3501,5.3501,5.3839,5.4802,5.575,5.6748,5.7646,5.7866,5.79,5.79,5.79,5.79,4.4185,4.432,4.4396,4.4492,4.4591,4.4591,4.4591,4.4591,4.4591,4.4591,4.4553,4.4362,4.432,4.4281,4.4104,4.4007,4.3988,4.391,4.3871,4.3851,4.3758,4.3758,4.3851,4.3871,4.3754,4.3542,4.3522,4.3458,4.3344,4.3305,4.3305,4.3305,4.3305,4.319,4.3001,4.2809,4.2602,4.2412,4.2201,4.2071,4.1918,4.1696,4.1514,4.1395,4.1198,4.1128,4.1213,4.1234,4.1402,4.1752,4.198,4.211,4.2131,4.2418,4.2581,4.2581,4.2769,4.2915,4.305,4.3285,4.3483,4.368,4.3793,4.3968,4.4108,4.4166,4.4243,4.4458,4.4572,4.4667,4.478,4.4946,4.5055,4.5111,4.5352,4.557,4.5662,4.5769,4.588,4.597,4.6098,4.6205,4.6207,4.6369,4.6457,4.6545,4.6738,4.6859,4.6945,4.7184,4.7386,4.7487,4.7802,4.8679,4.9625,5.0257,5.1175,5.2519,5.3213,5.3281,5.3382,5.3467,5.3501,5.3501,5.3501,5.3856,5.4938,5.5868,5.6545,5.7239,5.7629,5.79,5.79,5.79,5.79,4.4339,4.4343,4.453,4.4591,4.4591,4.4591,4.4591,4.4591,4.4591,4.4591,4.4534,4.4343,4.4258,4.4243,4.3953,4.391,4.3875,4.3714,4.367,4.3596,4.3483,4.3448,4.3636,4.3655,4.3537,4.3364,4.3324,4.3324,4.3305,4.3305,4.3305,4.3305,4.3285,4.317,4.2935,4.2749,4.2561,4.2366,4.2181,4.1974,4.1758,4.1549,4.1339,4.11,4.088,4.0859,4.0951,4.0993,4.1078,4.1297,4.1535,4.1681,4.1744,4.211,4.2254,4.2336,4.2479,4.2607,4.2688,4.2875,4.3036,4.3245,4.3478,4.3729,4.3851,4.3914,4.4046,4.4262,4.4278,4.4396,4.4568,4.4758,4.4852,4.4908,4.5055,4.522,4.5386,4.546,4.5552,4.5735,4.595,4.6006,4.6096,4.6187,4.6278,4.6314,4.6492,4.6581,4.6703,4.6892,4.7064,4.7184,4.7665,4.8279,4.9223,5.0137,5.1187,5.231,5.2958,5.3247,5.3332,5.3416,5.3467,5.3501,5.3501,5.4143,5.5293,5.6037,5.6477,5.7171,5.7798,5.79,5.79,5.79,5.79,4.4534,4.4534,4.4587,4.4591,4.4591,4.4591,4.4591,4.4591,4.4591,4.4591,4.4515,4.4239,4.4085,4.4065,4.3684,4.3448,4.3488,4.3443,4.3369,4.3384,4.3344,4.3324,4.3404,4.3404,4.3364,4.3305,4.3305,4.3305,4.3305,4.3305,4.3305,4.3305,4.315,4.2955,4.2769,4.2602,4.2351,4.2181,4.2113,4.1939,4.1681,4.1465,4.1255,4.0993,4.0795,4.0744,4.073,4.0752,4.0809,4.0937,4.1213,4.1423,4.1486,4.1585,4.1731,4.1883,4.2034,4.2219,4.2439,4.2607,4.2769,4.285,4.305,4.3215,4.3443,4.3655,4.3832,4.4026,4.4065,4.4166,4.4377,4.4534,4.4648,4.4704,4.4739,4.4833,4.5017,4.5185,4.5349,4.5515,4.5607,4.5714,4.5859,4.6006,4.6114,4.6134,4.6225,4.6333,4.6474,4.6615,4.6789,4.6944,4.7263,4.7911,4.9035,5.0048,5.1183,5.2121,5.2752,5.3179,5.3281,5.3382,5.3433,5.3467,5.3501,5.438,5.5428,5.58,5.6155,5.7053,5.79,5.79,5.79,5.79,5.7954,4.4591,4.4591,4.4591,4.4591,4.4591,4.4591,4.4591,4.4591,4.4591,4.4591,4.4515,4.4185,4.4022,4.3968,4.3542,4.3324,4.3305,4.3305,4.329,4.3324,4.3305,4.3305,4.3305,4.3305,4.3305,4.3305,4.3305,4.3305,4.3305,4.3305,4.3305,4.3305,4.3095,4.2895,4.2703,4.2514,4.2304,4.2098,4.196,4.18,4.157,4.1325,4.1093,4.0887,4.0766,4.0702,4.0702,4.0702,4.0702,4.0766,4.0937,4.1128,4.1234,4.1339,4.1444,4.1549,4.1654,4.1806,4.2034,4.226,4.2418,4.2561,4.2734,4.2875,4.303,4.3245,4.3443,4.364,4.3812,4.3968,4.4262,4.4377,4.4492,4.4591,4.4591,4.4629,4.4776,4.4946,4.5148,4.5297,4.5368,4.5478,4.5625,4.5789,4.588,4.5916,4.6096,4.6189,4.6243,4.6418,4.658,4.672,4.6927,4.7573,4.8779,4.9958,5.1161,5.2001,5.2645,5.299,5.3179,5.3281,5.3382,5.3433,5.3534,5.4329,5.5225,5.553,5.6139,5.7222,5.79,5.79,5.79,5.79,5.8007,4.4591,4.4591,4.4591,4.4591,4.4591,4.4591,4.4591,4.4591,4.4591,4.4591,4.4534,4.4205,4.4065,4.3929,4.3581,4.3369,4.3309,4.3305,4.3305,4.3305,4.3305,4.3305,4.3305,4.3305,4.3305,4.3305,4.3305,4.3305,4.3305,4.3305,4.327,4.323,4.3036,4.2815,4.2642,4.2453,4.2222,4.198,4.1806,4.1577,4.1346,4.1142,4.0951,4.0787,4.0723,4.0702,4.0702,4.0702,4.0702,4.0702,4.0702,4.0795,4.0951,4.1135,4.1318,4.1318,4.136,4.1486,4.166,4.1841,4.2028,4.229,4.2479,4.2607,4.2688,4.287,4.309,4.3309,4.3542,4.3832,4.4166,4.4224,4.4339,4.4477,4.4534,4.4568,4.461,4.4761,4.4927,4.5111,4.5167,4.5241,4.5368,4.5497,4.5607,4.5716,4.5898,4.6058,4.6096,4.6203,4.6367,4.6528,4.672,4.7613,4.8835,4.9802,5.1021,5.1892,5.2553,5.2765,5.3041,5.3195,5.3298,5.345,5.3737,5.4448,5.5073,5.5547,5.6359,5.7477,5.79,5.79,5.79,5.7918,5.8062,4.4591,4.4591,4.4591,4.4591,4.4591,4.4591,4.4591,4.4591,4.4591,4.4591,4.4553,4.4374,4.4162,4.3968,4.3754,4.3503,4.3344,4.3305,4.3305,4.3305,4.3305,4.3305,4.3305,4.3305,4.3305,4.3305,4.3305,4.3305,4.3305,4.3305,4.323,4.3036,4.2855,4.2668,4.2459,4.2228,4.2022,4.1821,4.1667,4.1437,4.1163,4.1015,4.0887,4.0723,4.0702,4.0702,4.0702,4.0702,4.0702,4.0702,4.0702,4.0744,4.0787,4.083,4.0923,4.1036,4.1078,4.1198,4.1402,4.1465,4.1612,4.1821,4.2034,4.224,4.2418,4.2642,4.285,4.311,4.3423,4.3729,4.3788,4.3968,4.4143,4.4281,4.4377,4.4419,4.4549,4.4663,4.4758,4.4893,4.4949,4.5021,4.5167,4.5294,4.5405,4.5534,4.568,4.5825,4.5934,4.6042,4.6187,4.6333,4.6511,4.7665,4.894,4.981,5.0814,5.1749,5.234,5.2502,5.2765,5.3059,5.323,5.3348,5.3687,5.4245,5.4871,5.553,5.6478,5.7526,5.7764,5.79,5.7918,5.7989,5.8188,4.4591,4.4591,4.4591,4.4591,4.4591,4.4591,4.4591,4.4591,4.4591,4.4591,4.4534,4.4396,4.4185,4.3988,4.3793,4.3557,4.3364,4.3305,4.3305,4.3305,4.3305,4.3305,4.3305,4.3305,4.3305,4.3305,4.3305,4.3305,4.3305,4.3305,4.319,4.2996,4.2795,4.2587,4.2357,4.2063,4.1841,4.1667,4.1458,4.1233,4.1001,4.0908,4.0773,4.0744,4.0702,4.0702,4.0702,4.0702,4.0702,4.0702,4.0702,4.0702,4.0702,4.0723,4.073,4.0809,4.083,4.093,4.1156,4.1198,4.1318,4.1528,4.1709,4.1904,4.209,4.2336,4.2609,4.2941,4.3115,4.3443,4.3675,4.3773,4.3929,4.4123,4.4224,4.4324,4.4419,4.4515,4.4629,4.4727,4.4761,4.4836,4.4983,4.5111,4.5222,4.5334,4.5478,4.5607,4.5753,4.5898,4.6042,4.6225,4.6486,4.7495,4.8686,4.9586,5.0585,5.1551,5.2161,5.2342,5.2555,5.2834,5.3076,5.328,5.3686,5.4025,5.4938,5.5733,5.6664,5.7476,5.773,5.79,5.7954,5.8062,5.8277,4.4591,4.4591,4.4591,4.4591,4.4591,4.4591,4.4591,4.4591,4.4591,4.4591,4.4572,4.4435,4.4262,4.4046,4.3812,4.3557,4.3324,4.3305,4.3305,4.3305,4.3305,4.3305,4.3305,4.3305,4.3305,4.3305,4.3305,4.3305,4.329,4.323,4.3115,4.2915,4.2729,4.2541,4.2284,4.1924,4.1744,4.15,4.1233,4.1001,4.0908,4.0795,4.0702,4.0702,4.0702,4.0702,4.0702,4.0702,4.0702,4.0702,4.0702,4.0702,4.0702,4.0702,4.0645,4.0561,4.0617,4.078,4.0859,4.0725,4.0788,4.0998,4.1128,4.1196,4.1379,4.159,4.2056,4.2445,4.2778,4.2917,4.3173,4.3506,4.3699,4.391,4.4085,4.4224,4.432,4.4419,4.4534,4.4591,4.4572,4.4667,4.4833,4.4871,4.4964,4.5167,4.5278,4.5478,4.5625,4.5771,4.5934,4.6152,4.6543,4.7374,4.8353,4.9232,5.0308,5.1432,5.1929,5.2197,5.2429,5.2659,5.2886,5.3127,5.3331,5.3788,5.4835,5.5851,5.6596,5.7222,5.7663,5.79,5.7936,5.8116,5.8366,4.4591,4.4591,4.4591,4.4591,4.4591,4.4591,4.4591,4.4591,4.4591,4.4591,4.4591,4.4553,4.4419,4.4185,4.3851,4.3557,4.3364,4.3305,4.3305,4.3305,4.3305,4.3305,4.3305,4.3305,4.3305,4.3305,4.3305,4.3305,4.325,4.3115,4.2935,4.2734,4.2561,4.2331,4.2119,4.18,4.1619,4.1402,4.1121,4.0908,4.0787,4.0723,4.0702,4.0702,4.0702,4.0702,4.0702,4.0702,4.0702,4.0702,4.0702,4.0702,4.0702,4.0702,4.0393,4.0259,4.0358,4.0695,4.0555,4.0245,4.0054,4.0136,3.9977,3.9784,4.0193,4.0597,4.0915,4.0783,4.1607,4.2169,4.2459,4.2961,4.3363,4.3625,4.3767,4.3996,4.4181,4.4339,4.4438,4.4515,4.4553,4.4572,4.4667,4.4685,4.472,4.4927,4.5129,4.5331,4.5515,4.5698,4.588,4.608,4.644,4.7221,4.8209,4.9057,5.008,5.1265,5.1716,5.2051,5.2285,5.2517,5.2694,5.2903,5.3127,5.3787,5.5037,5.5934,5.6511,5.712,5.773,5.79,5.79,5.8152,5.8437,4.4591,4.4591,4.4591,4.4591,4.4591,4.4591,4.4591,4.4591,4.4591,4.4591,4.4591,4.4591,4.4419,4.4108,4.3812,4.3557,4.3344,4.3305,4.3305,4.3305,4.3305,4.3305,4.3305,4.3305,4.3305,4.3305,4.3285,4.321,4.315,4.3016,4.2855,4.2561,4.2418,4.2193,4.1933,4.1654,4.1423,4.1177,4.0965,4.078,4.0723,4.0702,4.0702,4.0702,4.0702,4.0702,4.0702,4.0702,4.0702,4.0702,4.0702,4.0505,4.0301,4.014,3.9915,3.9388,3.95,3.9641,3.9613,3.9402,3.9379,3.9405,3.9288,3.9461,3.9736,3.9931,4.0222,4.0524,4.1003,4.1345,4.1649,4.23,4.269,4.3022,4.333,4.3648,4.3912,4.4224,4.4358,4.4454,4.453,4.4553,4.4572,4.461,4.4685,4.4836,4.5021,4.5204,4.546,4.568,4.5862,4.606,4.645,4.6954,4.8035,4.9024,5.0004,5.101,5.1621,5.1924,5.214,5.2356,5.257,5.2781,5.3007,5.3919,5.522,5.5848,5.6291,5.7053,5.7883,5.79,5.7918,5.8224,5.8542,4.4591,4.4591,4.4591,4.4591,4.4591,4.4591,4.4591,4.4591,4.4591,4.4591,4.4591,4.4572,4.4377,4.4046,4.3832,4.3616,4.3324,4.3305,4.3305,4.3305,4.3305,4.3305,4.3305,4.3305,4.3305,4.3305,4.321,4.311,4.297,4.285,4.2662,4.2412,4.2345,4.209,4.1765,4.1507,4.1276,4.0965,4.0795,4.0723,4.0702,4.0702,4.0702,4.0702,4.0702,4.0702,4.0702,4.0702,4.0702,4.0435,4.0343,4.0027,3.9564,3.9355,3.9047,3.8586,3.8516,3.839,3.8424,3.8401,3.8594,3.8661,3.8627,3.8655,3.8955,3.9242,3.9399,3.9639,4.0241,4.0511,4.0899,4.1552,4.1989,4.2385,4.2812,4.3145,4.3503,4.3816,4.4159,4.4358,4.4454,4.4515,4.4553,4.4591,4.4667,4.4799,4.493,4.5095,4.5371,4.5643,4.5807,4.5988,4.6263,4.6793,4.7884,4.8955,4.995,5.0804,5.1414,5.1778,5.1977,5.2212,5.2445,5.2676,5.2886,5.3898,5.508,5.5576,5.6105,5.7103,5.79,5.79,5.7991,5.8312,5.8613,4.4591,4.4591,4.4591,4.4591,4.4591,4.4591,4.4591,4.4591,4.4591,4.4591,4.4591,4.4572,4.4377,4.4065,4.3929,4.3699,4.3305,4.3305,4.3305,4.3305,4.3305,4.3305,4.3305,4.3305,4.3305,4.325,4.3135,4.2935,4.2729,4.2602,4.2494,4.2372,4.2181,4.196,4.1675,4.1402,4.1107,4.0837,4.0723,4.0702,4.0702,4.0702,4.0702,4.0702,4.0702,4.0702,4.0716,4.0603,4.0349,3.9901,3.9683,3.9264,3.8734,3.8519,3.8151,3.7687,3.752,3.734,3.72,3.754,3.7908,3.7847,3.7755,3.768,3.7912,3.7997,3.8098,3.8433,3.9221,3.9658,4.0083,4.0613,4.1213,4.1566,4.2055,4.2587,4.2965,4.3408,4.3752,4.4159,4.4339,4.4396,4.4477,4.4496,4.4572,4.4685,4.4874,4.5039,4.5315,4.5589,4.5716,4.5862,4.604,4.6679,4.7793,4.8785,4.966,5.0591,5.1345,5.1612,5.1794,5.205,5.232,5.248,5.2759,5.3857,5.4823,5.5352,5.6118,5.7271,5.79,5.7936,5.8063,5.8313,5.8614,4.4591,4.4591,4.4591,4.4591,4.4591,4.4591,4.4591,4.4591,4.4591,4.4591,4.4591,4.4572,4.4377,4.4085,4.3968,4.3738,4.3349,4.3305,4.3305,4.3305,4.3305,4.3305,4.3305,4.3285,4.325,4.3135,4.3016,4.2809,4.252,4.2412,4.2325,4.2201,4.196,4.1752,4.1507,4.1213,4.0915,4.0809,4.0702,4.0702,4.0702,4.0702,4.0702,4.0702,4.0544,4.0536,4.0437,3.9946,3.966,3.9311,3.8915,3.8394,3.7868,3.7682,3.7303,3.6848,3.6765,3.6613,3.6482,3.6771,3.7022,3.7166,3.7133,3.7167,3.7264,3.7567,3.7792,3.8083,3.8453,3.8969,3.9111,3.9882,4.0576,4.0785,4.1238,4.1856,4.2353,4.2775,4.3337,4.3714,4.4017,4.4185,4.4301,4.4396,4.4477,4.4591,4.4795,4.5002,4.526,4.5497,4.5643,4.5771,4.5934,4.673,4.7845,4.8629,4.9337,5.0313,5.1275,5.1462,5.1647,5.1957,5.2211,5.2338,5.2647,5.3578,5.4446,5.5146,5.6148,5.7389,5.7902,5.8009,5.8188,5.8367,5.8631,4.4591,4.4591,4.4591,4.4591,4.4591,4.4591,4.4591,4.4591,4.4591,4.4591,4.4591,4.4515,4.4339,4.4065,4.391,4.3699,4.3384,4.3305,4.3305,4.3305,4.3305,4.3305,4.3285,4.323,4.313,4.2996,4.285,4.2642,4.2433,4.2345,4.2181,4.196,4.1752,4.1528,4.136,4.0972,4.0702,4.0702,4.0702,4.0673,4.063,4.0608,4.0508,4.0431,4.0133,3.9951,3.9741,3.9295,3.8761,3.8442,3.8048,3.7538,3.7139,3.683,3.6597,3.6343,3.6192,3.6192,3.6212,3.6351,3.6484,3.6777,3.6867,3.6993,3.7206,3.7399,3.7586,3.7796,3.8133,3.8381,3.847,3.9212,3.962,3.9813,4.0509,4.1144,4.162,4.207,4.27,4.3255,4.3598,4.3972,4.4147,4.4281,4.4419,4.4553,4.478,4.4946,4.5077,4.5334,4.5536,4.5698,4.5844,4.6829,4.793,4.8435,4.9053,5.0357,5.1124,5.1312,5.1536,5.1829,5.2064,5.2193,5.2621,5.3334,5.4167,5.5051,5.6277,5.7558,5.7833,5.7991,5.8277,5.8472,5.8649,4.4591,4.4591,4.4591,4.4591,4.4591,4.4591,4.4591,4.4591,4.4591,4.4591,4.4572,4.4416,4.4205,4.3988,4.3832,4.3577,4.3364,4.3305,4.3305,4.3305,4.3305,4.3305,4.323,4.3115,4.2996,4.2915,4.2708,4.2479,4.2351,4.2146,4.196,4.1752,4.1528,4.1339,4.1339,4.0937,4.0723,4.0702,4.0702,4.0579,4.0471,4.0428,4.027,3.9912,3.9563,3.934,3.9015,3.8461,3.7917,3.7559,3.7222,3.675,3.6319,3.6048,3.5906,3.5831,3.5784,3.5784,3.5784,3.6158,3.6391,3.6589,3.6668,3.6845,3.7012,3.7206,3.7413,3.7591,3.7853,3.8137,3.8358,3.8597,3.88,3.9125,3.9813,4.0345,4.0818,4.1274,4.1871,4.2672,4.3285,4.3758,4.3972,4.4166,4.4362,4.4553,4.478,4.4911,4.5002,4.5133,4.5371,4.5589,4.5766,4.67,4.7622,4.802,4.8781,5.0133,5.0972,5.1162,5.135,5.1555,5.1776,5.2012,5.2409,5.2937,5.3968,5.5038,5.6403,5.7637,5.7796,5.7991,5.8295,5.8543,5.8684,4.4591,4.4591,4.4591,4.4591,4.4591,4.4591,4.4591,4.4591,4.4591,4.4591,4.4553,4.4396,4.42,4.3988,4.3773,4.3537,4.3344,4.3305,4.3305,4.3305,4.3305,4.3195,4.3115,4.2996,4.2855,4.2642,4.2433,4.2304,4.2195,4.198,4.1841,4.164,4.1304,4.1071,4.0937,4.0744,4.0702,4.0659,4.0587,4.045,4.0385,4.0191,3.9881,3.9414,3.9017,3.8623,3.828,3.7599,3.7085,3.6791,3.6498,3.6109,3.5891,3.571,3.571,3.571,3.571,3.571,3.5723,3.5898,3.6038,3.6272,3.6544,3.6701,3.6811,3.7143,3.7284,3.7438,3.7701,3.7929,3.8062,3.8381,3.8597,3.8671,3.9158,3.9564,3.9998,4.0415,4.0979,4.1931,4.2686,4.3321,4.3687,4.3957,4.4166,4.4362,4.4572,4.478,4.4893,4.4968,4.5133,4.5407,4.5746,4.6599,4.733,4.781,4.8681,4.9997,5.0742,5.1029,5.1199,5.1368,5.1592,5.1831,5.2143,5.2556,5.3961,5.532,5.6652,5.7596,5.7775,5.8009,5.833,5.8525,5.8649,4.4549,4.4591,4.4591,4.4591,4.4591,4.4591,4.4591,4.4591,4.4591,4.4568,4.4454,4.4281,4.4085,4.3871,4.3655,4.3503,4.329,4.3305,4.3305,4.3305,4.3195,4.3115,4.3016,4.285,4.2642,4.2412,4.2304,4.2181,4.196,4.1785,4.1604,4.136,4.1085,4.0866,4.0744,4.0723,4.0673,4.0587,4.045,4.0312,4.0077,3.9759,3.9334,3.8841,3.8337,3.7809,3.7336,3.6817,3.6293,3.6164,3.5961,3.569,3.569,3.569,3.569,3.571,3.571,3.571,3.5723,3.5723,3.5844,3.5958,3.6325,3.6544,3.6668,3.6923,3.7143,3.7336,3.7567,3.7701,3.7834,3.816,3.8292,3.8348,3.8603,3.9023,3.9253,3.9682,4.0217,4.1179,4.2177,4.278,4.342,4.3717,4.3953,4.4166,4.4362,4.4572,4.4761,4.4855,4.4983,4.5241,4.5557,4.6273,4.7034,4.7719,4.8685,4.9914,5.0442,5.0861,5.1067,5.1218,5.1427,5.1649,5.1948,5.2615,5.4243,5.5639,5.668,5.7406,5.7773,5.8027,5.8348,5.8508,5.8614,4.4416,4.4572,4.4591,4.4591,4.4591,4.4591,4.4591,4.4591,4.4591,4.4511,4.4301,4.4123,4.3929,4.371,4.3443,4.3329,4.3309,4.3305,4.3285,4.323,4.3115,4.3016,4.285,4.2622,4.2474,4.2345,4.2181,4.196,4.1723,4.1563,4.136,4.1078,4.0816,4.068,4.0637,4.0573,4.0522,4.045,4.0145,3.9923,3.9595,3.9067,3.8581,3.8065,3.7449,3.6918,3.6483,3.6069,3.5805,3.5697,3.5622,3.5629,3.5649,3.5669,3.5669,3.5669,3.5649,3.5609,3.5609,3.5588,3.5649,3.5723,3.5898,3.6252,3.6544,3.6701,3.6884,3.7104,3.7284,3.7438,3.7591,3.7763,3.7929,3.81,3.8254,3.8483,3.8635,3.9048,3.9566,4.0455,4.1561,4.237,4.3098,4.349,4.3738,4.3949,4.4127,4.4324,4.4534,4.4761,4.4889,4.5111,4.5459,4.5882,4.6644,4.7466,4.8396,4.9528,5.0237,5.0666,5.0877,5.1086,5.1277,5.1517,5.1735,5.2637,5.416,5.5407,5.6454,5.7077,5.7629,5.7954,5.8224,5.8437,5.8595,4.4339,4.4416,4.4534,4.4591,4.4591,4.4591,4.4591,4.4591,4.4591,4.4492,4.4281,4.4104,4.3851,4.3675,4.3423,4.3324,4.3305,4.3285,4.319,4.3095,4.2981,4.2795,4.2622,4.2453,4.2325,4.214,4.196,4.1779,4.1619,4.1437,4.11,4.0795,4.0608,4.0536,4.0372,4.03,4.025,4.0096,3.9646,3.932,3.8871,3.8291,3.7754,3.714,3.6787,3.6285,3.5818,3.5629,3.544,3.5318,3.5277,3.5277,3.529,3.5277,3.5277,3.5277,3.5256,3.5256,3.5277,3.5277,3.5338,3.548,3.5595,3.5817,3.6132,3.6425,3.6609,3.6845,3.7046,3.7182,3.7341,3.751,3.7644,3.7782,3.7953,3.811,3.8266,3.8537,3.9086,3.9925,4.1031,4.1902,4.2648,4.3249,4.3503,4.3695,4.3905,4.4089,4.4301,4.4515,4.4799,4.5017,4.5229,4.5621,4.6453,4.7309,4.8194,4.9079,4.9834,5.0499,5.0781,5.0991,5.1162,5.1422,5.1731,5.2708,5.4022,5.5138,5.6074,5.6962,5.7551,5.7827,5.8081,5.8295,5.8525,4.4089,4.4205,4.4396,4.4515,4.4572,4.4511,4.4492,4.4492,4.4473,4.4377,4.4181,4.3968,4.3754,4.3537,4.3364,4.3305,4.3305,4.319,4.3095,4.3036,4.2835,4.2642,4.2468,4.2304,4.214,4.1939,4.1779,4.1619,4.1402,4.11,4.0795,4.0587,4.0428,4.0175,3.9914,3.9589,3.94,3.9276,3.899,3.8618,3.8092,3.7501,3.688,3.6501,3.6264,3.5742,3.5398,3.529,3.5195,3.5113,3.5093,3.5106,3.5106,3.5127,3.5113,3.5113,3.5134,3.5134,3.5134,3.5134,3.5188,3.527,3.5351,3.5541,3.5797,3.6092,3.6345,3.6583,3.6766,3.6948,3.7123,3.7298,3.738,3.7495,3.7644,3.7792,3.7944,3.81,3.8761,3.9544,4.044,4.1332,4.2085,4.2748,4.323,4.3384,4.3596,4.3832,4.405,4.4301,4.461,4.4927,4.5067,4.5326,4.6188,4.701,4.7824,4.8723,4.9705,5.0278,5.064,5.0931,5.1105,5.1436,5.1798,5.284,5.3848,5.4713,5.5629,5.6531,5.7389,5.7717,5.7954,5.8171,5.8419,4.3812,4.3972,4.4185,4.4377,4.4496,4.4358,4.4281,4.4262,4.4243,4.4127,4.3968,4.3788,4.3577,4.3404,4.3324,4.327,4.3195,4.3095,4.2975,4.2955,4.2662,4.2412,4.2248,4.216,4.1918,4.1765,4.1563,4.1353,4.1008,4.0654,4.037,4.0315,4.0034,3.9635,3.9063,3.8794,3.8468,3.798,3.8068,3.7941,3.7336,3.6722,3.6192,3.6043,3.5618,3.5127,3.5106,3.5072,3.5052,3.5031,3.5011,3.499,3.497,3.497,3.499,3.499,3.4949,3.4928,3.4928,3.4928,3.5003,3.5106,3.5236,3.5358,3.5575,3.5871,3.6132,3.6325,3.653,3.6688,3.6864,3.7026,3.7162,3.7284,3.7438,3.7548,3.7644,3.7849,3.826,3.9029,3.9735,4.0627,4.145,4.2095,4.2822,4.3011,4.327,4.3522,4.3812,4.405,4.4358,4.4723,4.4942,4.5151,4.5672,4.6489,4.736,4.8304,4.9316,5.0078,5.0467,5.0781,5.1045,5.1361,5.1687,5.2583,5.3512,5.432,5.5244,5.6423,5.713,5.7556,5.7827,5.8027,5.8242,4.3714,4.3793,4.3988,4.4089,4.4143,4.4085,4.405,4.4065,4.3925,4.3812,4.3769,4.3695,4.3542,4.3324,4.3285,4.323,4.3061,4.2955,4.2795,4.2598,4.2348,4.2021,4.1858,4.1654,4.1545,4.1451,4.1262,4.088,4.0527,4.009,3.9739,3.9605,3.9184,3.8529,3.8162,3.7909,3.7489,3.682,3.6812,3.6926,3.6517,3.59,3.5375,3.5354,3.5086,3.4983,3.4921,3.4859,3.4722,3.4618,3.4585,3.4564,3.4577,3.4577,3.4564,3.4564,3.4605,3.4647,3.4647,3.4681,3.4722,3.4839,3.4983,3.5168,3.5372,3.5642,3.5898,3.6092,3.6286,3.6445,3.6623,3.6766,3.6929,3.709,3.7264,3.7322,3.738,3.7615,3.7883,3.8438,3.9088,3.9892,4.0725,4.1523,4.2233,4.2683,4.2961,4.325,4.3557,4.3812,4.4031,4.4396,4.4776,4.5076,4.5472,4.6047,4.6944,4.7807,4.8753,4.9513,5.0264,5.0669,5.1007,5.1199,5.1606,5.2387,5.3117,5.3827,5.4818,5.6192,5.6932,5.7355,5.7626,5.7845,5.8027,4.3518,4.3542,4.3773,4.3929,4.3968,4.391,4.3871,4.3812,4.3616,4.3518,4.3537,4.3503,4.3409,4.327,4.321,4.3101,4.2926,4.2774,4.2526,4.2266,4.1776,4.1449,4.1221,4.0925,4.0523,4.0373,4.0033,3.9718,3.9704,3.9277,3.8859,3.8726,3.8074,3.7625,3.7314,3.6962,3.6572,3.582,3.5737,3.5675,3.5654,3.521,3.4962,3.4962,3.4846,3.4743,3.4681,3.4598,3.4473,3.4285,3.4168,3.4105,3.4126,3.4209,3.4264,3.4293,3.4356,3.4397,3.4377,3.4397,3.446,3.4598,3.4777,3.4983,3.5208,3.546,3.5663,3.5858,3.6092,3.6286,3.6405,3.6569,3.6727,3.6889,3.707,3.7187,3.7284,3.7447,3.7648,3.7916,3.863,3.9421,4.0289,4.1139,4.1861,4.2526,4.2774,4.2996,4.3305,4.3592,4.3793,4.405,4.4454,4.4795,4.5129,4.575,4.6592,4.7403,4.8255,4.9304,5.0207,5.0624,5.0972,5.1162,5.1482,5.2032,5.2761,5.3466,5.4767,5.6227,5.6773,5.7133,5.7407,5.7662,5.7845,4.3025,4.311,4.3286,4.3482,4.3633,4.3462,4.335,4.3315,4.3124,4.2991,4.2911,4.2926,4.3076,4.318,4.3095,4.2936,4.2687,4.2232,4.2015,4.1465,4.094,4.0607,4.0235,3.9855,3.9587,3.925,3.8914,3.8761,3.8672,3.8256,3.7972,3.7784,3.746,3.713,3.6473,3.6091,3.5786,3.5291,3.504,3.4843,3.4741,3.4694,3.4686,3.4611,3.4473,3.4335,3.4314,3.4272,3.4189,3.4084,3.3873,3.3818,3.3831,3.3937,3.4013,3.4063,3.4113,3.423,3.4314,3.4314,3.4377,3.4473,3.4652,3.4839,3.5052,3.5256,3.546,3.5663,3.5898,3.6092,3.6212,3.6331,3.651,3.6747,3.6929,3.7056,3.7187,3.7278,3.7413,3.7548,3.8159,3.8946,3.9868,4.073,4.1414,4.209,4.2587,4.2815,4.3056,4.3305,4.3542,4.3812,4.4143,4.4488,4.4811,4.5381,4.6112,4.7169,4.8072,4.9205,5.0131,5.0535,5.0858,5.1105,5.1474,5.1825,5.2434,5.3173,5.4611,5.5934,5.6698,5.7055,5.7239,5.7497,5.768,4.1758,4.1777,4.1816,4.1903,4.1941,4.1884,4.1835,4.185,4.1822,4.1667,4.1652,4.1643,4.1985,4.3041,4.3036,4.2638,4.1733,4.1447,4.0833,4.0187,3.9923,3.9664,3.9359,3.8977,3.8941,3.8578,3.8206,3.8235,3.782,3.7421,3.7202,3.7119,3.6184,3.5865,3.5722,3.543,3.5238,3.4818,3.4598,3.4431,3.4277,3.4256,3.4222,3.4139,3.3979,3.3894,3.3839,3.3839,3.3818,3.3755,3.3713,3.3649,3.367,3.3704,3.3768,3.381,3.3882,3.4,3.4084,3.4181,3.4243,3.4356,3.4515,3.4639,3.4846,3.5072,3.5277,3.548,3.5696,3.5912,3.6052,3.6146,3.6305,3.6628,3.6884,3.6973,3.707,3.7109,3.7187,3.7303,3.7575,3.85,3.9516,4.0253,4.0845,4.1558,4.2322,4.2566,4.2875,4.309,4.3305,4.3581,4.3871,4.4224,4.4587,4.4902,4.5621,4.6742,4.7916,4.9108,4.9983,5.0432,5.0743,5.0991,5.1181,5.1431,5.212,5.2662,5.3783,5.5031,5.631,5.6996,5.7162,5.731,5.7476]}]]